     2.10           OBSERVATION DATA    G (GPS)             RINEX VERSION / TYPE
teqc 2002Apr3 Duncan Agnew 20050511 23:58:26UTC             PGM / RUN BY / DATE
OSX 5.3|G3|cc|OSX 5.3+|G3+                                  COMMENT
BIT 2 OF LLI FLAGS DATA COLLECTED UNDER A/S CONDITION       COMMENT
IMP CO GPS 0006 1995                                        MARKER NAME
6893                                                        MARKER NUMBER
Alex Espinoza Nolte Engineering                             OBSERVER / AGENCY
220136893 TRIMBLE 4800 NP 1.20 / SP 1.43                    REC # / TYPE / VERS
N/A TRM4800                                                 ANT # / TYPE
 -2288944.0000 -4842726.0000  3450898.0000                  APPROX POSITION XYZ
        2.0000        0.0000        0.0000                  ANTENNA: DELTA H/E/N
     1     1                                                WAVELENGTH FACT L1/2
     7    C1    L1    L2    P1    P2    S1    S2            # / TYPES OF OBSERV
SNR is mapped to RINEX snr flag value [1-9]                 COMMENT
L1: 3 -> 1; 8 -> 5; 40 -> 9                                 COMMENT
L2: 1 -> 1; 5 -> 5; 60 -> 9                                 COMMENT
  2004     6    30    14    47   50.0000000     GPS         TIME OF FIRST OBS
                                                            END OF HEADER
 04  6 30 14 47 50.0000000  0  9G 6G15G16G18G21G22G26G29G30
  20441769.5604      73957.50859     52891.78758                  20441766.4984
        53.5004         45.0004
  23929349.7774    -244291.00859   -174956.76856                  23929347.9224
        43.7504         24.5004
  23880827.9684    -112202.61359    -80242.78257                  23880825.2474
        38.7504         26.5004
  21080300.9594    -173245.71159   -125530.40758                  21080297.3584
        51.5004         43.2504
  21066773.0104    -115826.75459    -83742.98858                  21066769.0094
        51.0004         42.2504
  23283012.2844    -288911.05559   -209618.19957                  23283007.5724
        45.2504         31.5004
  21672289.4714     -47440.40659    -34019.81957                  21672287.4044
        48.2504         38.2504
  22543898.2094      46534.46959     33618.28457                  22543896.1604
        48.0004         36.2504
  24342745.5034     238779.47359    168669.42456                  24342745.3734
        40.5004         25.0004
 04  6 30 14 48  0.0000000  0  9G 6G15G16G18G21G22G26G29G30
  20443392.2814      82484.20349     59535.96048                  20443388.9024
        53.7504         45.0004
  23924216.9404    -271265.85549   -195976.19246                  23924214.7374
        43.5004         24.7504
  23878523.6404    -124313.48849    -89679.80546                  23878520.2224
        37.2504         25.2504
  21076688.9234    -192227.90649   -140321.72748                  21076685.1644
        52.5004         43.0004
  21064353.3474    -128544.10949    -93652.60848                  21064349.2904
        51.0004         42.0004
  23276868.5994    -321195.48449   -234774.88147                  23276864.1844
        44.2504         32.0004
  21671366.9854     -52288.01249    -37797.17647                  21671364.9864
        49.0004         38.0004
  22544953.9464      52083.09449     37941.88347                  22544952.0154
        48.0004         35.5004
  24348460.0434     268809.94549    192069.78447                  24348459.8004
        41.0004         25.7504
 04  6 30 14 48 10.0000000  0  9G 6G15G16G18G21G22G26G29G30
  20445031.6464      91099.30949     66249.02948                  20445027.9094
        54.2504         44.5004
  23919090.2584    -298203.77049   -216966.77546                  23919088.2404
        44.2504         25.2504
  23876235.0544    -136333.31249    -99045.93646                  23876232.8964
        39.5004         24.0004
  21073091.5174    -211130.31249   -155050.87048                  21073088.1484
        52.5004         43.0004
  21061942.6914    -141211.12549   -103523.00548                  21061938.7484
        51.0004         41.7504
  23270737.1714    -353417.52749   -259882.95747                  23270732.5474
        44.5004         31.5004
  21670464.8544     -57028.75049    -41491.25947                  21670462.7414
        47.2504         37.5004
  22546027.7374      57726.69949     42339.50547                  22546025.9684
        45.2504         35.5004
  24354179.6994     298865.30949    215489.51046                  24354179.6904
        42.2504         25.0004
 04  6 30 14 48 20.0000000  0  9G 6G15G16G18G21G22G26G29G30
  20446687.5794      99800.92649     73029.49348                  20446684.0534
        54.7504         44.5004
  23913971.0624    -325107.08649   -237930.36746                  23913969.0514
        44.2504         24.2504
  23873965.9914    -148264.38349   -108342.84746                  23873962.8934
        38.5004         25.0004
  21069509.2144    -229955.16049   -169719.58448                  21069505.6814
        52.0004         43.2504
  21059541.4314    -153830.11749   -113355.99348                  21059537.0984
        52.0004         42.5004
  23264616.1424    -385579.51249   -284944.21747                  23264612.2944
        44.2504         31.0004
  21669582.6354     -61664.82849    -45103.79047                  21669579.8524
        48.0004         37.5004
  22547119.7794      63463.03149     46809.35247                  22547117.2424
        47.2504         35.7504
  24359902.9934     328943.28949    238926.89046                  24359902.9304
        43.0004         25.0004
 04  6 30 14 50  0.0000000  4  2
2.000000                                                    COMMENT
OBSERVATION ABORTED; BAD DATA                               COMMENT
 04  6 30 14 50  0.0000000  0  8G 6G15G16G18G21G22G26G29
  20464062.9634     191111.68449    144180.66348                  20464060.4384
        53.0004         45.0004
  23863052.0274    -592685.72749   -446433.16946                  23863050.4104
        43.5004         21.5004
  23852106.2304    -263138.06649   -197854.84946                  23852103.3524
        41.7504         25.5004
  21034414.1664    -414383.47349   -313429.94248                  21034410.2574
        52.2504         43.7504
  21035945.5694    -277827.55149   -209977.38948                  21035941.4264
        51.5004         42.5004
  23203959.5084    -704330.17649   -533321.27547                  23203955.6004
        45.2504         31.0004
  21661771.8754    -102711.46549    -77088.19947                  21661769.6624
        48.2504         38.2504
  22558919.2534     125471.09449     95127.27147                  22558916.9724
        47.2504         34.7504
 04  6 30 14 50 10.0000000  0  8G 6G15G16G18G21G22G26G29
  20465876.0504     200637.08249    151603.04948                  20465873.4574
        52.0004         45.0004
  23857981.1734    -619333.30549   -467197.51746                  23857979.4124
        43.2504         24.2504
  23849997.7074    -274216.42649   -206487.35947                  23849995.0294
        40.2504         27.5004
  21030970.6864    -432479.11749   -327530.43748                  21030966.6944
        52.5004         43.7504
  21033621.0004    -290042.72349   -219495.70248                  21033616.5544
        51.7504         42.5004
  23197942.3284    -735952.41849   -557961.96547                  23197938.4744
        45.7504         30.7504
  21661085.1984    -106319.08249    -79899.32847                  21661082.9644
        49.0004         39.0004
  22560181.0064     132100.83249    100293.30947                  22560178.5484
        47.7504         35.0004
 04  6 30 14 50 20.0000000  0  8G 6G15G16G18G21G22G26G29
  20467701.0934     210230.31349    159078.29348                  20467698.5924
        53.5004         45.0004
  23852913.3594    -645964.65649   -487949.18246                  23852911.2904
        43.0004         23.0004
  23847903.3884    -285224.21149   -215064.84247                  23847900.5484
        41.0004         26.5004
  21027538.2194    -450515.50849   -341584.75448                  21027534.6454
        52.5004         43.2504
  21031302.1494    -302228.05949   -228990.75848                  21031297.9444
        52.2504         43.0004
  23191932.8864    -767532.32049   -582569.67547                  23191928.8644
        45.0004         30.7504
  21660415.1834    -109840.12549    -82642.99647                  21660413.0014
        48.5004         38.2504
  22561456.6084     138804.62949    105517.03047                  22561453.9544
        47.0004         35.5004
 04  6 30 14 50 30.0000000  0  8G 6G15G16G18G21G22G26G29
  20469539.9024     219892.42249    166607.19148                  20469537.0234
        53.0004         44.7504
  23847849.0374    -672578.78949   -508687.48946                  23847847.2734
        43.2504         22.7504
  23845821.7184    -296160.35249   -223586.52547                  23845819.3394
        41.5004         26.2504
  21024117.4544    -468491.42249   -355591.95848                  21024113.4364
        52.2504         43.0004
  21028988.9044    -314382.50849   -238461.76548                  21028985.3404
        51.5004         42.5004
  23185931.9914    -799068.73049   -607143.48747                  23185927.5214
        44.2504         31.0004
  21659761.8034    -113273.45349    -85318.31847                  21659759.5454
        48.7504         38.0004
  22562746.8744     145583.53549    110799.28747                  22562743.9904
        47.5004         35.0004
 04  6 30 14 50 40.0000000  0  8G 6G15G16G18G21G22G26G29
  20471391.3324     229622.85249    174189.34748                  20471388.8604
        53.0004         44.5004
  23842787.6574    -699176.10949   -529412.65246                  23842786.1524
        42.5004         22.7504
  23843755.0194    -307025.30949   -232052.69147                  23843751.6074
        42.0004         26.7504
  21020707.7614    -486407.41849   -369552.46848                  21020704.2904
        52.0004         43.0004
  21026682.1614    -326506.62949   -247909.12448                  21026678.0284
        52.0004         42.2504
  23179938.7024    -830562.16849   -631683.83047                  23179933.9684
        45.7504         31.0004
  21659124.7024    -116619.47349    -87925.60447                  21659122.5614
        49.5004         37.5004
  22564050.7654     152437.07849    116139.71447                  22564048.6284
        47.7504         34.5004
 04  6 30 14 50 50.0000000  0  8G 6G15G16G18G21G22G26G29
  20473256.0334     239420.96949    181824.23448                  20473253.6494
        52.7504         45.2504
  23837729.9394    -725757.28149   -550125.27246                  23837727.6504
        42.0004         23.0004
  23841700.9234    -317819.75449   -240463.97347                  23841698.0664
        41.5004         27.0004
  21017310.0534    -504264.09449   -383466.76348                  21017306.4004
        52.0004         42.5004
  21024380.5284    -338601.18749   -257333.46148                  21024376.1414
        52.0004         42.5004
  23173954.0164    -862013.20349   -656191.11147                  23173949.3824
        44.2504         31.0004
  21658504.7764    -119878.94149    -90465.45247                  21658502.2544
        50.0004         37.5004
  22565369.1884     159364.53549    121537.72347                  22565366.4094
        47.0004         34.7504
 04  6 30 14 51  0.0000000  0  8G 6G15G16G18G21G22G26G29
  20475133.1344     249285.82449    189511.11448                  20475130.6554
        53.0004         44.7504
  23832673.8794    -752323.27349   -570826.02846                  23832672.2974
        42.7504         22.2504
  23839659.5164    -328544.57849   -248820.98747                  23839657.1214
        41.2504         28.0004
  21013923.1224    -522062.41449   -397335.58548                  21013919.7484
        52.0004         43.0004
  21022084.7664    -350666.95349   -266735.36748                  21022080.2714
        51.7504         42.2504
  23167976.9034    -893422.80549   -680666.14247                  23167972.4284
        44.5004         31.5004
  21657901.0284    -123052.74249    -92938.54947                  21657898.6204
        49.0004         37.5004
  22566701.0314     166364.78949    126992.45947                  22566698.5134
        47.2504         35.2504
 04  6 30 14 51 10.0000000  0  8G 6G15G16G18G21G22G26G29
  20477022.9494     259215.94949    197248.86948                  20477020.2934
        52.5004         45.0004
  23827621.6674    -778875.43449   -591516.05246                  23827619.8674
        42.7504         23.0004
  23837632.4644    -339201.16049   -257124.80947                  23837628.9714
        42.5004         28.2504
  21010547.2014    -539803.85549   -411160.08048                  21010543.4074
        52.0004         43.2504
  21019793.7594    -362705.26649   -276115.87048                  21019789.5284
        52.0004         42.2504
  23162007.6764    -924792.26249   -705109.85747                  23162002.5634
        45.0004         31.5004
  21657313.1064    -126142.16849    -95345.89547                  21657310.8204
        49.7504         38.0004
  22568047.1354     173436.48449    132502.86047                  22568044.1754
        47.5004         34.2504
 04  6 30 14 51 20.0000000  0  8G 6G15G16G18G21G22G26G29
  20478925.4574     269213.87949    205039.46448                  20478923.0034
        52.7504         45.2504
  23822571.7034    -805411.32849   -612193.31346                  23822569.8054
        43.0004         24.0004
  23835617.2844    -349787.06249   -265373.56547                  23835614.1704
        42.5004         27.5004
  21007182.3824    -557485.86749   -424938.25848                  21007178.7324
        52.0004         43.2504
  21017508.3064    -374713.64149   -285473.04248                  21017504.4534
        52.0004         42.5004
  23156046.1614    -956119.09049   -729520.36347                  23156041.6164
        45.7504         31.0004
  21656741.5124    -129144.82049    -97685.61547                  21656739.0914
        49.0004         37.7504
  22569406.5584     180582.21149    138070.96647                  22569403.4704
        46.0004         33.7504
 04  6 30 14 51 30.0000000  0  8G 6G15G16G18G21G22G26G29
  20480839.7514     279274.46149    212878.86548                  20480837.3974
        53.0004         45.0004
  23817524.7084    -831936.07849   -632861.95546                  23817522.4804
        42.0004         23.0004
  23833615.4774    -360307.37949   -273571.22647                  23833612.7784
        41.5004         27.2504
  21003827.9714    -575113.56249   -438674.12148                  21003824.4544
        52.0004         43.5004
  21015228.3704    -386697.21149   -294810.88948                  21015224.1224
        51.7504         42.0004
  23150091.5284    -987408.37149   -753901.59047                  23150087.5634
        44.0004         31.0004
  21656185.6594    -132065.72749    -99961.65447                  21656183.8534
        49.2504         38.0004
  22570779.0924     187796.73849    143692.67047                  22570776.5284
        46.5004         33.5004
 04  6 30 14 51 40.0000000  0  8G 6G15G16G18G21G22G26G29
  20482766.8934     289401.09049    220769.72948                  20482763.9734
        52.7504         45.0004
  23812479.2424    -858446.31249   -653519.26746                  23812477.4934
        42.2504         22.7504
  23831626.4014    -370758.71549   -281715.10347                  23831623.9214
        42.2504         26.5004
  21000484.7204    -592683.53149   -452365.01848                  21000480.5984
        52.0004         43.2504
  21012953.1984    -398652.59049   -304126.77448                  21012948.8154
        51.5004         42.0004
  23144145.1104   -1018656.59449   -778250.84147                  23144141.2554
        44.2504         32.0004
  21655645.9544    -134901.57049   -102171.39447                  21655643.8134
        49.7504         37.5004
  22572166.0604     195083.43849    149370.60547                  22572164.0624
        46.5004         33.5004
 04  6 30 14 51 50.0000000  0  8G 6G15G16G18G21G22G26G29
  20484705.5884     299589.48449    228708.74848                  20484703.4744
        53.5004         44.5004
  23807436.9654    -884946.23449   -674168.54046                  23807435.4404
        42.2504         23.0004
  23829650.0094    -381145.22749   -289808.48047                  23829647.5594
        41.7504         26.0004
  20997151.1814    -610200.02349   -466014.21748                  20997147.6154
        51.5004         42.7504
  21010682.8174    -410583.98449   -313423.95348                  21010678.2284
        51.0004         42.0004
  23138206.3634   -1049868.02049   -802571.40947                  23138201.9994
        44.7504         31.5004
  21655122.0834    -137656.45749   -104318.04747                  21655119.8414
        48.5004         37.2504
  22573565.4654     202438.00849    155101.44547                  22573563.1554
        45.2504         33.5004
 04  6 30 14 52  0.0000000  0  8G 6G15G16G18G21G22G26G29
  20486655.6674     309836.20749    236693.19148                  20486653.0204
        53.0004         45.2504
  23802395.4924    -911439.42249   -694812.57146                  23802393.6354
        43.2504         24.0004
  23827685.0974    -391470.48449   -297854.16147                  23827682.0824
        42.5004         27.2504
  20993827.6014    -627666.48049   -479624.45048                  20993823.9974
        52.0004         43.0004
  21008416.2774    -422494.89149   -322705.19148                  21008412.5174
        51.0004         42.2504
  23132272.8884   -1081046.09049   -826865.99047                  23132269.0404
        43.5004         32.0004
  21654612.5784    -140333.86349   -106404.34047                  21654610.3164
        49.5004         37.7504
  22574977.2494     209856.95349    160882.43047                  22574974.8264
        45.2504         33.5004
 04  6 30 14 52 10.0000000  0  8G 6G15G16G18G21G22G26G29
  20488616.4454     320141.12149    244722.98448                  20488614.4024
        53.0004         45.5004
  23797355.0174    -937925.80949   -715451.30546                  23797353.3124
        42.5004         25.0004
  23825732.8374    -401734.46549   -305852.06847                  23825730.0534
        40.5004         28.0004
  20990512.9674    -645082.96949   -493195.73148                  20990509.2084
        51.7504         42.7504
  21006153.5924    -434385.36749   -331970.50148                  21006149.1564
        50.5004         42.0004
  23126346.8804   -1112190.80149   -851134.58147                  23126342.5264
        45.5004         32.2504
  21654117.4954    -142933.89849   -108430.33847                  21654115.6024
        47.5004         38.2504
  22576401.4724     217340.18049    166713.50447                  22576399.3104
        44.7504         33.7504
 04  6 30 14 52 20.0000000  0  8G 6G15G16G18G21G22G26G29
  20490589.2344     330506.97349    252800.26148                  20490587.0504
        53.0004         45.2504
  23792317.1234    -964402.77049   -736082.71346                  23792315.2574
        41.5004         24.2504
  23823791.3184    -411934.50049   -313800.16147                  23823788.1974
        42.2504         27.5004
  20987208.8814    -662446.79749   -506725.99248                  20987205.0724
        52.0004         43.2504
  21003895.2724    -446252.76249   -341217.81648                  21003890.9774
        49.2504         42.5004
  23120426.6634   -1143299.38349   -875375.02547                  23120422.2074
        45.5004         31.7504
  21653638.2024    -145453.73449   -110393.85047                  21653635.9144
        45.0004         38.7504
  22577838.0134     224890.36349    172596.73947                  22577835.9604
        45.0004         34.5004
 04  6 30 14 52 30.0000000  0  8G 6G15G16G18G21G22G26G29
  20492572.7824     340930.97349    260922.85148                  20492570.3404
        53.2504         45.5004
  23787279.8534    -990872.92649   -756708.77046                  23787277.8354
        42.5004         25.0004
  23821861.8994    -422073.16849   -321700.42047                  23821859.2084
        40.0004         28.0004
  20983914.3894    -679760.55549   -520217.21448                  20983910.8734
        51.7504         43.2504
  21001640.5874    -458099.67649   -350449.16948                  21001636.7004
        50.7504         42.0004
  23114513.4354   -1174374.46949   -899589.37047                  23114509.0404
        46.0004         32.0004
  21653173.0624    -147896.10249   -112296.98947                  21653170.9934
        49.0004         39.0004
  22579286.7174     232504.91049    178530.16247                  22579284.5684
        43.7504         34.5004
 04  6 30 14 52 40.0000000  0  8G 6G15G16G18G21G22G26G29
  20494568.1284     351416.21949    269093.16548                  20494565.6604
        52.5004         45.0004
  23782243.9364   -1017333.43049   -777327.32246                  23782242.5504
        40.7504         25.5004
  23819944.6954    -432147.60949   -329550.63347                  23819941.9234
        41.5004         27.7504
  20980629.7164    -697021.48849   -533667.30248                  20980625.8524
        51.7504         43.0004
  20999390.8124    -469923.18449   -359662.30348                  20999386.7314
        48.5004         41.7504
  23108606.8534   -1205413.07449   -923775.28147                  23108602.3914
        45.5004         31.2504
  21652724.1924    -150258.02349   -114137.45347                  21652721.3984
        46.0004         39.2504
  22580748.9604     240186.55549    184515.85947                  22580746.7194
        44.5004         33.5004
 04  6 30 14 52 50.0000000  0  8G 6G15G16G18G21G22G26G29
  20496574.8594     361961.25049    277310.06348                  20496572.0904
        52.7504         45.0004
  23777211.1524   -1043785.47349   -797939.32446                  23777208.9324
        42.5004         24.2504
  23818038.9284    -442159.13349   -337351.83347                  23818036.3784
        42.0004         27.0004
  20977354.7134    -714230.65249   -547077.02948                  20977351.4104
        51.7504         43.0004
  20997145.3604    -481724.56649   -368858.18548                  20997141.2674
        49.2504         42.0004
  23102707.1474   -1236416.41849   -947933.72847                  23102702.4784
        44.7504         32.2504
  21652289.5254    -152540.77349   -115916.21747                  21652287.0534
        46.2504         38.0004
  22582223.1004     247934.10249    190552.90147                  22582221.1804
        44.7504         33.2504
 04  6 30 14 53  0.0000000  0  8G 6G15G16G18G21G22G26G29
  20498592.8724     372566.00449    285573.50848                  20498590.6884
        52.5004         45.0004
  23772178.5764   -1070229.24249   -818544.82946                  23772177.1414
        42.5004         24.7504
  23816146.5384    -452107.80149   -345104.03247                  23816143.6784
        41.5004         27.5004
  20974089.7114    -731388.20349   -560446.53948                  20974086.3824
        51.7504         43.2504
  20994903.6394    -493503.88749   -378036.87148                  20994899.7064
        50.2504         42.0004
  23096814.3524   -1267384.62549   -972064.77947                  23096809.8844
        46.2504         31.5004
  21651869.8064    -154744.43449   -117633.35847                  21651868.1264
        47.7504         38.0004
  22583710.5084     255747.38749    196641.16747                  22583707.7494
        46.2504         34.0004
 04  6 30 14 53 10.0000000  0  8G 6G15G16G18G21G22G26G29
  20500623.0144     383233.03149    293885.46448                  20500620.4484
        54.5004         45.2504
  23767148.6614   -1096662.09449   -839141.86446                  23767147.2564
        41.0004         25.0004
  23814265.2614    -461990.98849   -352805.23947                  23814262.8294
        42.5004         26.5004
  20970834.5594    -748491.59849   -573773.86448                  20970831.5894
        52.0004         43.0004
  20992666.5764    -505258.47349   -387196.29848                  20992662.2644
        48.5004         42.5004
  23090928.2534   -1298314.94549   -996166.32247                  23090923.7024
        46.0004         31.0004
  21651466.3244    -156866.39849   -119286.84547                  21651463.8434
        45.0004         38.5004
  22585209.7944     263628.98849    202782.66547                  22585207.4074
        46.7504         34.0004
 04  6 30 14 53 20.0000000  0  8G 6G15G16G18G21G22G26G29
  20502665.0424     393965.78149    302248.64648                  20502662.7914
        53.5004         45.0004
  23762121.4574   -1123080.61349   -859727.69846                  23762119.7034
        41.5004         24.7504
  23812398.6664    -471805.26249   -360452.70947                  23812395.5224
        41.5004         28.0004
  20967591.0634    -765537.37149   -587056.27848                  20967587.4064
        51.5004         43.0004
  20990435.1954    -516984.89549   -396333.76648                  20990431.0664
        48.5004         42.2504
  23085050.2134   -1329204.01249  -1020235.71547                  23085045.1704
        45.7504         31.5004
  21651078.8534    -158903.22349   -120873.96047                  21651076.8044
        45.0004         38.5004
  22586722.9734     271582.12549    208979.92347                  22586720.7314
        45.5004         34.0004
 04  6 30 14 53 30.0000000  0  8G 6G15G16G18G21G22G26G29
  20504720.0274     404763.57849    310662.50748                  20504717.3174
        53.2504         46.0004
  23757096.7864   -1149485.47349   -880302.92346                  23757095.0234
        41.2504         24.7504
  23810543.1574    -481551.25449   -368047.00947                  23810540.7094
        42.2504         27.7504
  20964358.1674    -782526.27049   -600294.37348                  20964354.7634
        51.7504         43.0004
  20988209.1954    -528683.83249   -405449.82348                  20988204.5734
        50.7504         42.5004
  23079180.1714   -1360052.52349  -1044273.49147                  23079175.4164
        45.7504         31.2504
  21650707.0744    -160855.60949   -122395.30747                  21650704.9924
        47.5004         39.0004
  22588250.3794     279606.33649    215232.53247                  22588247.8434
        46.5004         34.2504
 04  6 30 14 53 40.0000000  0  8G 6G15G16G18G21G22G26G29
  20506787.7284     415628.50049    319128.65948                  20506784.6064
        53.0004         45.5004
  23752075.2954   -1175874.50849   -900865.80646                  23752073.5714
        39.5004         24.2504
  23808702.7804    -491226.78549   -375586.37847                  23808699.7404
        43.0004         27.2504
  20961136.8154    -799455.98049   -613486.36748                  20961132.9244
        51.5004         42.7504
  20985988.8054    -540352.85249   -414542.57348                  20985984.4564
        51.0004         42.0004
  23073317.7774   -1390858.18449  -1068277.88947                  23073313.3874
        46.5004         31.2504
  21650352.3074    -162721.33649   -123849.12447                  21650350.2734
        49.0004         38.5004
  22589791.3234     287703.72749    221542.17447                  22589788.5974
        46.2504         34.5004
 04  6 30 14 53 50.0000000  0  8G 6G15G16G18G21G22G26G29
  20508869.2124     426565.78549    327651.21448                  20508866.5954
        54.0004         45.0004
  23747057.2034   -1202242.51249   -921412.27846                  23747055.5444
        41.0004         25.0004
  23806875.4804    -500826.71549   -383066.83646                  23806873.0654
        42.2504         25.5004
  20957927.5104    -816321.39849   -626628.24048                  20957923.7614
        52.2504         42.7504
  20983774.7204    -551987.13349   -423608.25048                  20983770.3164
        50.5004         42.0004
  23067465.3324   -1421615.75849  -1092244.82247                  23067460.5224
        46.7504         31.7504
  21650015.0654    -164495.14849   -125231.29947                  21650012.7404
        48.2504         38.2504
  22591347.1004     295879.39149    227912.84047                  22591344.4464
        45.7504         34.5004
 04  6 30 14 54  0.0000000  0  8G 6G15G16G18G21G22G26G29
  20510964.1374     437577.64849    336231.87948                  20510961.5644
        53.2504         45.5004
  23742043.9824   -1228587.28549   -941940.65146                  23742042.0954
        41.2504         25.5004
  23805063.1384    -510348.82449   -390486.67847                  23805060.8934
        41.5004         27.7504
  20954730.6864    -833120.18749   -639718.20848                  20954726.9654
        52.0004         43.0004
  20981567.5024    -563584.40649   -432645.08048                  20981564.0894
        50.2504         42.2504
  23061621.2794   -1452322.93049  -1116172.48147                  23061617.1694
        46.0004         31.2504
  21649694.8734    -166174.80949   -126540.13347                  21649692.8704
        48.5004         38.2504
  22592917.4424     304135.56649    234346.21147                  22592915.9264
        44.7504         34.2504
 04  6 30 14 54 10.0000000  0  8G 6G15G16G18G21G22G26G29
  20513074.0884     448664.32849    344870.85148                  20513071.2444
        54.0004         45.0004
  23737035.5564   -1254908.52049   -962450.69846                  23737033.5664
        40.0004         24.2504
  23803266.1604    -519792.66449   -397845.51547                  23803263.3324
        41.7504         26.7504
  20951546.8174    -849852.11349   -652756.06848                  20951543.3554
        51.5004         43.0004
  20979368.0444    -575144.03549   -441652.58248                  20979363.4044
        51.5004         42.0004
  23055787.0464   -1482979.41449  -1140060.62647                  23055782.9654
        45.5004         31.0004
  21649393.0474    -167760.03949   -127775.37747                  21649391.0014
        49.5004         38.2504
  22594504.2434     312472.47749    240842.49347                  22594502.2684
        46.0004         34.0004
 04  6 30 14 54 20.0000000  0  8G 6G15G16G18G21G22G26G29
  20515198.1624     459827.13349    353569.14248                  20515195.1544
        54.0004         45.5004
  23732031.3014   -1281204.88749   -982941.37646                  23732029.6854
        37.7504         25.2504
  23801484.6644    -529157.04749   -405142.46147                  23801481.5694
        41.0004         27.0004
  20948375.7244    -866515.93449   -665740.85348                  20948372.0424
        51.5004         43.2504
  20977175.7754    -586664.89549   -450629.87148                  20977171.5774
        51.7504         42.5004
  23049963.8084   -1513583.86349  -1163908.23747                  23049959.7224
        45.5004         31.5004
  21649109.8834    -169249.62149   -128936.08247                  21649107.8874
        48.7504         38.5004
  22596106.7804     320891.37549    247402.64947                  22596104.4954
        44.0004         34.0004
 04  6 30 14 54 30.0000000  0  8G 6G15G16G18G21G22G26G29
  20517336.9504     471065.40249    362326.22348                  20517334.0484
        54.0004         45.2504
  23727031.8734   -1307477.13349  -1003413.23747                  23727029.8444
        39.0004         25.7504
  23799717.5174    -538442.56649   -412377.90847                  23799715.4204
        42.0004         27.7504
  20945217.5294    -883112.21549   -678673.02448                  20945214.3754
        52.2504         43.0004
  20974990.6444    -598147.73049   -459577.53648                  20974986.2384
        50.5004         42.7504
  23044149.5254   -1544136.80549  -1187715.72847                  23044145.3054
        45.5004         31.5004
  21648844.4774    -170643.96149   -130022.58147                  21648842.1974
        47.2504         38.0004
  22597724.0804     329391.62949    254026.24647                  22597721.9664
        46.2504         34.2504
 04  6 30 14 54 40.0000000  0  8G 6G15G16G18G21G22G26G29
  20519488.2904     482372.52349    371136.97248                  20519485.6474
        54.0004         45.5004
  23722034.6374   -1333731.73849  -1023871.36446                  23722034.3364
        40.5004         25.2504
  23797964.0304    -547655.82849   -419557.09247                  23797961.4244
        42.5004         28.2504
  20942071.1874    -899647.52349   -691557.66748                  20942067.6364
        52.0004         43.2504
  20972811.2244    -609599.12949   -468500.71448                  20972806.9994
        51.2504         43.0004
  23038344.0954   -1574644.89849  -1211488.25447                  23038339.7034
        46.0004         32.5004
  21648595.7814    -171949.79349   -131040.11147                  21648593.6504
        47.2504         38.5004
  22599355.7414     337966.55949    260707.99347                  22599353.5564
        46.0004         33.5004
 04  6 30 14 54 50.0000000  0  8G 6G15G16G18G21G22G26G29
  20521652.9234     493746.37949    379999.69348                  20521650.4054
        54.2504         45.2504
  23717042.4314   -1359970.93049  -1044317.48646                  23717040.6674
        39.0004         25.0004
  23796224.9364    -556799.00849   -426681.66847                  23796221.7134
        41.5004         28.5004
  20938935.5474    -916124.02049   -704396.49848                  20938931.8994
        51.2504         43.2504
  20970637.9854    -621021.30149   -477401.10348                  20970633.6854
        51.5004         42.7504
  23032546.2664   -1605110.17649  -1235227.40947                  23032542.7184
        45.5004         31.7504
  21648363.6344    -173169.24649   -131990.32847                  21648361.8034
        47.0004         37.7504
  22601001.5944     346614.03949    267446.28847                  22600999.1394
        45.5004         33.5004
 04  6 30 14 55  0.0000000  0  8G 6G15G16G18G21G22G26G29
  20523829.3684     505184.05149    388912.16248                  20523826.8334
        54.0004         45.2504
  23712051.4944   -1386197.52749  -1064753.75146                  23712050.2374
        40.5004         25.5004
  23794496.5944    -565874.98849   -433753.83947                  23794494.6034
        40.5004         28.5004
  20935810.7024    -932544.58649   -717191.73548                  20935807.2214
        52.0004         43.2504
  20968469.1984    -632416.96949   -486280.83948                  20968465.5984
        50.5004         42.7504
  23026757.4714   -1635535.50449  -1258935.44047                  23026753.0214
        44.5004         31.5004
  21648147.5714    -174305.07849   -132875.40347                  21648145.5884
        46.0004         38.0004
  22602660.6114     355331.17649    274238.87247                  22602658.1974
        45.2504         33.7504
 04  6 30 14 55 10.0000000  0  8G 6G15G16G18G21G22G26G29
  20526017.4664     516681.78549    397871.44448                  20526014.9674
        54.0004         45.2504
  23707062.5094   -1412415.13349  -1085183.04047                  23707061.9564
        40.2504         26.7504
  23792782.6894    -574887.27049   -440776.38447                  23792779.2224
        41.2504         28.5004
  20932696.1344    -948912.86749   -729946.23348                  20932692.8294
        51.2504         42.7504
  20966305.1754    -643789.66849   -495142.67948                  20966301.2114
        50.5004         42.2504
  23020974.0464   -1665924.40649  -1282615.10447                  23020970.2104
        45.2504         31.2504
  21647946.1804    -175360.94949   -133698.14347                  21647944.3054
        45.0004         37.7504
  22604331.6864     364114.30949    281082.86347                  22604329.6674
        46.2504         34.0004
 04  6 30 14 55 20.0000000  0  8G 6G15G16G18G21G22G26G29
  20528216.9524     528239.99249    406877.82048                  20528214.5164
        54.2504         44.7504
  23702075.5354   -1438623.65649  -1105605.25947                  23702074.1584
        40.5004         27.5004
  23791080.0844    -583835.69149   -447749.21047                  23791076.5014
        42.7504         28.0004
  20929591.3204    -965228.65649   -742659.83648                  20929587.3734
        52.0004         42.5004
  20964145.2604    -655138.94549   -503986.27748                  20964141.4874
        51.0004         42.0004
  23015198.2924   -1696276.75049  -1306266.24947                  23015194.3564
        46.0004         31.5004
  21647761.0384    -176336.68749   -134458.47247                  21647759.0984
        46.7504         37.0004
  22606015.2284     372963.55949    287978.38847                  22606012.9734
        46.5004         33.5004
 04  6 30 14 55 30.0000000  0  8G 6G15G16G18G21G22G26G29
  20530427.3634     539855.98049    415929.23648                  20530424.8704
        53.5004         45.2504
  23697088.9064   -1464825.50049  -1126022.28547                  23697087.8294
        39.0004         26.7504
  23789388.3744    -592722.80149   -454674.22447                  23789385.4584
        41.5004         28.2504
  20926496.0944    -981494.42249   -755334.46048                  20926492.3014
        52.0004         43.0004
  20961989.4464    -666467.72349   -512813.89648                  20961985.4864
        50.7504         42.0004
  23009429.1604   -1726594.88349  -1329890.78947                  23009424.9384
        46.0004         32.2504
  21647590.1704    -177234.81249   -135158.29947                  21647588.3034
        47.0004         38.2504
  22607711.1664     381876.42649    294923.45347                  22607709.1044
        44.7504         33.2504
 04  6 30 14 55 40.0000000  0  8G 6G15G16G18G21G22G26G29
  20532648.6394     551528.42649    425024.64648                  20532645.5344
        54.0004         45.2504
  23692104.2614   -1491022.00849  -1146435.14447                  23692102.9534
        40.7504         27.5004
  23787708.6294    -601549.93449   -461552.49747                  23787706.3184
        43.0004         27.2504
  20923410.1814    -997711.60249   -767971.21448                  20923406.6754
        52.0004         43.5004
  20959837.7444    -677777.33649   -521626.57948                  20959833.5654
        49.0004         42.0004
  23003666.0564   -1756880.21549  -1353489.71347                  23003661.9354
        45.0004         31.7504
  21647434.1014    -178056.54349   -135798.60347                  21647432.0154
        44.5004         38.0004
  22609419.4104     390851.53949    301917.06347                  22609416.9494
        42.2504         33.0004
 04  6 30 14 55 50.0000000  0  8G 6G15G16G18G21G22G26G29
  20534880.3924     563256.25849    434163.22248                  20534877.6844
        54.7504         45.5004
  23687120.3144   -1517214.30149  -1166844.69147                  23687119.1114
        40.7504         28.5004
  23786040.2994    -610318.13349   -468384.86947                  23786037.6094
        40.2504         28.2504
  20920332.9834   -1013881.21549   -780570.91248                  20920329.5864
        52.0004         43.7504
  20957688.7104    -689068.71149   -530425.04148                  20957684.8464
        51.0004         42.7504
  22997908.9714   -1787133.75049  -1377063.88647                  22997904.4134
        45.0004         32.0004
  21647292.1514    -178803.05149   -136380.29247                  21647289.8264
        46.7504         38.2504
  22611139.3684     399887.71149    308958.23747                  22611137.5124
        44.0004         34.5004
 04  6 30 14 56  0.0000000  0  8G 6G15G16G18G21G22G26G29
  20537122.5534     575040.82849    443345.99748                  20537119.9644
        54.0004         45.5004
  23682137.3304   -1543400.91449  -1187249.85147                  23682135.6484
        41.2504         27.7504
  23784383.2364    -619025.98049   -475170.21047                  23784380.3824
        41.7504         28.2504
  20917265.5074   -1030001.71549   -793132.34248                  20917262.3424
        52.0004         43.5004
  20955543.8774    -700340.42249   -539208.19348                  20955540.1434
        50.7504         42.5004
  22992158.0884   -1817353.94549  -1400612.06547                  22992154.0304
        44.2504         32.0004
  21647164.6504    -179472.79749   -136902.18247                  21647162.3884
        47.0004         38.5004
  22612870.7454     408986.46949    316048.16647                  22612868.4654
        44.7504         34.2504
 04  6 30 14 56 10.0000000  0  8G 6G15G16G18G21G22G26G29
  20539375.3824     586878.53949    452570.18648                  20539372.6964
        53.7504         45.5004
  23677154.0194   -1569585.46149  -1207653.36047                  23677152.7384
        41.5004         27.2504
  23782737.0324    -627677.07849   -481911.31547                  23782734.3634
        41.5004         28.0004
  20914206.6044   -1046076.80549   -805658.37348                  20914203.2634
        52.0004         43.5004
  20953402.2084    -711596.03549   -547978.80648                  20953398.1174
        51.0004         42.2504
  22986413.3914   -1847544.43449  -1424137.10247                  22986408.8714
        46.0004         32.5004
  21647050.8264    -180069.50449   -137367.14447                  21647048.6584
        47.5004         38.0004
  22614613.2134     418144.05549    323183.95347                  22614611.3244
        43.2504         33.7504
 04  6 30 14 56 20.0000000  0  8G 6G15G16G18G21G22G26G29
  20541638.2774     598769.93449    461836.19848                  20541635.5534
        53.7504         45.0004
  23672171.6634   -1595767.38349  -1228054.85347                  23672170.8694
        42.0004         28.7504
  23781101.0154    -636270.82849   -488607.76247                  23781098.6544
        42.5004         28.0004
  20911156.3444   -1062105.83249   -818148.53548                  20911152.9514
        52.0004         43.2504
  20951263.5404    -722834.96549   -556736.42548                  20951259.3374
        51.0004         42.2504
  22980673.7324   -1877704.55549  -1447638.49047                  22980669.2224
        44.7504         32.7504
  21646951.3284    -180592.51649   -137774.69647                  21646948.9164
        46.7504         37.5004
  22616367.1844     427360.95349    330365.93547                  22616365.0384
        44.0004         33.2504
 04  6 30 14 56 30.0000000  0  8G 6G15G16G18G21G22G26G29
  20543910.7634     610712.12549    471141.79448                  20543908.5014
        54.0004         45.0004
  23667189.9064   -1621949.49649  -1248456.49847                  23667188.3984
        40.5004         28.0004
  23779476.0654    -644810.06249   -495261.70547                  23779473.5974
        41.7504         26.5004
  20908113.9924   -1078091.67249   -830605.01148                  20908110.8994
        52.0004         43.0004
  20949127.1814    -734060.00849   -565483.20348                  20949123.2494
        51.2504         41.7504
  22974940.1714   -1907837.10249  -1471118.38847                  22974935.4344
        45.2504         32.7504
  21646865.3154    -181044.65249   -138127.01147                  21646863.4104
        47.7504         37.5004
  22618131.7134     436634.53949    337592.10847                  22618129.7714
        44.0004         33.7504
 04  6 30 14 56 40.0000000  0  8G 6G15G16G18G21G22G26G29
  20546193.5834     622708.24649    480489.41748                  20546191.0514
        52.5004         44.7504
  23662207.6324   -1648128.82049  -1268855.96247                  23662206.2754
        42.0004         28.2504
  23777863.0504    -653291.78549   -501870.84947                  23777859.3734
        41.0004         27.5004
  20905081.0264   -1094031.34449   -843025.53448                  20905077.5134
        51.5004         43.0004
  20946994.5524    -745268.09049   -574216.77548                  20946990.3184
        51.0004         42.2504
  22969211.7454   -1937939.00049  -1494574.40147                  22969206.6434
        45.7504         32.7504
  21646793.1844    -181422.82049   -138421.69047                  21646790.8244
        48.0004         37.0004
  22619907.9294     445967.55149    344864.58247                  22619906.1164
        43.5004         34.2504
 04  6 30 14 56 50.0000000  0  8G 6G15G16G18G21G22G26G29
  20548486.6994     634758.31649    489879.06948                  20548484.3924
        53.2504         45.2504
  23657226.8034   -1674305.28949  -1289253.21147                  23657225.1324
        43.2504         27.2504
  23776259.4824    -661715.96149   -508435.14347                  23776256.8524
        43.5004         27.5004
  20902056.5864   -1109924.80949   -855410.06248                  20902053.1594
        52.5004         43.5004
  20944865.0674    -756459.23849   -582937.15048                  20944860.7684
        51.5004         42.5004
  22963488.9564   -1968010.17649  -1518006.48347                  22963484.6344
        45.7504         33.0004
  21646735.3464    -181727.08249   -138658.76847                  21646732.8024
        47.5004         37.5004
  22621695.0554     455360.07449    352183.42547                  22621692.9324
        43.0004         34.5004
 04  6 30 14 57  0.0000000  0  8G 6G15G16G18G21G22G26G29
  20550789.8364     646861.68049    499310.25648                  20550787.0334
        52.7504         45.0004
  23652246.1484   -1700479.39149  -1309648.59147                  23652244.4764
        41.2504         28.0004
  23774667.2704    -670083.04349   -514954.93747                  23774664.5874
        42.0004         29.0004
  20899041.0574   -1125772.52749   -867758.93348                  20899037.4384
        51.5004         44.0004
  20942738.3944    -767633.83249   -591644.62548                  20942734.0264
        52.2504         42.5004
  22957772.7514   -1998051.07849  -1541414.97147                  22957767.8464
        46.0004         32.5004
  21646691.4034    -181957.87949   -138838.62047                  21646688.7634
        47.0004         37.5004
  22623493.9524     464811.65249    359548.29347                  22623491.8344
        44.2504         33.0004
 04  6 30 14 57 10.0000000  0  8G 6G15G16G18G21G22G26G29
  20553103.3624     659018.77049    508783.30148                  20553100.5994
        53.0004         45.0004
  23647266.0944   -1726650.72749  -1330041.81747                  23647264.2444
        41.5004         29.7504
  23773085.9794    -678392.59849   -521429.91347                  23773083.1484
        44.2504         28.5004
  20896033.4244   -1141574.05549   -880071.79448                  20896030.5574
        52.0004         44.2504
  20940615.3134    -778791.55949   -600338.94548                  20940610.9364
        52.2504         42.5004
  22952061.9394   -2028061.29349  -1564799.55447                  22952057.5924
        46.2504         32.5004
  21646661.2364    -182114.70349   -138960.81247                  21646658.7194
        47.7504         38.0004
  22625304.0744     474322.60549    366959.41947                  22625301.9014
        45.0004         34.0004
 04  6 30 14 57 20.0000000  0  8G 6G15G16G18G21G22G26G29
  20555427.0654     671230.82049    518299.17148                  20555424.3274
        53.0004         44.7504
  23642286.1574   -1752818.06249  -1350431.98147                  23642284.9234
        44.0004         29.0004
  23771515.4284    -686643.50849   -527859.19547                  23771513.3664
        41.5004         27.5004
  20893035.8654   -1157328.25449   -892347.80048                  20893032.3494
        52.5004         43.5004
  20938495.3984    -789931.18049   -609019.19048                  20938491.2104
        52.5004         42.5004
  22946357.4874   -2058039.59849  -1588159.24747                  22946352.8894
        47.0004         32.0004
  21646645.8044    -182196.47749   -139024.53047                  21646643.6004
        47.0004         38.0004
  22627125.5194     483894.07849    374417.70647                  22627122.9144
        44.5004         33.5004
 04  6 30 14 57 30.0000000  0  8G 6G15G16G18G21G22G26G29
  20557760.8544     683494.24649    527855.08448                  20557757.9984
        53.2504         44.5004
  23637307.0264   -1778984.87149  -1370821.66047                  23637305.8554
        42.7504         28.7504
  23769956.2634    -694839.15249   -534245.41647                  23769953.8624
        42.0004         28.0004
  20890046.8244   -1173038.53149   -904589.57848                  20890042.7554
        51.7504         43.0004
  20936378.4234    -801056.11349   -617687.96148                  20936374.2784
        52.5004         42.0004
  22940657.9444   -2087989.36749  -1611496.72747                  22940653.5174
        46.2504         31.7504
  21646643.8794    -182206.62949   -139032.44647                  21646641.9274
        47.5004         37.5004
  22628957.4304     493522.62549    381920.47047                  22628955.0974
        44.0004         33.2504
 04  6 30 14 57 40.0000000  0  8G 6G15G16G18G21G22G26G29
  20560104.6354     695811.09849    537452.63148                  20560101.7484
        52.7504         44.5004
  23632328.5984   -1805149.15249  -1391209.42847                  23632326.0014
        41.7504         29.2504
  23768407.1714    -702977.62949   -540587.08047                  23768404.9874
        42.0004         27.5004
  20887065.6784   -1188702.95349   -916795.61748                  20887062.0064
        52.0004         43.0004
  20934264.4034    -812164.44149   -626343.79648                  20934260.2264
        52.0004         42.2504
  22934964.6034   -2117908.68449  -1634810.46647                  22934959.3934
        46.0004         32.0004
  21646656.0004    -182143.16849   -138982.98847                  21646653.6794
        48.0004         37.7504
  22630800.2814     503210.16449    389469.20347                  22630798.4314
        43.5004         33.0004
 04  6 30 14 57 50.0000000  0  8G 6G15G16G18G21G22G26G29
  20562458.2854     708179.66449    547090.43948                  20562455.7544
        52.5004         44.0004
  23627349.5534   -1831312.67649  -1411596.61147                  23627347.4324
        42.0004         27.0004
  23766869.2034    -711060.55149   -546885.49447                  23766866.2024
        43.5004         26.7504
  20884093.0814   -1204323.15249   -928967.20748                  20884089.6944
        52.2504         43.0004
  20932153.6604    -823257.79749   -634987.98448                  20932149.4634
        52.5004         41.7504
  22929276.3504   -2147799.09049  -1658101.72447                  22929271.5874
        46.0004         31.7504
  21646681.8764    -182007.75849   -138877.50947                  21646680.0344
        48.5004         37.0004
  22632654.8264     512954.87949    397062.44647                  22632652.7604
        44.5004         32.7504
 04  6 30 14 58  0.0000000  0  8G 6G15G16G18G21G22G26G29
  20564821.3124     720599.18449    556768.01148                  20564819.3264
        53.0004         44.7504
  23622370.1934   -1857476.07849  -1431983.64847                  23622368.6694
        43.5004         28.0004
  23765341.6364    -719088.60949   -553141.11547                  23765338.4814
        41.7504         27.7504
  20881128.9504   -1219899.82449   -941104.84448                  20881125.6554
        52.0004         44.0004
  20930045.5724    -834336.78149   -643620.93948                  20930040.9114
        52.0004         42.7504
  22923594.0994   -2177661.28149  -1681370.92047                  22923589.4284
        46.0004         33.0004
  21646721.8274    -181801.07449   -138716.43447                  21646719.0644
        49.2504         38.2504
  22634520.1704     522756.11349    404699.78347                  22634518.4854
        44.7504         34.2504
 04  6 30 14 58 10.0000000  0  8G 6G15G16G18G21G22G26G29
  20567195.0104     733072.22349    566487.25348                  20567192.4364
        52.7504         44.5004
  23617392.7754   -1883636.79749  -1452368.60447                  23617390.1604
        44.2504         28.5004
  23763825.2994    -727059.32449   -559352.05847                  23763821.6634
        40.7504         27.2504
  20878173.6594   -1235430.45749   -953206.64348                  20878170.3534
        52.0004         43.5004
  20927940.4294    -845398.86749   -652240.75048                  20927936.4804
        52.0004         42.5004
  22917917.2154   -2207492.61349  -1704616.09547                  22917912.7984
        45.5004         33.0004
  21646774.7694    -181520.62149   -138497.88847                  21646772.4514
        48.7504         38.2504
  22636396.3654     532616.37149    412383.11047                  22636394.0484
        44.7504         33.2504
 04  6 30 14 58 20.0000000  0  8G 6G15G16G18G21G22G26G29
  20569579.1234     745600.97749    576249.90548                  20569576.7054
        52.5004         45.0004
  23612414.7804   -1909792.63749  -1472749.76447                  23612412.9384
        43.5004         28.0004
  23762319.8424    -734970.50449   -565516.62747                  23762316.0404
        41.5004         27.0004
  20875227.4254   -1250912.82049   -965270.83148                  20875223.7584
        52.2504         43.5004
  20925838.9694    -856441.87549   -660845.69248                  20925834.7134
        52.2504         43.2504
  22912246.6684   -2237290.89549  -1727835.54447                  22912242.3444
        45.5004         32.2504
  21646842.5804    -181164.12949   -138220.11147                  21646840.6834
        48.0004         38.0004
  22638284.6904     542537.81349    420114.07747                  22638281.9804
        45.0004         33.5004
 04  6 30 14 58 30.0000000  0  8G 6G15G16G18G21G22G26G29
  20571973.1674     758181.94549    586053.24548                  20571970.6354
        53.5004         44.7504
  23607437.9024   -1935946.97749  -1493129.75147                  23607436.4924
        44.0004         28.0004
  23760824.8024    -742825.52349   -571637.41347                  23760821.7664
        43.7504         28.0004
  20872289.7614   -1266350.30949   -977300.03548                  20872286.0454
        52.5004         43.5004
  20923740.6134    -867469.21549   -669438.43048                  20923736.0424
        52.0004         43.2504
  22906581.9334   -2267059.48449  -1751031.81947                  22906577.2664
        46.5004         32.7504
  21646924.0534    -180735.05949   -137885.76647                  21646921.6414
        48.7504         37.5004
  22640183.8234     552517.03549    427890.11047                  22640181.2544
        45.0004         33.5004
 04  6 30 14 58 40.0000000  0  8G 6G15G16G18G21G22G26G29
  20574377.1474     770815.14849    595897.31048                  20574374.8344
        52.2504         44.5004
  23602461.5134   -1962099.87549  -1513508.62647                  23602459.2924
        44.0004         29.0004
  23759341.1464    -750624.40649   -577714.48447                  23759337.2584
        40.7504         28.5004
  20869360.6574   -1281742.95349   -989294.28348                  20869357.4404
        52.2504         43.2504
  20921645.0044    -878480.88749   -678018.94348                  20921640.9374
        52.2504         42.5004
  22900922.7734   -2296798.35249  -1774204.94847                  22900918.3634
        45.2504         32.7504
  21647019.4854    -180233.30149   -137494.78247                  21647017.3134
        48.2504         37.0004
  22642093.7854     562553.91049    435711.04547                  22642091.0404
        45.2504         33.0004
 04  6 30 14 58 50.0000000  0  8G 6G15G16G18G21G22G26G29
  20576791.0804     783501.31649    605782.62148                  20576788.8124
        53.0004         44.2504
  23597484.5604   -1988250.55949  -1533885.76247                  23597482.9614
        44.7504         28.5004
  23757867.9834    -758366.37149   -583747.17747                  23757864.6984
        42.0004         27.7504
  20866440.3764   -1297089.94949  -1001252.98348                  20866436.4044
        52.0004         43.5004
  20919552.7694    -889476.10249   -686586.64348                  20919548.0944
        52.7504         42.2504
  22895269.6064   -2326506.67249  -1797354.27247                  22895264.9694
        45.5004         32.5004
  21647129.3694    -179658.22349   -137046.67347                  21647126.7454
        47.0004         37.2504
  22644015.0254     572649.25449    443577.54047                  22644012.1824
        43.7504         33.0004
 04  6 30 14 59  0.0000000  0  8G 6G15G16G18G21G22G26G29
  20579215.4114     796240.64849    615709.34648                  20579213.6854
        52.5004         43.7504
  23592509.4084   -2014398.75449  -1554261.01347                  23592507.6194
        45.0004         28.5004
  23756405.1274    -766051.05949   -589735.27847                  23756402.1354
        43.7504         27.2504
  20863528.8254   -1312391.08649  -1013175.96948                  20863525.1034
        51.7504         43.7504
  20917463.5014    -900454.55949   -695141.30148                  20917459.1254
        52.5004         41.5004
  22889622.2764   -2356184.12549  -1820479.56647                  22889617.8994
        46.0004         32.5004
  21647252.6874    -179009.54749   -136541.22947                  21647250.3614
        48.0004         36.2504
  22645946.7404     582803.26649    451489.73147                  22645944.2814
        46.7504         32.5004
 04  6 30 14 59 10.0000000  0  8G 6G15G16G18G21G22G26G29
  20581649.6494     809031.46149    625676.22148                  20581647.1134
        53.0004         44.5004
  23587533.2984   -2040546.27349  -1574635.64747                  23587531.4494
        45.5004         27.7504
  23754953.2744    -773680.36349   -595680.16947                  23754950.5294
        42.7504         29.0004
  20860625.1434   -1327648.15249  -1025064.57148                  20860621.9134
        52.2504         44.2504
  20915377.4634    -911417.96549   -703684.19848                  20915373.2144
        52.5004         42.5004
  22883980.1494   -2385832.46149  -1843582.13747                  22883975.7814
        46.0004         33.5004
  21647389.4974    -178288.89849   -135979.67347                  21647387.4224
        48.0004         37.2504
  22647890.2844     593014.09049    459446.23247                  22647887.2854
        45.7504         33.0004
 04  6 30 14 59 20.0000000  0  8G 6G15G16G18G21G22G26G29
  20584094.1504     821878.88349    635687.20148                  20584092.1024
        51.5004         44.2504
  23582559.0394   -2066687.82049  -1595005.68247                  23582557.3004
        45.0004         28.5004
  23753513.2604    -781248.93449   -601577.76447                  23753510.1854
        41.0004         28.0004
  20857731.3774   -1342855.82849  -1036914.69448                  20857727.8694
        52.5004         44.0004
  20913295.1144    -922361.07849   -712211.29348                  20913290.4394
        52.2504         42.7504
  22878344.7904   -2415446.36749  -1866657.89147                  22878340.9544
        46.7504         33.7504
  21647541.5924    -177491.11349   -135358.01947                  21647539.4634
        47.5004         37.2504
  22649844.9254     603286.93849    467451.06447                  22649841.8904
        45.0004         33.5004
 04  6 30 14 59 30.0000000  0  8G 6G15G16G18G21G22G26G29
  20586549.6564     834782.23049    645741.74548                  20586547.5444
        52.0004         44.5004
  23577585.2114   -2092824.11749  -1615371.61347                  23577583.9394
        45.5004         28.5004
  23752084.3884    -788757.55949   -607428.64847                  23752081.1094
        41.7504         29.2504
  20854846.5644   -1358014.80949  -1048726.89448                  20854842.9644
        52.5004         44.0004
  20911216.5224    -933284.64549   -720723.16448                  20911211.9374
        52.0004         42.7504
  22872715.9144   -2445026.55949  -1889707.37447                  22872711.9424
        46.2504         33.0004
  21647707.5154    -176616.98049   -134676.87347                  21647705.0494
        48.0004         37.7504
  22651811.5524     613621.04349    475503.60347                  22651808.6384
        46.5004         33.0004
 04  6 30 14 59 40.0000000  0  8G 6G15G16G18G21G22G26G29
  20589015.0214     847737.75849    655836.95048                  20589013.0494
        52.5004         44.7504
  23572612.0714   -2118958.88749  -1635736.37947                  23572610.5764
        44.5004         29.0004
  23750666.2964    -796209.87149   -613235.65247                  23750662.8924
        42.5004         28.7504
  20851970.5494   -1373128.85249  -1060504.06748                  20851967.6294
        52.2504         44.0004
  20909140.6634    -944192.37549   -729222.69948                  20909136.0364
        52.7504         42.7504
  22867092.6914   -2474576.65249  -1912733.41047                  22867088.3604
        46.0004         32.7504
  21647888.2334    -175670.04749   -133939.01047                  21647885.5904
        48.2504         37.2504
  22653789.2664     624012.77349    483601.05847                  22653786.4884
        46.2504         33.2504
 04  6 30 14 59 50.0000000  0  8G 6G15G16G18G21G22G26G29
  20591491.0224     860748.58649    665975.25448                  20591488.6284
        52.5004         44.5004
  23567639.7994   -2145088.89549  -1656097.40347                  23567638.4514
        44.0004         28.0004
  23749259.1754    -803602.69949   -618996.30447                  23749255.9374
        41.5004         28.5004
  20849103.7334   -1388194.76649  -1072243.73348                  20849100.1784
        52.0004         44.0004
  20907068.5194    -955080.96949   -737707.30948                  20907063.9724
        53.0004         42.7504
  22861475.3754   -2504093.44549  -1935733.48847                  22861472.4144
        44.5004         32.7504
  21648082.7614    -174647.12549   -133141.93047                  21648080.5144
        48.2504         37.2504
  22655778.2084     634465.18049    491745.79347                  22655775.6254
        46.7504         32.2504
 04  6 30 15  0  0.0000000  0  8G 6G15G16G18G21G22G26G29
  20593977.3534     873815.13349    676156.96248                  20593975.0814
        52.0004         44.0004
  23562667.7114   -2171213.78549  -1676454.46947                  23562666.7004
        44.7504         28.2504
  23747863.9234    -810935.66849   -624710.30447                  23747860.3804
        42.5004         28.0004
  20846245.8754   -1403212.15249  -1083945.60348                  20846242.4754
        52.2504         43.5004
  20905000.3694    -965949.96949   -746176.67648                  20904995.8914
        52.7504         43.2504
  22855865.4054   -2533576.46949  -1958707.27847                  22855861.6624
        44.7504         33.0004
  21648291.8624    -173547.92649   -132285.42047                  21648289.2724
        48.0004         37.2504
  22657777.9544     644978.68449    499938.11147                  22657776.3644
        44.0004         33.5004
 04  6 30 15  0 10.0000000  0  8G 6G15G16G18G21G22G26G29
  20596474.3444     886936.51249    686381.39648                  20596472.1174
        52.7504         43.5004
  23557697.7064   -2197334.42249  -1696808.19347                  23557695.8734
        44.0004         26.5004
  23746480.1644    -818209.72349   -630378.41047                  23746476.6394
        43.5004         28.5004
  20843397.0714   -1418181.87549  -1095610.33348                  20843393.6924
        52.5004         43.2504
  20902935.6864    -976800.37549   -754631.54048                  20902931.0774
        53.0004         42.0004
  22850260.8954   -2563026.59849  -1981655.43947                  22850257.5614
        46.0004         32.5004
  21648515.5574    -172373.21549   -131370.08047                  21648513.1654
        48.5004         37.7504
  22659790.6334     655552.33249    508177.30747                  22659788.5374
        45.0004         32.7504
 04  6 30 15  0 20.0000000  0  8G 6G15G16G18G21G22G26G29
  20598982.1564     900114.42649    696649.91048                  20598980.1034
        51.5004         44.7504
  23552728.4894   -2223449.06649  -1717157.23747                  23552726.3534
        44.2504         27.5004
  23745106.7714    -825423.12549   -635999.25147                  23745104.1044
        42.5004         29.0004
  20840557.7794   -1433102.14549  -1107236.48648                  20840554.4964
        52.0004         44.0004
  20900874.5524    -987630.33649   -763070.45848                  20900870.1514
        52.2504         43.0004
  22844663.3154   -2592442.09849  -2004576.56947                  22844660.0514
        45.7504         32.5004
  21648753.7194    -171121.44949   -130394.66147                  21648751.2754
        48.2504         38.2504
  22661814.0924     666187.72749    516464.63347                  22661812.2124
        44.5004         33.0004
 04  6 30 15  0 30.0000000  0  8G 6G15G16G18G21G22G26G29
  20601501.0024     913351.73849    706964.69448                  20601498.9204
        52.2504         44.5004
  23547760.9624   -2249554.83249  -1737499.38247                  23547758.6384
        43.2504         27.0004
  23743747.0714    -832572.91449   -641570.52047                  23743743.8624
        43.0004         29.7504
  20837728.6974   -1447970.05149  -1118821.86648                  20837724.9054
        52.0004         44.0004
  20898818.1564    -998436.96949   -771491.21148                  20898813.8364
        52.2504         42.7504
  22839072.4764   -2621819.98449  -2027468.39247                  22839069.3344
        46.0004         33.0004
  21649007.0154    -169789.56649   -129356.82047                  21649004.9924
        49.0004         38.5004
  22663850.3934     676887.83649    524802.38747                  22663848.4514
        45.0004         33.7504
 04  6 30 15  0 40.0000000  0  8G 6G15G16G18G21G22G26G29
  20604030.6184     926643.60949    717321.97848                  20604028.6464
        52.0004         45.0004
  23542793.3894   -2275656.51249  -1757838.33347                  23542791.5764
        44.2504         27.5004
  23742397.3314    -839663.91849   -647095.95447                  23742394.3194
        42.0004         29.0004
  20834908.5244   -1462790.52049  -1130370.28448                  20834905.0474
        52.7504         44.5004
  20896765.4664   -1009225.04749   -779897.51048                  20896760.7084
        52.5004         43.0004
  22833489.0264   -2651164.96949  -2050334.60847                  22833485.4954
        46.5004         33.5004
  21649274.7214    -168382.43049   -128260.36347                  21649273.0294
        48.5004         38.0004
  22665898.4304     687647.83249    533186.77947                  22665896.2564
        45.2504         33.5004
 04  6 30 15  0 50.0000000  0  8G 6G15G16G18G21G22G26G29
  20606570.7304     939992.03149    727723.33648                  20606568.3284
        52.0004         44.5004
  23537827.3194   -2301752.05549  -1778172.54047                  23537825.6154
        41.7504         28.5004
  23741059.3234    -846694.11349   -652574.04847                  23741056.3064
        43.0004         29.2504
  20832097.7374   -1477561.46549  -1141880.12248                  20832093.8764
        52.2504         44.0004
  20894716.2034   -1019992.60249   -788287.81348                  20894711.9104
        52.0004         43.0004
  22827911.5874   -2680475.11349  -2073173.67347                  22827907.8514
        45.7504         34.0004
  21649557.4004    -166897.98049   -127103.64947                  21649555.3074
        48.5004         38.0004
  22667957.4664     698469.64549    541619.35547                  22667955.2944
        44.7504         32.5004
 04  6 30 15  1  0.0000000  0  8G 6G15G16G18G21G22G26G29
  20609121.5124     953397.94149    738169.48448                  20609119.1334
        52.2504         44.2504
  23532863.8524   -2327840.49649  -1798501.14747                  23532861.3074
        42.5004         28.0004
  23739734.3194    -853662.60549   -658004.04247                  23739730.2364
        43.2504         28.7504
  20829296.5874   -1492281.96549  -1153350.63548                  20829293.1694
        52.5004         44.0004
  20892671.0684   -1030738.66849   -796661.38048                  20892666.8914
        53.0004         43.0004
  22822340.8884   -2709749.30949  -2095984.74047                  22822336.7174
        47.0004         33.7504
  21649854.7014    -165335.28549   -125885.97747                  21649852.3734
        49.7504         37.5004
  22670028.9404     709354.24249    550100.84247                  22670026.8414
        45.0004         33.2504
 04  6 30 15  1 10.0000000  0  8G 6G15G16G18G21G22G26G29
  20611684.1934     966862.91049    748661.66948                  20611681.9744
        52.7504         44.5004
  23527900.4224   -2353920.28149  -1818823.04847                  23527898.6734
        41.0004         27.5004
  23738419.7424    -860567.77749   -663384.71447                  23738416.0924
        41.7504         29.5004
  20826505.1414   -1506950.38749  -1164780.55948                  20826501.9274
        51.5004         43.5004
  20890630.8474   -1041461.60549   -805016.90248                  20890626.5214
        52.0004         43.0004
  22816777.1364   -2738985.97349  -2118766.54347                  22816773.1954
        46.7504         34.0004
  21650167.1114    -163692.71949   -124606.05547                  21650165.3174
        49.0004         37.2504
  22672112.3184     720303.12549    558632.43347                  22672110.2984
        46.0004         33.5004
 04  6 30 15  1 20.0000000  0  8G 6G15G16G18G21G22G26G29
  20614257.1844     980384.37949    759197.86948                  20614254.9274
        53.0004         44.0004
  23522938.5804   -2379993.87949  -1839140.18147                  23522936.9514
        41.0004         27.0004
  23737116.3024    -867412.18449   -668718.00647                  23737113.7004
        43.2504         30.0004
  20823723.1324   -1521569.32849  -1176171.94348                  20823719.4084
        52.7504         42.7504
  20888594.2574   -1052164.07049   -813356.48948                  20888590.1054
        52.2504         42.0004
  22811220.0074   -2768187.63349  -2141521.05747                  22811216.4064
        45.5004         33.0004
  21650494.6414    -161972.90649   -123265.94647                  21650492.6314
        49.0004         36.5004
  22674207.9664     731313.69549    567212.09947                  22674205.1734
        46.5004         33.0004
 04  6 30 15  1 30.0000000  0  8G 6G15G16G18G21G22G26G29
  20616840.8634     993961.12549    769777.13848                  20616838.0234
        52.7504         44.7504
  23517977.7054   -2406062.53949  -1859453.37247                  23517975.9514
        41.5004         28.0004
  23735826.0404    -874196.96949   -674004.87447                  23735822.7384
        43.0004         29.7504
  20820950.6074   -1536139.94149  -1187525.67548                  20820947.0304
        52.5004         43.5004
  20886561.4144   -1062847.15249   -821680.97148                  20886557.1184
        52.7504         43.0004
  22805669.4334   -2797355.42249  -2164249.19747                  22805665.7954
        45.5004         33.5004
  21650836.2434    -160176.96949   -121866.51847                  21650833.9444
        49.0004         37.5004
  22676314.1184     742384.77049    575838.89847                  22676311.9754
        45.0004         33.7504
 04  6 30 15  1 40.0000000  0  8G 6G15G16G18G21G22G26G29
  20619435.1754    1007594.49249    780400.54148                  20619432.9754
        52.5004         45.0004
  23513018.7164   -2432124.83249  -1879761.65647                  23513016.1104
        41.0004         28.2504
  23734546.5694    -880920.79749   -679244.20547                  23734543.5514
        41.5004         29.7504
  20818187.3524   -1550660.97349  -1198840.75248                  20818183.6204
        52.7504         43.7504
  20884532.5834   -1073509.27049   -829989.11548                  20884528.0684
        52.5004         43.0004
  22800126.3124   -2826487.94949  -2186949.86147                  22800121.9044
        46.2504         33.2504
  21651192.8254    -158303.51649   -120406.68547                  21651190.5694
        48.7504         37.7504
  22678432.4904     753517.52349    584513.76347                  22678430.8804
        45.0004         33.5004
 04  6 30 15  1 50.0000000  0  8G 6G15G16G18G21G22G26G29
  20622040.0134    1021283.54749    791067.32148                  20622037.7954
        52.5004         45.5004
  23508060.2434   -2458181.73449  -1900065.71747                  23508058.1544
        41.2504         28.7504
  23733277.6644    -887584.52349   -684436.74147                  23733275.1994
        39.7504         30.5004
  20815433.2184   -1565133.17649  -1210117.78548                  20815429.7854
        52.5004         44.5004
  20882507.3824   -1084151.31249   -838281.60848                  20882502.9674
        51.5004         43.2504
  22794589.1554   -2855586.07449  -2209623.70047                  22794584.7544
        45.5004         34.0004
  21651563.9604    -156353.49249   -118887.18947                  21651561.1744
        49.5004         38.2504
  22680563.1034     764711.26249    593236.14047                  22680561.1054
        45.0004         33.5004
 04  6 30 15  2  0.0000000  0  8G 6G15G16G18G21G22G26G29
  20624656.4634    1035032.75049    801780.97848                  20624653.9404
        52.5004         44.7504
  23503102.9944   -2484228.75749  -1920362.05947                  23503101.7734
        40.0004         27.0004
  23732022.4904    -894183.70349   -689578.96047                  23732019.7514
        42.0004         29.5004
  20812689.3804   -1579552.05949  -1221353.27748                  20812686.1564
        52.0004         43.7504
  20880486.8574   -1094768.84449   -846555.01548                  20880482.4404
        52.5004         43.0004
  22789059.0074   -2884645.20349  -2232267.16147                  22789054.9614
        46.5004         34.5004
  21651950.4194    -154322.34449   -117304.46247                  21651948.0074
        48.7504         37.7504
  22682705.8674     775970.23049    602009.36847                  22682703.9274
        46.0004         33.5004
 04  6 30 15  2 10.0000000  0  8G 6G15G16G18G21G22G26G29
  20627284.1464    1048840.78949    812540.47748                  20627281.6024
        53.0004         44.5004
  23498148.2484   -2510267.13349  -1940651.73447                  23498146.5464
        39.5004         26.2504
  23730778.5724    -900719.67649   -694671.92947                  23730775.8064
        39.7504         29.0004
  20809955.3184   -1593919.04349  -1232548.32448                  20809952.0924
        52.0004         43.7504
  20878470.7024   -1105363.25049   -854810.39348                  20878466.2194
        53.0004         42.5004
  22783536.5624   -2913666.69149  -2254881.29247                  22783532.6274
        46.5004         33.5004
  21652352.2934    -152211.51649   -115659.66547                  21652349.6824
        49.7504         37.2504
  22684860.2044     787293.19149    610832.44947                  22684858.1004
        46.5004         33.7504
 04  6 30 15  2 20.0000000  0  8G 6G15G16G18G21G22G26G29
  20629922.4584    1062704.76249    823343.55848                  20629919.6484
        53.2504         44.5004
  23493193.9164   -2536299.82049  -1960936.93847                  23493193.0104
        38.7504         26.7504
  23729546.4914    -907195.29349   -699717.86847                  23729543.3994
        41.5004         29.5004
  20807230.9404   -1608237.00849  -1243705.18348                  20807226.6014
        52.2504         43.5004
  20876458.6804   -1115937.52749   -863050.10348                  20876454.2004
        52.5004         43.0004
  22778020.7484   -2942653.37949  -2277468.31947                  22778016.5064
        46.7504         34.0004
  21652768.3944    -150023.83249   -113954.98547                  21652766.0794
        49.5004         37.7504
  22687026.3724     798677.12549    619703.03047                  22687024.1864
        45.5004         33.2504
 04  6 30 15  2 30.0000000  0  8G 6G15G16G18G21G22G26G29
  20632570.8744    1076623.07049    834188.97548                  20632568.4774
        53.5004         44.0004
  23488241.0134   -2562328.30149  -1981218.87747                  23488239.2524
        38.5004         26.0004
  23728325.6684    -913612.09449   -704718.01247                  23728322.3834
        42.2504         28.0004
  20804515.3004   -1622507.31649  -1254824.92048                  20804511.8644
        52.7504         42.7504
  20874449.7694   -1126492.92649   -871275.10248                  20874445.8604
        52.0004         42.0004
  22772510.8744   -2971606.63349  -2300029.29947                  22772507.1274
        46.5004         33.2504
  21653199.2594    -147760.77349   -112191.58147                  21653196.7994
        49.2504         37.2504
  22689203.9544     810120.50849    628619.93247                  22689201.3254
        45.5004         32.0004
 04  6 30 15  2 40.0000000  0  8G 6G15G16G18G21G22G26G29
  20635229.7204    1090595.09049    845076.27748                  20635226.6584
        53.2504         45.0004
  23483289.2214   -2588353.22749  -2001497.99847                  23483287.4344
        39.0004         27.5004
  23727115.4864    -919970.69149   -709672.71647                  23727112.6114
        41.5004         29.5004
  20801808.5674   -1636730.66049  -1265908.00748                  20801805.2724
        52.0004         43.7504
  20872444.8354   -1137030.02749   -879485.80248                  20872440.3854
        52.7504         43.0004
  22767007.4254   -3000527.18449  -2322564.75347                  22767003.4954
        47.2504         33.7504
  21653644.2274    -145423.03149   -110369.92947                  21653641.6434
        50.0004         38.0004
  22691393.0054     821622.74649    637582.74047                  22691390.3604
        46.2504         32.7504
 04  6 30 15  2 50.0000000  0  8G 6G15G16G18G21G22G26G29
  20637899.2064    1104622.40649    856006.64448                  20637896.5294
        53.7504         44.7504
  23478337.2574   -2614372.90649  -2021773.05647                  23478335.9374
        39.2504         27.0004
  23725917.0224    -926269.53549   -714580.93747                  23725913.8914
        41.5004         29.7504
  20799111.2704   -1650905.46149  -1276953.31648                  20799107.9684
        51.5004         44.0004
  20870443.5204   -1147547.26249   -887681.06148                  20870439.5404
        52.5004         43.0004
  22761510.6174   -3029413.28949  -2345073.38647                  22761506.5554
        45.7504         32.7504
  21654103.4574    -143008.90649   -108488.80147                  21654101.2074
        49.5004         38.0004
  22693593.2504     833185.29749    646592.50647                  22693590.9564
        46.0004         32.5004
 04  6 30 15  3  0.0000000  0  8G 6G15G16G18G21G22G26G29
  20640578.2704    1118702.43849    866978.08348                  20640575.4094
        52.5004         45.0004
  23473387.6684   -2640389.91049  -2042046.03547                  23473385.3594
        38.5004         27.5004
  23724728.4354    -932511.08249   -719444.48047                  23724726.1424
        40.5004         29.5004
  20796422.8544   -1665034.28549  -1287962.79048                  20796419.0554
        52.0004         44.2504
  20868445.4474   -1158047.16849   -895862.80948                  20868440.9854
        52.5004         43.5004
  22756019.6914   -3058267.37149  -2367557.09647                  22756015.5834
        46.5004         34.0004
  21654576.6674    -140521.15249   -106550.29347                  21654574.4264
        49.5004         38.5004
  22695804.7684     844805.55949    655647.25347                  22695802.0734
        46.2504         32.0004
 04  6 30 15  3 10.0000000  0  8G 6G15G16G18G21G22G26G29
  20643267.9024    1132835.50049    877990.85348                  20643265.0554
        53.2504         44.7504
  23468436.3074   -2666403.95749  -2062316.70847                  23468434.8234
        38.7504         27.5004
  23723552.0234    -938695.16849   -724263.25347                  23723549.7374
        41.0004         29.2504
  20793742.7284   -1679116.82449  -1298936.19448                  20793739.1964
        52.0004         43.7504
  20866450.7924   -1168529.50049   -904030.85848                  20866446.6674
        52.0004         43.0004
  22750535.1044   -3087089.29349  -2390015.71447                  22750531.1904
        45.7504         33.7504
  21655064.1754    -137959.23849   -104554.00047                  21655061.8334
        49.2504         38.0004
  22698026.6384     856483.99649    664747.32947                  22698024.0294
        46.0004         31.7504
 04  6 30 15  3 20.0000000  0  8G 6G15G16G18G21G22G26G29
  20645967.0274    1147019.16849    889043.06848                  20645964.2734
        52.7504         44.7504
  23463485.6824   -2692417.34449  -2082586.85447                  23463484.6704
        38.5004         26.0004
  23722385.7034    -944824.03149   -729038.99747                  23722383.1204
        41.7504         28.5004
  20791071.4784   -1693155.40649  -1309875.34248                  20791067.4824
        51.7504         43.2504
  20864458.8554   -1178996.52749   -912186.99048                  20864454.4284
        52.5004         43.5004
  22745056.1974   -3115881.23449  -2412450.97647                  22745052.3494
        46.5004         34.0004
  21655565.3354    -135325.59449   -102501.81047                  21655562.7914
        49.5004         37.5004
  22700259.9114     868217.94949    673890.65047                  22700257.1294
        45.7504         32.0004
 04  6 30 15  3 30.0000000  0  8G 6G15G16G18G21G22G26G29
  20648675.9844    1161255.35549    900136.19248                  20648673.6294
        53.0004         44.5004
  23458536.3454   -2718428.26249  -2102855.10447                  23458534.7284
        40.2504         26.0004
  23721230.3314    -950895.77349   -733770.23047                  23721227.4574
        42.2504         29.2504
  20788408.7344   -1707148.13349  -1320778.76048                  20788405.2724
        52.0004         43.2504
  20862470.4424   -1189446.29749   -920329.65448                  20862466.0154
        52.2504         43.2504
  22739583.5814   -3144641.34449  -2434861.44647                  22739579.6754
        47.0004         34.0004
  21656080.4374    -132618.37549   -100392.29647                  21656078.6864
        50.5004         37.5004
  22702503.4384     880009.43449    683078.83247                  22702501.0664
        46.7504         32.7504
 04  6 30 15  3 40.0000000  0  8G 6G15G16G18G21G22G26G29
  20651394.4704    1175542.28149    911268.84748                  20651392.2464
        52.5004         43.2504
  23453586.3534   -2744438.30949  -2123122.63946                  23453585.1374
        40.0004         25.2504
  23720085.4614    -956912.19549   -738458.36947                  23720082.7774
        41.5004         28.5004
  20785754.1234   -1721096.72749  -1331647.79448                  20785751.0124
        52.0004         42.2504
  20860484.8284   -1199880.58649   -928460.28348                  20860480.7854
        52.5004         42.0004
  22734116.5144   -3173371.18449  -2457248.34047                  22734112.2374
        47.5004         34.0004
  21656609.5804    -129839.23849    -98226.75147                  21656607.1544
        49.5004         36.2504
  22704757.8274     891856.61749    692310.39647                  22704755.2134
        46.7504         32.5004
 04  6 30 15  3 50.0000000  0  8G 6G15G16G18G21G22G26G29
  20654122.7784    1189880.56649    922441.53748                  20654120.4784
        52.7504         44.2504
  23448638.3554   -2770446.87149  -2143389.04747                  23448635.9864
        39.0004         26.2504
  23718951.2644    -962872.70349   -743102.94047                  23718948.7304
        41.5004         29.0004
  20783108.3954   -1735000.66049  -1342482.02348                  20783104.7344
        51.5004         43.5004
  20858502.4334   -1210298.81649   -936578.37848                  20858497.5434
        52.2504         43.5004
  22728654.6544   -3202070.19949  -2479611.17847                  22728650.5374
        47.5004         35.0004
  21657152.0214    -126987.52749    -96004.62747                  21657149.4864
        49.7504         37.7504
  22707022.9694     903760.14549    701585.87947                  22707020.6634
        47.0004         32.7504
 04  6 30 15  4  0.0000000  0  8G 6G15G16G18G21G22G26G29
  20656861.7934    1204272.95349    933656.38148                  20656859.2004
        52.5004         44.0004
  23443688.9474   -2796451.18449  -2163652.11147                  23443687.2384
        40.5004         27.0004
  23717828.4034    -968774.46149   -747701.69447                  23717825.7024
        41.0004         29.2504
  20780471.6014   -1748857.06249  -1353279.20648                  20780468.1354
        51.7504         43.2504
  20856523.5224   -1220698.06649   -944681.68048                  20856519.0394
        53.0004         43.0004
  22723200.0134   -3230735.54349  -2501947.77147                  22723196.0474
        47.2504         34.5004
  21657708.8234    -124060.61749    -93723.90547                  21657706.6674
        50.0004         37.2504
  22709299.2364     915722.71549    710907.35947                  22709296.9094
        46.7504         32.7504
 04  6 30 15  4 10.0000000  0  8G 6G15G16G18G21G22G26G29
  20659610.2884    1218716.94549    944911.43748                  20659607.5014
        52.2504         44.5004
  23438741.1844   -2822453.74249  -2183913.85847                  23438739.0074
        40.0004         27.0004
  23716715.3854    -974619.95749   -752256.63947                  23716713.4924
        43.5004         29.5004
  20777843.4904   -1762668.42249  -1364041.30748                  20777839.6374
        52.0004         44.2504
  20854547.8884   -1231080.86349   -952772.18348                  20854543.2424
        53.0004         43.7504
  22717750.9884   -3259369.68049  -2524260.08347                  22717747.3144
        48.0004         34.7504
  21658280.0384    -121060.93049    -91386.49647                  21658277.3064
        49.7504         37.7504
  22711586.5764     927741.86749    720272.93847                  22711584.0914
        47.0004         32.7504
 04  6 30 15  4 20.0000000  0  8G 6G15G16G18G21G22G26G29
  20662369.1294    1233214.37949    956208.13448                  20662366.2004
        51.2504         44.2504
  23433793.1064   -2848452.70749  -2204172.78347                  23433791.2104
        40.5004         27.0004
  23715614.7094    -980407.38749   -756766.34047                  23715611.7404
        40.7504         29.0004
  20775224.2044   -1776432.84049  -1374766.83048                  20775220.8034
        52.0004         44.0004
  20852575.2184   -1241445.24649   -960848.31548                  20852570.7934
        52.5004         43.7504
  22712308.9774   -3287970.68749  -2546546.57447                  22712304.8284
        47.5004         34.5004
  21658865.2434    -117986.54749    -88990.87647                  21658862.4454
        49.7504         38.0004
  22713885.0684     939819.28949    729683.90047                  22713882.2524
        46.5004         32.7504
 04  6 30 15  4 30.0000000  0  8G 6G15G16G18G21G22G26G29
  20665137.4384    1247761.95349    967543.90548                  20665134.8044
        52.0004         44.0004
  23428845.6874   -2874451.25849  -2224431.38447                  23428843.7824
        40.5004         25.7504
  23714523.9114    -986139.85249   -761233.20247                  23714521.1794
        41.5004         29.0004
  20772612.9214   -1790153.55949  -1385458.28048                  20772609.0574
        51.7504         43.7504
  20850605.7564   -1251794.35249   -968912.55448                  20850601.3934
        52.5004         42.7504
  22706872.0004   -3316541.67649  -2568809.66847                  22706867.7284
        47.7504         34.5004
  21659463.2784    -114840.77749    -86539.60747                  21659460.9594
        49.5004         37.5004
  22716193.9934     951951.84449    739137.83547                  22716191.2274
        47.0004         33.2504
 04  6 30 15  4 40.0000000  0  8G 6G15G16G18G21G22G26G29
  20667914.8954    1262359.43449    978918.54248                  20667912.1174
        51.5004         43.2504
  23423898.8074   -2900449.71149  -2244689.91947                  23423896.5044
        40.7504         27.2504
  23713443.6574    -991817.76649   -765657.55447                  23713440.6444
        42.5004         29.5004
  20770010.3704   -1803830.92649  -1396115.97448                  20770006.9404
        51.2504         43.7504
  20848639.4984   -1262128.47349   -976965.12248                  20848635.2164
        53.2504         43.2504
  22701440.9834   -3345082.95749  -2591049.63047                  22701436.0894
        48.0004         34.0004
  21660076.3024    -111623.78549    -84032.87447                  21660073.2364
        49.5004         37.7504
  22718512.9734     964139.09449    748634.38947                  22718510.3014
        46.5004         32.7504
 04  6 30 15  4 50.0000000  0  8G 6G15G16G18G21G22G26G29
  20670702.8334    1277009.48849    990334.16448                  20670700.2564
        51.0004         42.5004
  23418951.6404   -2926445.28549  -2264946.20947                  23418949.4024
        40.0004         25.7504
  23712374.4844    -997438.38349   -770037.24947                  23712371.0354
        40.7504         28.7504
  20767416.4174   -1817462.23049  -1406737.76848                  20767412.8804
        51.7504         42.5004
  20846676.3434   -1272444.92649   -985003.90648                  20846671.8214
        52.2504         42.2504
  22696015.0464   -3373591.78549  -2613264.29347                  22696011.3564
        48.0004         33.7504
  21660702.0694    -108332.98849    -81468.61747                  21660699.5274
        49.5004         36.7504
  22720843.6604     976383.75049    758175.67447                  22720840.6674
        47.5004         33.2504
 04  6 30 15  5  0.0000000  0  8G 6G15G16G18G21G22G26G29
  20673500.0484    1291709.54749   1001788.73548                  20673497.9794
        51.2504         43.7504
  23414004.8024   -2952440.61749  -2285202.28847                  23414003.1274
        41.5004         27.2504
  23711314.7714   -1003004.20749   -774374.27347                  23711311.8914
        40.5004         29.5004
  20764830.8784   -1831049.97749  -1417325.61848                  20764827.3984
        51.5004         43.2504
  20844715.7464   -1282746.30949   -993030.97048                  20844711.5644
        52.7504         43.0004
  22690596.1444   -3402070.69149  -2635455.63747                  22690592.1624
        48.7504         34.2504
  21661341.6394    -104970.94149    -78848.85347                  21661339.4654
        49.5004         37.5004
  22723183.5984     988683.25849    767759.69347                  22723181.2384
        47.0004         33.5004
 04  6 30 15  5 10.0000000  0  8G 6G15G16G18G21G22G26G29
  20676306.7824    1306458.07849   1013281.09648                  20676304.2364
        51.7504         42.7504
  23409058.5134   -2978437.03549  -2305459.23547                  23409056.3684
        40.5004         26.0004
  23710265.0014   -1008516.80549   -778669.82047                  23710262.6524
        41.0004         29.5004
  20762252.9494   -1844595.66049  -1427880.70148                  20762249.0684
        51.7504         43.5004
  20842758.4314   -1293033.90249  -1001047.28148                  20842754.1664
        53.0004         43.0004
  22685182.3684   -3430521.06249  -2657624.74747                  22685177.9564
        49.0004         34.2504
  21661995.1464    -101539.08249    -76174.66447                  21661992.3794
        50.5004         38.0004
  22725534.4904    1001035.90249    777385.12747                  22725531.9824
        48.0004         33.7504
 04  6 30 15  5 20.0000000  0  8G 6G15G16G18G21G22G26G29
  20679123.0074    1321258.10949   1024813.58648                  20679120.7554
        52.0004         43.7504
  23404111.9374   -3004431.50449  -2325714.64247                  23404109.3424
        42.0004         27.2504
  23709227.4684   -1013973.02749   -782921.41447                  23709224.6694
        41.0004         29.5004
  20759683.9464   -1858096.08649  -1438400.50248                  20759680.4224
        52.2504         43.5004
  20840803.8234   -1303304.64549  -1009050.45048                  20840799.3064
        52.7504         43.5004
  22679774.4774   -3458939.77349  -2679769.19247                  22679770.3984
        49.2504         34.7504
  21662661.6554     -98034.22349    -73443.60247                  21662659.1484
        49.5004         38.5004
  22727895.8514    1013445.01649    787054.55847                  22727893.6554
        47.7504         34.5004
 04  6 30 15  5 30.0000000  0  8G 6G15G16G18G21G22G26G29
  20681949.3004    1336110.55949   1036386.91848                  20681946.7664
        51.5004         43.0004
  23399165.1104   -3030423.10249  -2345967.86047                  23399163.7154
        41.0004         26.0004
  23708199.8464   -1019372.00449   -787128.42247                  23708197.5374
        41.5004         29.5004
  20757123.8314   -1871550.47349  -1448884.43748                  20757120.2404
        52.0004         43.7504
  20838852.5764   -1313557.68449  -1017039.81948                  20838848.3264
        53.0004         43.2504
  22674372.7814   -3487325.92249  -2701888.23447                  22674368.0374
        49.0004         34.7504
  21663342.6534     -94455.64149    -70655.10347                  21663340.1054
        49.0004         38.0004
  22730267.9664    1025911.28549    796768.52147                  22730265.7824
        47.5004         33.7504
 04  6 30 15  5 40.0000000  0  8G 6G15G16G18G21G22G26G29
  20684784.6854    1351011.68049   1047998.16548                  20684782.1704
        52.2504         43.0004
  23394219.7734   -3056415.55149  -2366221.70647                  23394217.3034
        43.2504         27.7504
  23707182.7814   -1024717.44149   -791293.70847                  23707179.7894
        43.2504         28.5004
  20754571.5094   -1884962.49249  -1459335.36148                  20754567.8744
        52.0004         43.2504
  20836904.2164   -1323796.55149  -1025018.16748                  20836899.6754
        53.2504         43.0004
  22668976.1964   -3515683.15249  -2723984.77347                  22668971.7964
        49.0004         34.5004
  21664037.1804     -90807.04749    -67812.05147                  21664034.7214
        50.0004         37.7504
  22732650.3354    1038431.00849    806524.15747                  22732648.3524
        47.5004         34.0004
 04  6 30 15  5 50.0000000  0  8G 6G15G16G18G21G22G26G29
  20687629.9184    1365961.43049   1059647.31548                  20687627.4034
        51.2504         43.0004
  23389273.1184   -3082408.85549  -2386476.21147                  23389271.3184
        42.2504         27.0004
  23706175.0934   -1030009.37549   -795417.31347                  23706172.7164
        42.0004         29.5004
  20752027.2094   -1898332.13749  -1469753.26648                  20752023.8084
        51.7504         43.5004
  20834958.7794   -1334021.37949  -1032985.56948                  20834954.3674
        52.5004         43.0004
  22663585.7564   -3544011.46549  -2746058.79147                  22663581.0634
        49.2504         34.5004
  21664744.4804     -87088.28549    -64914.32847                  21664742.7334
        49.5004         38.0004
  22735042.6714    1051004.19149    816321.43147                  22735040.7354
        47.2504         33.7504
 04  6 30 15  6  0.0000000  0  8G 6G15G16G18G21G22G26G29
  20690483.6614    1380960.47349   1071334.87548                  20690481.4544
        51.2504         42.5004
  23384326.8454   -3108402.38749  -2406730.92347                  23384324.8194
        43.0004         26.5004
  23705179.3164   -1035247.18049   -799498.70247                  23705176.4144
        41.5004         28.7504
  20749491.2994   -1911658.85549  -1480137.71748                  20749487.8554
        52.5004         43.2504
  20833015.8144   -1344231.63749  -1040941.61048                  20833011.1524
        53.2504         42.5004
  22658200.7854   -3572310.08249  -2768109.65047                  22658196.4214
        48.7504         33.5004
  21665465.9754     -83298.91049    -61961.56647                  21665463.6494
        48.7504         37.5004
  22737445.7284    1063631.33249    826160.76247                  22737444.0214
        47.5004         33.0004
 04  6 30 15  6 10.0000000  0  8G 6G15G16G18G21G22G26G29
  20693347.2464    1396007.14149   1083059.53948                  20693344.6804
        51.2504         42.7504
  23379379.6164   -3134397.77749  -2426987.04947                  23379377.4094
        44.5004         28.5004
  23704192.0064   -1040432.52749   -803539.24847                  23704189.6524
        41.5004         29.5004
  20746963.1954   -1924944.29349  -1490490.00148                  20746959.7244
        52.0004         44.0004
  20831074.9324   -1354428.89549  -1048887.53048                  20831070.6724
        53.5004         43.0004
  22652820.9294   -3600580.73849  -2790138.71747                  22652816.2544
        48.7504         34.2504
  21666200.1454     -79440.50849    -58955.02647                  21666197.5534
        49.0004         38.0004
  22739858.3744    1076310.74649    836040.82247                  22739855.7784
        47.5004         33.0004
 04  6 30 15  6 20.0000000  0  8G 6G15G16G18G21G22G26G29
  20696220.0494    1411103.96149   1094823.28848                  20696217.4794
        51.2504         42.7504
  23374433.1434   -3160392.38749  -2447242.55147                  23374430.9034
        44.0004         28.2504
  23703216.0684   -1045562.78549   -807536.86447                  23703212.9764
        40.0004         29.2504
  20744443.3714   -1938185.85549  -1500808.10648                  20744439.8694
        51.5004         44.0004
  20829137.9034   -1364610.29349  -1056821.07548                  20829133.3824
        52.5004         43.0004
  22647447.2274   -3628820.62949  -2812143.81847                  22647443.1684
        48.7504         34.5004
  21666948.0194     -75510.50449    -55892.68847                  21666945.2714
        49.5004         38.0004
  22742282.0864    1089045.02749    845963.62947                  22742279.5934
        47.5004         32.7504
 04  6 30 15  6 30.0000000  0  8G 6G15G16G18G21G22G26G29
  20699102.5644    1426251.69549   1106626.70848                  20699100.1664
        51.5004         43.5004
  23369487.3144   -3186385.39549  -2467496.83347                  23369484.9884
        43.7504         28.5004
  23702250.0564   -1050637.19149   -811490.96447                  23702247.2464
        40.0004         29.0004
  20741932.3624   -1951382.78949  -1511091.41948                  20741928.8314
        52.0004         44.0004
  20827203.3644   -1374775.10249  -1064741.70748                  20827198.8764
        53.5004         43.5004
  22642078.9834   -3657029.08649  -2834124.41347                  22642075.0344
        48.7504         34.7504
  21667709.7504     -71508.02749    -52773.86147                  21667707.1054
        49.5004         38.0004
  22744715.5974    1101834.94949    855929.81247                  22744713.4844
        47.0004         32.7504
 04  6 30 15  6 40.0000000  0  8G 6G15G16G18G21G22G26G29
  20701994.3454    1441447.17249   1118467.34348                  20701991.9194
        51.5004         43.0004
  23364540.3974   -3212379.98849  -2487752.37147                  23364538.1314
        44.5004         28.2504
  23701294.4994   -1055658.92649   -815404.00547                  23701292.0134
        40.7504         29.7504
  20739428.8104   -1964538.10549  -1521342.31448                  20739425.0614
        52.0004         44.0004
  20825271.7664   -1384926.42649  -1072651.83448                  20825267.7474
        53.0004         43.2504
  22636717.0574   -3685209.12549  -2856082.87947                  22636712.5744
        49.0004         35.0004
  21668484.6144     -67436.30549    -49601.11247                  21668481.9424
        50.0004         37.5004
  22747159.1854    1114677.25049    865936.78547                  22747157.0444
        47.0004         32.2504
 04  6 30 15  6 50.0000000  0  8G 6G15G16G18G21G22G26G29
  20704895.0604    1456689.97749   1130344.82648                  20704892.5034
        51.5004         43.2504
  23359593.0264   -3238376.46949  -2508009.33647                  23359591.4944
        44.5004         29.7504
  23700349.5074   -1060628.31649   -819276.25947                  23700345.9684
        42.0004         29.5004
  20736933.3344   -1977652.19549  -1531561.08248                  20736929.7644
        52.0004         43.5004
  20823342.6414   -1395064.41849  -1080551.57248                  20823338.1284
        53.0004         43.0004
  22631359.5964   -3713361.19149  -2878019.54847                  22631355.0194
        48.7504         35.0004
  21669272.1564     -63295.75049    -46374.70347                  21669269.8734
        49.5004         37.0004
  22749612.8294    1127571.44949    875984.19647                  22749610.8624
        46.7504         31.5004
 04  6 30 15  7  0.0000000  0  8G 6G15G16G18G21G22G26G29
  20707805.6834    1471985.03949   1142263.05848                  20707803.0384
        51.0004         43.5004
  23354648.0774   -3264369.89149  -2528263.93947                  23354645.1894
        43.7504         29.2504
  23699414.3184   -1065540.43449   -823103.89147                  23699411.4784
        41.0004         28.5004
  20734446.5744   -1990720.12549  -1541743.88048                  20734443.0644
        52.5004         43.5004
  20821416.7984   -1405184.52349  -1088437.36548                  20821412.1944
        52.2504         42.5004
  22626008.6134   -3741480.21949  -2899930.46547                  22626004.0984
        48.7504         34.5004
  21670074.3144     -59081.34849    -43090.75747                  21670071.8954
        49.0004         37.0004
  22752077.8684    1140522.59449    886076.00947                  22752075.1014
        46.7504         31.2504
 04  6 30 15  7 10.0000000  0  8G 6G15G16G18G21G22G26G29
  20710725.8004    1487329.41849   1154219.69648                  20710723.3294
        51.0004         43.2504
  23349700.5684   -3290363.19949  -2548518.47447                  23349698.7274
        44.2504         29.0004
  23698490.0124   -1070398.19549   -826889.15047                  23698487.0014
        40.7504         28.0004
  20731968.1374   -2003744.75049  -1551892.94948                  20731964.2564
        52.0004         43.2504
  20819493.9934   -1415289.47749  -1096311.35948                  20819489.4054
        52.5004         42.5004
  22620663.1334   -3769569.03549  -2921817.85047                  22620659.1504
        48.2504         34.0004
  21670890.2294     -54796.03549    -39751.55147                  21670887.1174
        49.2504         36.5004
  22754552.1704    1153527.69549    896209.84747                  22754550.0704
        47.5004         31.0004
 04  6 30 15  7 20.0000000  0  8G 6G15G16G18G21G22G26G29
  20713654.7704    1502719.93849   1166212.31048                  20713651.5604
        52.2504         43.5004
  23344753.5494   -3316359.51249  -2568775.36447                  23344751.8434
        43.5004         27.7504
  23697574.5154   -1075204.79749   -830634.55347                  23697572.4744
        39.5004         29.0004
  20729497.4224   -2016729.25849  -1562010.73948                  20729494.0264
        52.5004         43.5004
  20817573.5344   -1425382.39149  -1104175.95648                  20817568.8594
        54.0004         43.0004
  22615323.4754   -3797630.84849  -2943684.18047                  22615319.1584
        49.0004         34.5004
  21671717.9244     -50443.00049    -36359.58447                  21671715.3924
        49.0004         37.2504
  22757036.7754    1166583.55949    906383.22947                  22757034.5574
        47.5004         32.2504
 04  6 30 15  7 30.0000000  0  8G 6G15G16G18G21G22G26G29
  20716592.5974    1518158.69949   1178242.50448                  20716589.5794
        51.7504         44.0004
  23339806.8714   -3342356.63349  -2589032.81847                  23339804.9844
        43.0004         29.5004
  23696670.5744   -1079958.03949   -834338.38347                  23696668.1844
        41.5004         28.0004
  20727034.6884   -2029671.51649  -1572095.61948                  20727030.6684
        51.7504         44.0004
  20815655.1764   -1435461.11749  -1112029.51848                  20815650.8634
        53.0004         43.0004
  22609989.0344   -3825663.37549  -2965527.70547                  22609984.9364
        48.5004         34.7504
  21672559.5864     -46020.09049    -32913.16847                  21672557.0454
        48.5004         37.0004
  22759531.4844    1179692.18849    916597.74647                  22759529.0824
        47.5004         32.0004
 04  6 30 15  7 40.0000000  0  8G 6G15G16G18G21G22G26G29
  20719539.6484    1533645.57449   1190310.19048                  20719536.8934
        52.0004         44.0004
  23334859.2174   -3368354.74249  -2609291.07047                  23334857.0714
        42.7504         29.0004
  23695776.6614   -1084658.17649   -838000.84547                  23695773.5744
        41.7504         28.0004
  20724579.6394   -2042571.69549  -1582147.69748                  20724575.8594
        52.2504         43.7504
  20813740.2794   -1445525.81249  -1119872.13348                  20813735.8804
        52.7504         43.5004
  22604659.9904   -3853666.81249  -2987348.55147                  22604655.6194
        48.7504         35.0004
  21673414.5844     -41527.46149    -29412.41347                  21673412.3604
        48.7504         37.5004
  22762035.8424    1192853.47749    926853.28647                  22762033.4634
        46.2504         32.2504
 04  6 30 15  7 50.0000000  0  8G 6G15G16G18G21G22G26G29
  20722496.7144    1549183.93049   1202417.98648                  20722493.8374
        52.0004         43.7504
  23329913.3774   -3394350.44149  -2629547.46847                  23329910.6444
        43.5004         28.7504
  23694892.4344   -1089301.77049   -841619.24147                  23694889.8864
        39.7504         29.2504
  20722133.4634   -2055426.46949  -1592164.40148                  20722129.4234
        52.0004         43.7504
  20811828.1414   -1455573.00449  -1127701.12048                  20811823.5034
        53.0004         43.2504
  22599337.3534   -3881637.66449  -3009144.01347                  22599333.5374
        49.5004         34.5004
  21674283.3674     -36961.72349    -25854.70447                  21674280.8064
        49.2504         37.5004
  22764550.7354    1206070.80549    937152.50847                  22764548.4654
        46.5004         32.5004
 04  6 30 15  8  0.0000000  0  8G 6G15G16G18G21G22G26G29
  20725462.1474    1564768.70749   1214561.97348                  20725459.5704
        51.2504         44.0004
  23324964.9744   -3420348.70349  -2649805.82147                  23324962.9234
        43.7504         29.0004
  23694018.8164   -1093893.77349   -845197.41547                  23694016.3454
        39.2504         29.0004
  20719694.9764   -2068240.76249  -1602149.56748                  20719691.2004
        52.0004         44.0004
  20809918.7054   -1465607.66049  -1135520.32648                  20809914.0224
        53.5004         43.0004
  22594019.6124   -3909580.93749  -3030917.98547                  22594015.5734
        49.2504         34.2504
  21675165.1744     -32327.96149    -22243.98347                  21675162.5584
        49.0004         37.2504
  22767076.0034    1219338.99649    947491.35847                  22767073.9174
        46.0004         32.5004
 04  6 30 15  8 10.0000000  0  8G 6G15G16G18G21G22G26G29
  20728437.0324    1580401.89149   1226743.66648                  20728434.3104
        51.7504         43.5004
  23320017.8154   -3446347.45349  -2670064.59947                  23320015.4524
        44.0004         29.7504
  23693154.9184   -1098432.20749   -848733.87347                  23693152.6304
        40.2504         29.0004
  20717264.5844   -2081012.66849  -1612101.70048                  20717260.6474
        51.0004         43.5004
  20808011.8454   -1475627.73049  -1143328.17448                  20808007.2294
        52.2504         43.0004
  22588708.2014   -3937494.53949  -3052668.83347                  22588704.1524
        49.0004         34.0004
  21676060.4894     -27624.10949    -18578.65247                  21676057.7004
        49.0004         37.0004
  22769611.3614    1232660.16849    957871.48847                  22769607.8804
        47.0004         32.0004
 04  6 30 15  8 20.0000000  0  8G 6G15G16G18G21G22G26G29
  20731421.4784    1596084.56349   1238963.93348                  20731418.7384
        52.2504         43.7504
  23315070.4874   -3472345.67649  -2690322.92747                  23315068.3074
        43.5004         28.5004
  23692302.1154   -1102916.05949   -852227.76247                  23692299.6524
        41.5004         27.0004
  20714842.4244   -2093740.93449  -1622019.81348                  20714838.6434
        51.5004         43.5004
  20806107.9554   -1485632.16049  -1151123.81748                  20806103.9684
        53.2504         42.5004
  22583402.1734   -3965377.38349  -3074395.72147                  22583397.9844
        49.0004         34.7504
  21676969.1764     -22849.05149    -14857.81447                  21676966.4964
        49.2504         37.0004
  22772155.8534    1246035.24249    968293.62047                  22772153.4494
        47.0004         32.5004
 04  6 30 15  8 30.0000000  0  8G 6G15G16G18G21G22G26G29
  20734415.1114    1611814.63749   1251221.12648                  20734412.5034
        52.5004         44.0004
  23310123.1484   -3498345.33249  -2710582.40547                  23310120.7204
        43.7504         28.5004
  23691459.0424   -1107347.23449   -855680.64047                  23691456.2804
        41.5004         28.0004
  20712428.3634   -2106427.67249  -1631905.57848                  20712424.5864
        51.5004         43.7504
  20804206.9874   -1495622.84049  -1158908.78248                  20804202.3824
        53.5004         42.5004
  22578101.7194   -3993231.37549  -3096100.11347                  22578097.2644
        47.5004         34.5004
  21677891.1144     -18004.89849    -11083.16547                  21677889.0904
        49.2504         37.2504
  22774710.9794    1259462.30149    978756.27247                  22774708.3924
        47.0004         33.0004
 04  6 30 15  8 40.0000000  0  8G 6G15G16G18G21G22G26G29
  20737416.7544    1627589.35249   1263513.10748                  20737413.4904
        53.2504         44.5004
  23305174.4984   -3524349.14849  -2730845.13247                  23305172.7724
        44.2504         29.5004
  23690625.2784   -1111728.55949   -859094.68947                  23690622.5354
        42.0004         28.7504
  20710021.3834   -2119075.70749  -1641761.19348                  20710017.6994
        52.0004         44.0004
  20802307.7894   -1505602.57049  -1166685.18648                  20802303.0624
        53.0004         43.0004
  22572806.1724   -4021059.34049  -3117784.23747                  22572802.1624
        48.5004         34.5004
  21678825.3924     -13094.35549     -7256.77647                  21678822.7144
        49.5004         38.0004
  22777275.0534    1272938.42649    989257.13447                  22777273.6424
        46.0004         32.7504
 04  6 30 15  8 50.0000000  0  8G 6G15G16G18G21G22G26G29
  20740427.7314    1643411.71949   1275842.21048                  20740424.5334
        52.7504         44.5004
  23300225.8374   -3550354.21949  -2751108.80547                  23300223.8984
        43.7504         28.7504
  23689801.2284   -1116057.09049   -862467.57147                  23689798.9414
        39.7504         28.2504
  20707622.5904   -2131681.86749  -1651584.18148                  20707618.6534
        52.0004         44.0004
  20800411.2694   -1515568.28949  -1174450.68248                  20800406.8774
        52.7504         42.7504
  22567516.6224   -4048858.12549  -3139445.63347                  22567511.8294
        48.0004         34.5004
  21679773.2294      -8114.48049     -3376.35247                  21679770.6604
        48.0004         37.7504
  22779849.6474    1286466.58249    999798.52947                  22779848.1874
        45.5004         33.2504
 04  6 30 15  9  0.0000000  0  8G 6G15G16G18G21G22G26G29
  20743448.1954    1659283.66849   1288209.95948                  20743444.8694
        53.2504         44.5004
  23295278.4794   -3576358.37149  -2771371.76247                  23295275.8914
        44.2504         29.0004
  23688988.1424   -1120330.72349   -865797.68147                  23688985.5534
        40.5004         27.7504
  20705232.1014   -2144244.23049  -1661373.03148                  20705228.4354
        51.0004         44.0004
  20798518.1514   -1525518.01649  -1182203.72348                  20798513.6454
        52.2504         43.5004
  22562232.3164   -4076625.62149  -3161082.62347                  22562228.3664
        48.2504         35.0004
  21680734.4704      -3063.13749       559.75247                  21680732.0294
        48.5004         38.2504
  22782434.1084    1300048.85549   1010382.10747                  22782432.3324
        46.5004         33.7504
 04  6 30 15  9 10.0000000  0  8G 6G15G16G18G21G22G26G29
  20746477.4304    1675204.48049   1300615.78048                  20746474.4354
        52.7504         44.5004
  23290328.9674   -3602362.51249  -2791634.72447                  23290327.1964
        43.7504         29.5004
  23688185.2134   -1124550.34049   -869085.71247                  23688182.3064
        39.2504         28.2504
  20702849.6404   -2156763.59849  -1671128.37748                  20702845.7094
        51.5004         44.2504
  20796627.7014   -1535452.52749  -1189944.89548                  20796623.1594
        53.2504         43.5004
  22556953.8684   -4104362.69949  -3182695.92847                  22556950.0694
        48.7504         34.7504
  21681709.2594       2058.74649      4550.81547                  21681706.7704
        48.5004         38.5004
  22785028.7564    1313684.29349   1021007.11447                  22785027.5214
        46.5004         33.5004
 04  6 30 15  9 20.0000000  0  8G 6G15G16G18G21G22G26G29
  20749515.7304    1691171.37549   1313057.51848                  20749513.2934
        51.5004         44.0004
  23285380.1024   -3628369.18449  -2811899.65547                  23285378.3044
        43.0004         29.0004
  23687392.4244   -1128718.62549   -872333.72047                  23687388.9874
        40.2504         28.5004
  20700474.7004   -2169242.64149  -1680852.30448                  20700471.2154
        51.2504         44.2504
  20794739.3134   -1545374.33249  -1197676.17048                  20794735.2664
        52.7504         43.0004
  22551681.2134   -4132071.93749  -3204287.52347                  22551677.1144
        48.0004         34.2504
  21682696.2914       7248.50849      8594.79647                  21682694.1104
        47.7504         38.0004
  22787633.7124    1327370.12549   1031671.39747                  22787631.4684
        46.2504         32.7504
 04  6 30 15  9 30.0000000  0  8G 6G15G16G18G21G22G26G29
  20752562.8604    1707183.57049   1325534.53248                  20752560.6384
        52.2504         43.5004
  23280430.6314   -3654379.07449  -2832167.09247                  23280428.7854
        43.7504         29.0004
  23686609.0884   -1132836.26149   -875542.23347                  23686606.1874
        40.2504         28.0004
  20698108.0754   -2181682.07849  -1690545.37348                  20698103.9194
        51.5004         43.7504
  20792853.4654   -1555284.02749  -1205398.01548                  20792849.4444
        52.7504         42.5004
  22546413.1844   -4159753.95749  -3225857.92447                  22546409.1894
        48.5004         35.0004
  21683696.9814      12505.49649     12691.13347                  21683694.2204
        48.5004         37.0004
  22790247.4814    1341105.65249   1042374.39347                  22790245.3524
        46.5004         32.0004
 04  6 30 15  9 40.0000000  0  8G 6G15G16G18G21G22G26G29
  20755618.5834    1723242.93049   1338048.30348                  20755616.4874
        51.0004         43.0004
  23275480.6004   -3680390.41049  -2852435.69147                  23275479.0134
        43.5004         27.2504
  23685835.0834   -1136901.40249   -878709.96047                  23685832.4714
        40.2504         27.5004
  20695748.3834   -2194080.08649  -1700206.17248                  20695744.6644
        51.5004         43.0004
  20790970.5084   -1565179.85949  -1213109.06048                  20790966.0884
        52.0004         41.7504
  22541151.3114   -4187407.02349  -3247405.76547                  22541146.8724
        49.0004         34.7504
  21684710.6924      17831.44949     16841.21647                  21684707.7264
        46.7504         36.2504
  22792870.5214    1354892.77049   1053117.56347                  22792868.8424
        45.2504         31.5004
 04  6 30 15  9 50.0000000  0  8G 6G15G16G18G21G22G26G29
  20758683.6614    1739349.82049   1350599.13048                  20758681.4424
        51.0004         44.0004
  23270531.2374   -3706402.76649  -2872705.02747                  23270528.3514
        44.5004         29.0004
  23685070.7094   -1140913.78149   -881836.44947                  23685068.1834
        38.5004         28.7504
  20693397.1164   -2206436.27349  -1709834.35948                  20693393.0964
        51.5004         44.2504
  20789090.4394   -1575061.35249  -1220808.91648                  20789085.8824
        52.7504         43.0004
  22535894.7734   -4215030.65249  -3268930.65847                  22535890.3324
        48.5004         35.5004
  21685736.7684      23226.79349     21045.39147                  21685734.6134
        48.0004         37.5004
  22795504.5404    1368731.66449   1063901.12047                  22795502.2504
        46.0004         32.5004
 04  6 30 15 10  0.0000000  0  8G 6G15G16G18G21G22G26G29
  20761758.2054    1755507.92649   1363189.85348                  20761755.9244
        51.0004         43.7504
  23265580.6774   -3732412.40249  -2892972.24647                  23265579.1404
        44.0004         28.7504
  23684318.9174   -1144869.48049   -884918.81747                  23684315.9184
        40.0004         27.5004
  20691054.3024   -2218746.78949  -1719426.95648                  20691050.9454
        51.5004         44.0004
  20787213.2794   -1584924.71949  -1228494.64648                  20787209.1684
        53.2504         42.7504
  22530644.3204   -4242621.07049  -3290429.66847                  22530640.3924
        48.5004         35.2504
  21686777.6954      28695.20349     25306.48247                  21686775.6474
        48.0004         37.5004
  22798149.1044    1382626.08249   1074727.93547                  22798146.6474
        47.0004         32.5004
 04  6 30 15 10 10.0000000  0  8G 6G15G16G18G21G22G26G29
  20764842.0564    1771710.19549   1375814.98448                  20764839.5814
        51.0004         44.2504
  23260631.8454   -3758426.34049  -2913242.83547                  23260629.1414
        45.0004         29.2504
  23683575.3624   -1148775.70749   -887962.65947                  23683572.8214
        39.0004         28.2504
  20688719.1144   -2231018.84849  -1728989.59248                  20688715.6704
        51.2504         44.0004
  20785338.4004   -1594777.11749  -1236171.84648                  20785334.1164
        52.5004         43.5004
  22525399.3754   -4270185.36349  -3311908.33847                  22525395.2464
        49.0004         36.0004
  21687830.6104      34229.61349     29619.00647                  21687828.1604
        46.0004         37.5004
  22800801.6264    1396568.90249   1085592.45847                  22800799.8564
        47.5004         33.5004
 04  6 30 15 10 20.0000000  0  8G 6G15G16G18G21G22G26G29
  20767932.9754    1787956.77749   1388474.65148                  20767930.8354
        51.0004         43.2504
  23255679.9194   -3784444.34049  -2933516.60247                  23255678.0594
        45.0004         29.0004
  23682841.6264   -1152632.09849   -890967.66247                  23682838.8274
        40.0004         28.2504
  20686391.6514   -2243252.12949  -1738522.03048                  20686387.9174
        52.2504         44.0004
  20783465.7954   -1604618.20349  -1243840.23048                  20783461.6374
        52.7504         43.0004
  22520159.2844   -4297723.05949  -3333366.27047                  22520154.7914
        49.0004         35.5004
  21688896.6674      39830.20349     33983.10047                  21688893.7484
        48.2504         37.5004
  22803464.3974    1410560.42649   1096494.95647                  22803462.1024
        47.0004         32.2504
 04  6 30 15 10 30.0000000  0  8G 6G15G16G18G21G22G26G29
  20771034.2404    1804252.16049   1401172.34548                  20771031.6694
        50.7504         43.2504
  23250729.1294   -3810461.81249  -2953789.94947                  23250727.2204
        44.0004         29.0004
  23682117.7654   -1156434.37149   -893930.45347                  23682114.9194
        39.7504         28.2504
  20684071.9234   -2255442.14549  -1748020.74548                  20684068.1734
        52.0004         44.0004
  20781595.9694   -1614443.53549  -1251496.32248                  20781591.5694
        53.0004         43.0004
  22514924.8824   -4325229.72749  -3354800.03647                  22514920.2624
        49.2504         35.2504
  21689975.5694      45501.59049     38402.36947                  21689972.7524
        46.5004         37.5004
  22806137.2334    1424604.97349   1107438.74047                  22806134.4664
        47.5004         32.5004
 04  6 30 15 10 40.0000000  0  8G 6G15G16G18G21G22G26G29
  20774143.9714    1820595.13349   1413907.12748                  20774141.8534
        50.0004         43.2504
  23245778.4644   -3836480.00449  -2974063.84447                  23245776.0784
        44.7504         29.0004
  23681404.4124   -1160183.61749   -896851.96247                  23681401.5494
        38.7504         28.7504
  20681759.9924   -2267590.11349  -1757486.67348                  20681756.4264
        52.0004         43.7504
  20779729.1164   -1624254.26249  -1259141.03848                  20779724.7474
        53.2504         42.7504
  22509696.0364   -4352706.54749  -3376210.51047                  22509691.8334
        49.0004         35.5004
  21691068.2274      51242.39849     42875.72447                  21691065.5294
        46.5004         36.7504
  22808819.2504    1438701.41449   1118422.97147                  22808817.3074
        46.2504         32.0004
 04  6 30 15 10 50.0000000  0  8G 6G15G16G18G21G22G26G29
  20777263.2044    1836986.01249   1426679.23548                  20777260.6034
        50.7504         42.0004
  23240826.1444   -3862498.58249  -2994338.06347                  23240824.6474
        43.5004         28.7504
  23680700.8754   -1163879.54349   -899731.91647                  23680698.4654
        40.5004         27.7504
  20679456.4884   -2279695.64849  -1766919.55748                  20679452.9164
        51.5004         43.5004
  20777865.3064   -1634049.92249  -1266774.03248                  20777860.8344
        52.5004         42.0004
  22504472.7214   -4380153.05549  -3397597.38847                  22504468.6134
        48.5004         34.7504
  21692174.0624      57053.07049     47403.51347                  21692171.4494
        48.2504         36.7504
  22811511.6654    1452849.86349   1129447.72647                  22811509.6124
        46.7504         32.0004
 04  6 30 15 11  0.0000000  0  8G 6G15G16G18G21G22G26G29
  20780390.8384    1853423.15649   1439487.37748                  20780388.5684
        49.7504         43.0004
  23235875.3424   -3888519.17249  -3014613.84447                  23235873.2394
        44.0004         29.2504
  23680007.6094   -1167523.79749   -902571.59047                  23680005.0994
        40.0004         28.7504
  20677160.9424   -2291760.33649  -1776320.62148                  20677156.6694
        52.0004         44.7504
  20776003.4724   -1643832.14549  -1274396.53648                  20775999.2064
        52.2504         43.0004
  22499255.0904   -4407570.84449  -3418961.89947                  22499251.0014
        48.7504         36.0004
  21693292.5894      62932.01249     51984.49947                  21693290.3054
        46.5004         37.2504
  22814213.5874    1467048.81349   1140511.82047                  22814210.7684
        47.2504         32.0004
 04  6 30 15 11 10.0000000  0  8G 6G15G16G18G21G22G26G29
  20783527.1404    1869904.35249   1452329.86248                  20783524.6204
        50.0004         42.7504
  23230921.9744   -3914543.89149  -3034892.82447                  23230921.0044
        43.2504         28.7504
  23679323.5024   -1171118.49649   -905372.68047                  23679320.4944
        39.7504         28.0004
  20674872.2174   -2303786.44149  -1785691.60748                  20674868.3644
        52.5004         44.0004
  20774144.2034   -1653603.20349  -1282010.34248                  20774139.6894
        52.2504         42.7504
  22494042.5754   -4434962.14849  -3440305.75947                  22494038.3624
        48.7504         35.2504
  21694423.9384      68876.94149     56616.90447                  21694421.5394
        46.7504         37.5004
  22816925.0174    1481295.94149   1151613.50547                  22816922.3864
        47.0004         32.0004
 04  6 30 15 11 20.0000000  0  8G 6G15G16G18G21G22G26G29
  20786671.8764    1886429.34049   1465206.45948                  20786669.4574
        49.5004         43.0004
  23225969.9134   -3940572.95749  -3055175.22347                  23225967.8534
        42.7504         28.5004
  23678649.0594   -1174663.94549   -908135.35847                  23678646.5034
        39.5004         28.0004
  20672590.9124   -2315774.25049  -1795032.76048                  20672587.2294
        52.7504         44.5004
  20772286.8804   -1663363.22349  -1289615.55648                  20772282.3804
        51.7504         43.2504
  22488835.7744   -4462327.11749  -3461629.11747                  22488831.2644
        48.0004         35.2504
  21695567.9724      74887.57049     61300.50747                  21695565.3384
        46.0004         37.5004
  22819645.2534    1495591.07449   1162752.56147                  22819641.9394
        46.7504         32.7504
 04  6 30 15 11 30.0000000  0  8G 6G15G16G18G21G22G26G29
  20789825.2284    1903000.16449   1478118.78748                  20789823.1024
        49.7504         43.0004
  23221015.1864   -3966604.32849  -3075459.36847                  23221014.0674
        43.2504         28.5004
  23677984.6124   -1178158.02349   -910858.04247                  23677981.5114
        39.5004         28.2504
  20670317.6494   -2327721.60949  -1804342.39048                  20670313.5284
        51.7504         44.2504
  20770432.3704   -1673110.03949  -1297210.48148                  20770427.9074
        52.2504         43.2504
  22483633.6274   -4489663.55949  -3482930.22247                  22483629.4294
        48.5004         34.7504
  21696724.6104      80966.07049     66036.99947                  21696722.1894
        46.5004         37.7504
  22822374.7594    1509936.19149   1173930.55647                  22822371.9384
        46.0004         32.0004
 04  6 30 15 11 40.0000000  0  8G 6G15G16G18G21G22G26G29
  20792987.8834    1919620.44549   1491069.63848                  20792985.4494
        50.0004         43.0004
  23216062.8564   -3992634.15649  -3095742.35747                  23216060.3584
        43.5004         28.0004
  23677329.2574   -1181597.09849   -913537.85547                  23677326.8734
        40.5004         28.0004
  20668052.6194   -2339624.79349  -1813617.59848                  20668048.7344
        51.7504         44.2504
  20768580.7314   -1682839.98449  -1304792.26048                  20768575.7554
        52.7504         42.7504
  22478438.0674   -4516967.81649  -3504206.26147                  22478433.1264
        48.5004         34.7504
  21697894.7424      87116.06349     70829.19247                  21697892.1094
        47.0004         37.5004
  22825114.6794    1524334.90249   1185150.32047                  22825112.4114
        47.0004         30.7504
 04  6 30 15 11 50.0000000  0  8G 6G15G16G18G21G22G26G29
  20796159.9734    1936289.88349   1504058.81348                  20796157.6494
        49.5004         42.5004
  23211109.2844   -4018662.92649  -3116024.49747                  23211107.6024
        43.0004         27.5004
  23676685.4844   -1184981.48849   -916175.01647                  23676682.6234
        41.5004         28.2504
  20665795.3964   -2351484.21149  -1822858.69148                  20665791.6724
        52.2504         44.0004
  20766732.5254   -1692553.45349  -1312361.18148                  20766727.6474
        52.2504         43.0004
  22473248.1954   -4544240.12949  -3525457.40247                  22473243.6514
        48.5004         34.7504
  21699078.5244      93337.23049     75676.86347                  21699076.5324
        46.2504         38.0004
  22827864.8524    1538786.79349   1196411.52547                  22827862.5134
        47.0004         31.0004
 04  6 30 15 12  0.0000000  0  8G 6G15G16G18G21G22G26G29
  20799340.2814    1953004.10949   1517082.87548                  20799338.1774
        50.5004         42.0004
  23206156.1354   -4044694.85549  -3136309.11047                  23206153.8744
        43.2504         28.0004
  23676051.3734   -1188315.50849   -918772.95547                  23676048.3394
        42.0004         28.5004
  20663546.4544   -2363304.16849  -1832069.04748                  20663542.2384
        51.5004         43.5004
  20764886.1124   -1702254.53549  -1319920.47548                  20764881.8074
        52.5004         42.0004
  22468063.6314   -4571484.88349  -3546687.05747                  22468059.2984
        49.2504         34.5004
  21700275.0664      99625.23049     80576.59947                  21700273.1434
        47.7504         37.0004
  22830624.1994    1553287.58249   1207710.85347                  22830621.8644
        46.7504         31.0004
 04  6 30 15 12 10.0000000  0  8G 6G15G16G18G21G22G26G29
  20802530.0914    1969766.11749   1530144.15648                  20802527.4744
        49.5004         42.7504
  23201201.7364   -4070726.84049  -3156593.77847                  23201200.4584
        42.7504         28.5004
  23675426.5564   -1191596.13349   -921329.32947                  23675424.3854
        40.5004         27.5004
  20661305.3224   -2375081.60949  -1841246.28448                  20661301.1284
        52.5004         44.2504
  20763043.0714   -1711940.10549  -1327467.67548                  20763038.1994
        52.7504         43.0004
  22462884.7554   -4598698.87149  -3567892.75847                  22462880.8534
        48.5004         35.5004
  21701484.6394     105983.13349     85530.80247                  21701482.2424
        46.5004         37.0004
  22833393.6374    1567840.35549   1219050.64747                  22833390.7744
        46.7504         31.5004
 04  6 30 15 12 20.0000000  0  8G 6G15G16G18G21G22G26G29
  20805728.6114    1986573.06349   1543240.46148                  20805726.0304
        48.5004         42.7504
  23196247.5994   -4096761.82049  -3176880.75047                  23196245.8934
        43.5004         28.2504
  23674812.4984   -1194826.21949   -923846.26447                  23674809.8454
        39.5004         27.7504
  20659071.5744   -2386819.38349  -1850392.59748                  20659067.5564
        52.0004         44.0004
  20761202.5404   -1721613.16849  -1335005.14048                  20761197.4874
        53.0004         43.0004
  22457711.6384   -4625884.96549  -3589076.70747                  22457707.0864
        49.2504         35.7504
  21702707.5324     112407.96149     90537.14547                  21702705.4254
        45.0004         36.5004
  22836172.2054    1582441.97349   1230428.53847                  22836169.3594
        47.2504         32.0004
 04  6 30 15 12 30.0000000  0  8G 6G15G16G18G21G22G26G29
  20808936.0234    2003426.33249   1556372.88348                  20808933.0024
        49.7504         43.0004
  23191293.5364   -4122798.27349  -3197168.89947                  23191291.6304
        44.2504         30.0004
  23674207.3624   -1198004.37149   -926322.75047                  23674204.7694
        41.5004         29.0004
  20656845.7634   -2398516.01249  -1859506.85748                  20656841.6084
        52.2504         44.5004
  20759364.3604   -1731272.19549  -1342531.63548                  20759359.1604
        52.5004         43.0004
  22452543.7614   -4653041.67249  -3610237.76247                  22452539.4594
        48.7504         35.7504
  21703943.3664     118901.12949     95596.76547                  21703940.5184
        46.7504         37.2504
  22838960.1864    1597093.96949   1241845.68347                  22838957.5934
        47.0004         32.0004
 04  6 30 15 12 40.0000000  0  8G 6G15G16G18G21G22G26G29
  20812150.7394    2020320.98849   1569537.54048                  20812148.1634
        50.7504         42.5004
  23186337.8424   -4148841.08249  -3217461.97047                  23186335.5694
        44.7504         29.0004
  23673611.9564   -1201135.46549   -928762.58147                  23673608.7774
        41.0004         29.0004
  20654626.6424   -2410176.43049  -1868592.88148                  20654623.0354
        52.0004         44.5004
  20757527.9674   -1740922.01249  -1350050.97248                  20757523.3604
        52.5004         42.7504
  22447380.7984   -4680173.82449  -3631379.68847                  22447376.9024
        49.0004         36.0004
  21705190.8844     125457.87949    100705.91647                  21705188.5334
        47.0004         37.0004
  22841756.7564    1611791.41049   1253298.23647                  22841754.6044
        45.7504         31.7504
 04  6 30 15 12 50.0000000  0  8G 6G15G16G18G21G22G26G29
  20815374.4364    2037261.57449   1582737.98848                  20815371.7154
        49.5004         42.7504
  23181381.7164   -4174885.59449  -3237756.39547                  23181379.2914
        44.0004         28.7504
  23673025.9284   -1204214.94949   -931162.17847                  23673023.1154
        40.7504         28.5004
  20652415.6024   -2421795.96149  -1877647.06548                  20652411.7164
        52.0004         44.2504
  20755694.3914   -1750557.95349  -1357559.51048                  20755689.6814
        52.5004         42.7504
  22442223.1964   -4707276.85249  -3652498.92047                  22442219.2114
        48.7504         36.0004
  21706451.5434     132082.67649    105868.08847                  21706448.9404
        46.0004         36.5004
  22844563.2874    1626538.91049   1264789.75947                  22844560.6444
        45.5004         31.0004
 04  6 30 15 13  0.0000000  0  8G 6G15G16G18G21G22G26G29
  20818607.3484    2054248.55949   1595974.59748                  20818604.4484
        50.7504         42.7504
  23176425.2944   -4200931.35949  -3258051.78447                  23176423.1524
        45.0004         28.5004
  23672449.8734   -1207242.34049   -933521.19647                  23672447.0394
        41.0004         27.5004
  20650212.7374   -2433374.24649  -1886669.10248                  20650208.0574
        51.5004         44.2504
  20753863.3804   -1760179.84049  -1365057.07448                  20753858.7744
        52.2504         43.0004
  22437071.3494   -4734350.19549  -3673595.02847                  22437067.3104
        49.0004         35.2504
  21707725.1474     138775.98049    111083.65247                  21707722.2334
        47.5004         37.2504
  22847379.6464    1641336.68849   1276320.49147                  22847377.3514
        46.5004         32.7504
 04  6 30 15 13 10.0000000  0  8G 6G15G16G18G21G22G26G29
  20821847.2884    2071278.66849   1609244.80848                  20821845.5904
        50.5004         42.2504
  23171467.7824   -4226981.68049  -3278350.73647                  23171465.9774
        44.7504         28.0004
  23671882.8954   -1210221.02349   -935842.27547                  23671879.7224
        41.7504         27.5004
  20648016.6054   -2444914.67249  -1895661.62848                  20648012.3664
        51.5004         44.0004
  20752034.3634   -1769790.69549  -1372546.05348                  20752029.8624
        52.0004         42.5004
  22431924.5244   -4761397.16449  -3694670.57547                  22431920.0224
        49.0004         34.7504
  21709011.3894     145534.46149    116350.00447                  21709008.8974
        46.5004         37.2504
  22850204.3464    1656181.52349   1287887.88547                  22850202.5664
        46.2504         32.0004
 04  6 30 15 13 20.0000000  0  8G 6G15G16G18G21G22G26G29
  20825096.5444    2088351.44549   1622548.25748                  20825093.9434
        50.2504         42.7504
  23166509.6494   -4253036.86349  -3298653.47647                  23166507.7684
        44.2504         27.7504
  23671325.4624   -1213151.31649   -938125.63647                  23671322.3124
        41.0004         29.0004
  20645827.4644   -2456417.43049  -1904624.82348                  20645823.4974
        51.7504         44.0004
  20750207.3244   -1779390.65249  -1380026.53648                  20750202.7564
        53.0004         42.7504
  22426782.5864   -4788418.03549  -3715725.79547                  22426778.0134
        49.0004         35.7504
  21710310.1024     152357.73049    121666.83347                  21710307.1314
        47.0004         37.7504
  22853037.9374    1671072.99649   1299491.62347                  22853036.2734
        46.7504         32.0004
 04  6 30 15 13 30.0000000  0  8G 6G15G16G18G21G22G26G29
  20828354.4354    2105469.16449   1635886.73048                  20828352.0264
        50.2504         43.0004
  23161551.2074   -4279094.60949  -3318958.20347                  23161548.9704
        45.0004         28.0004
  23670776.2364   -1216030.89549   -940369.44647                  23670774.2484
        41.5004         28.0004
  20643646.1784   -2467880.26249  -1913556.90348                  20643641.8964
        52.0004         44.0004
  20748383.2594   -1788977.57849  -1387496.86848                  20748378.3804
        53.2504         42.7504
  22421646.6164   -4815410.50449  -3736758.87447                  22421641.8564
        49.5004         35.5004
  21711620.9224     159248.16049    127035.99847                  21711618.3784
        47.5004         37.0004
  22855881.2044    1686013.32449   1311133.43947                  22855879.4544
        46.5004         32.2504
 04  6 30 15 13 40.0000000  0  8G 6G15G16G18G21G22G26G29
  20831620.2904    2122634.25449   1649262.10948                  20831617.6724
        50.0004         42.5004
  23156592.3394   -4305152.48849  -3339263.01347                  23156590.0434
        44.5004         29.0004
  23670239.1404   -1218857.38749   -942571.93247                  23670236.3634
        41.2504         28.2504
  20641473.1634   -2479300.82849  -1922456.03948                  20641468.8454
        52.0004         44.5004
  20746562.2014   -1798548.92649  -1394955.06948                  20746557.5444
        52.5004         43.2504
  22416515.3234   -4842372.07449  -3757767.87647                  22416510.8804
        49.0004         36.0004
  21712945.7144     166208.14549    132459.35547                  21712942.8814
        47.2504         37.5004
  22858733.9264    1701004.90649   1322815.16747                  22858732.0424
        47.2504         32.5004
 04  6 30 15 13 50.0000000  0  8G 6G15G16G18G21G22G26G29
  20834895.3414    2139844.87149   1662672.97448                  20834892.9744
        50.7504         42.5004
  23151634.0394   -4331212.18049  -3359569.28647                  23151631.6744
        45.0004         29.0004
  23669711.2504   -1221632.53149   -944734.40347                  23669708.0544
        41.5004         26.2504
  20639307.1574   -2490680.84049  -1931323.57048                  20639303.5734
        51.2504         44.5004
  20744743.5314   -1808106.47749  -1402402.50548                  20744738.8854
        53.0004         43.2504
  22411390.3524   -4869304.42249  -3778754.11047                  22411385.9864
        49.2504         35.5004
  21714282.7174     173235.83649    137935.48047                  21714280.1644
        48.2504         37.7504
  22861596.1154    1716046.00049   1334535.47947                  22861594.0024
        47.2504         32.0004
 04  6 30 15 14  0.0000000  0  8G 6G15G16G18G21G22G26G29
  20838179.1044    2157100.39149   1676118.82048                  20838176.7884
        51.5004         42.7504
  23146673.7504   -4357274.32849  -3379877.42447                  23146671.6674
        43.7504         29.5004
  23669193.2744   -1224357.05549   -946857.41347                  23669190.1944
        40.5004         28.2504
  20637149.6634   -2502020.91049  -1940159.98748                  20637145.5594
        51.5004         44.2504
  20742926.8994   -1817651.01649  -1409839.80748                  20742922.4704
        52.5004         42.7504
  22406270.7954   -4896208.16849  -3799718.06847                  22406266.4654
        48.7504         36.0004
  21715632.9754     180330.57449    143463.84747                  21715630.6044
        48.0004         37.0004
  22864467.7524    1731135.86749   1346293.82947                  22864465.6534
        46.7504         32.0004
 04  6 30 15 14 10.0000000  0  8G 6G15G16G18G21G22G26G29
  20841471.6654    2174401.29749   1689600.03948                  20841468.6774
        50.5004         42.5004
  23141714.2544   -4383338.36349  -3400187.06547                  23141712.0374
        45.2504         28.7504
  23668684.0684   -1227030.44549   -948940.56847                  23668681.2094
        40.0004         29.0004
  20634999.0884   -2513320.54349  -1948964.89848                  20634995.0094
        51.5004         44.2504
  20741113.2944   -1827181.72749  -1417266.33548                  20741108.7214
        52.7504         42.5004
  22401156.3304   -4923082.73049  -3820659.27447                  22401151.7334
        49.0004         35.7504
  21716995.8954     187492.95749    149044.91247                  21716993.6214
        48.2504         37.2504
  22867348.2584    1746274.97349   1358090.51347                  22867346.5304
        47.5004         31.7504
 04  6 30 15 14 20.0000000  0  8G 6G15G16G18G21G22G26G29
  20844772.0404    2191745.09449   1703114.68448                  20844769.2534
        51.0004         42.0004
  23136753.3324   -4409406.86749  -3420500.18047                  23136751.2994
        44.5004         27.5004
  23668184.4584   -1229655.16049   -950985.83147                  23668181.5204
        42.2504         27.2504
  20632855.9314   -2524582.34449  -1957740.32648                  20632852.1504
        51.5004         44.0004
  20739301.8364   -1836700.98449  -1424683.94748                  20739297.0294
        53.2504         42.5004
  22396047.8794   -4949930.57449  -3841579.64647                  22396043.1534
        49.0004         36.0004
  21718371.1004     194720.44549    154676.71747                  21718368.5404
        48.2504         37.2504
  22870238.7374    1761460.73849   1369923.58947                  22870236.3654
        46.0004         31.7504
 04  6 30 15 14 30.0000000  0  8G 6G15G16G18G21G22G26G29
  20848080.8344    2209134.25049   1716664.67148                  20848077.9414
        51.0004         42.5004
  23131792.3614   -4435477.19549  -3440814.72347                  23131789.9434
        42.7504         28.7504
  23667695.6304   -1232228.60949   -952991.09047                  23667691.5884
        41.7504         27.5004
  20630720.5374   -2535803.65249  -1966484.19348                  20630716.9894
        51.5004         44.2504
  20737492.9974   -1846206.34449  -1432090.72348                  20737488.5364
        51.7504         42.7504
  22390944.1334   -4976749.18449  -3862477.25847                  22390940.2404
        48.2504         36.0004
  21719759.4894     202015.53149    160361.19147                  21719757.1904
        48.0004         38.0004
  22873137.4414    1776695.71949   1381795.00147                  22873134.9394
        46.7504         31.7504
 04  6 30 15 14 40.0000000  0  8G 6G15G16G18G21G22G26G29
  20851397.7614    2226565.11349   1730247.15548                  20851395.2294
        50.2504         42.7504
  23126829.5164   -4461552.96549  -3461133.50347                  23126828.2154
        43.0004         28.7504
  23667214.5484   -1234754.50049   -954959.35647                  23667211.3384
        40.5004         28.0004
  20628592.7114   -2546988.02749  -1975199.29148                  20628588.6814
        51.0004         44.2504
  20735686.3304   -1855701.38749  -1439489.45148                  20735681.5904
        53.0004         43.0004
  22385845.7354   -5003542.07849  -3883354.82347                  22385841.7914
        49.0004         35.7504
  21721159.8954     209374.51649    166095.47047                  21721157.6444
        48.5004         38.0004
  22876044.9374    1791976.23049   1393701.88447                  22876043.1114
        46.0004         32.0004
 04  6 30 15 14 50.0000000  0  8G 6G15G16G18G21G22G26G29
  20854723.4814    2244041.85949   1743865.38948                  20854720.9904
        51.7504         43.0004
  23121868.1894   -4487629.88349  -3481453.17447                  23121865.7124
        45.7504         28.5004
  23666743.3864   -1237228.66049   -956887.26247                  23666740.4964
        40.7504         28.0004
  20626472.0804   -2558131.35549  -1983882.40348                  20626467.6404
        51.5004         44.2504
  20733881.9474   -1865181.84049  -1446876.82148                  20733877.4274
        53.2504         43.2504
  22380752.6424   -5030305.00049  -3904209.04247                  22380748.7944
        49.5004         36.0004
  21722573.3214     216801.66449    171882.85547                  21722571.2434
        47.5004         37.5004
  22878962.5444    1807306.46549   1405647.50847                  22878960.6484
        45.7504         31.5004
 04  6 30 15 15  0.0000000  0  8G 6G15G16G18G21G22G26G29
  20858057.7524    2261563.00449   1757518.22048                  20858054.7654
        51.5004         43.2504
  23116904.9754   -4513709.49649  -3501774.93447                  23116902.9524
        44.5004         28.5004
  23666282.2194   -1239652.57449   -958776.04647                  23666279.1354
        39.5004         29.0004
  20624358.6464   -2569235.04749  -1992534.62148                  20624355.1914
        51.7504         44.5004
  20732080.6414   -1874649.21149  -1454253.98848                  20732075.7404
        52.7504         43.0004
  22375665.3564   -5057039.43449  -3925041.05147                  22375660.9994
        48.5004         36.5004
  21723999.0524     224295.44949    177722.17347                  21723997.0034
        48.0004         37.5004
  22881888.9404    1822684.81649   1417630.61847                  22881886.6324
        46.5004         32.0004
 04  6 30 15 15 10.0000000  0  8G 6G15G16G18G21G22G26G29
  20861400.9724    2279129.01649   1771206.01448                  20861397.8774
        51.5004         43.0004
  23111942.5474   -4539791.17249  -3522098.31047                  23111939.8444
        42.5004         29.5004
  23665830.7784   -1242025.71549   -960625.25647                  23665827.8304
        41.5004         28.2504
  20622253.7324   -2580298.60949  -2001155.57248                  20622249.8474
        52.0004         44.5004
  20730281.5854   -1884103.13749  -1461620.68848                  20730277.0804
        53.2504         43.0004
  22370583.5294   -5083744.78549  -3945850.40447                  22370579.4834
        48.5004         36.7504
  21725437.5414     231856.43849    183613.84247                  21725435.1794
        48.0004         37.2504
  22884824.3404    1838111.76649   1429651.63047                  22884822.3204
        47.2504         31.5004
 04  6 30 15 15 20.0000000  0  8G 6G15G16G18G21G22G26G29
  20864751.6494    2296737.39849   1784926.83248                  20864748.7084
        51.7504         42.5004
  23106977.6774   -4565877.50049  -3542425.31247                  23106976.1404
        41.7504         29.0004
  23665388.0914   -1244350.56649   -962436.83647                  23665385.1884
        40.7504         28.0004
  20620155.7714   -2591324.60549  -2009747.26648                  20620152.0154
        52.0004         44.0004
  20728484.5844   -1893545.88749  -1468978.68148                  20728479.8064
        52.5004         42.7504
  22365506.8854   -5110423.50849  -3966639.01347                  22365502.6994
        47.0004         36.0004
  21726889.3254     239481.93849    189555.78947                  21726887.0194
        48.7504         37.0004
  22887769.0144    1853584.78149   1441708.52347                  22887766.5084
        47.2504         32.5004
 04  6 30 15 15 30.0000000  0  8G 6G15G16G18G21G22G26G29
  20868110.6884    2314390.22749   1798682.27948                  20868107.4584
        52.0004         42.7504
  23102013.8394   -4591966.20349  -3562754.15847                  23102011.1414
        45.2504         29.2504
  23664955.6284   -1246625.01249   -964209.15147                  23664952.7134
        40.2504         28.0004
  20618064.8714   -2602310.82449  -2018307.95248                  20618060.9204
        52.0004         44.2504
  20726690.1224   -1902975.25849  -1476326.23348                  20726685.6154
        53.0004         43.0004
  22360435.9764   -5137073.44149  -3987405.18347                  22360431.2504
        48.7504         36.0004
  21728352.7504     247174.29749    195549.83847                  21728350.6654
        47.7504         37.0004
  22890722.3114    1869105.98449   1453802.96647                  22890720.0254
        46.7504         31.7504
 04  6 30 15 15 40.0000000  0  8G 6G15G16G18G21G22G26G29
  20871478.5254    2332088.42649   1812473.06048                  20871475.7234
        51.5004         42.0004
  23097049.1784   -4618056.38349  -3583084.16947                  23097046.4234
        42.5004         29.0004
  23664532.3304   -1248848.17649   -965941.47947                  23664529.9494
        41.5004         28.0004
  20615981.9804   -2613256.38749  -2026836.97148                  20615978.1884
        52.0004         43.7504
  20724898.4884   -1912390.24649  -1483662.60548                  20724893.9854
        52.7504         42.0004
  22355369.9054   -5163693.60549  -4008148.16947                  22355365.5944
        48.0004         35.5004
  21729829.7244     254934.32849    201596.60147                  21729827.0354
        47.0004         35.5004
  22893685.6054    1884676.21149   1465935.60047                  22893683.3674
        47.0004         31.5004
 04  6 30 15 15 50.0000000  0  8G 6G15G16G18G21G22G26G29
  20874854.7374    2349831.87949   1826299.14148                  20874851.7044
        51.0004         43.2504
  23092083.4644   -4644148.08649  -3603415.34947                  23092081.6144
        42.0004         30.0004
  23664118.4634   -1251020.08249   -967633.87347                  23664116.0554
        40.2504         28.5004
  20613906.9484   -2624161.34849  -2035334.33148                  20613903.0944
        52.2504         44.5004
  20723109.9304   -1921790.96149  -1490987.83348                  20723105.0404
        52.2504         42.7504
  22350309.8474   -5190284.00049  -4028867.94647                  22350306.1114
        47.5004         36.5004
  21731319.1754     262761.92249    207696.02947                  21731316.2314
        46.5004         37.0004
  22896657.8134    1900295.39549   1478106.39447                  22896655.5354
        46.5004         31.5004
 04  6 30 15 16  0.0000000  0  8G 6G15G16G18G21G22G26G29
  20878239.3334    2367617.95349   1840158.41248                  20878236.6224
        51.0004         42.7504
  23087117.3644   -4670243.89149  -3623749.75147                  23087115.1914
        45.0004         29.0004
  23663714.9324   -1253143.33649   -969288.36347                  23663712.7084
        39.5004         28.7504
  20611838.9594   -2635028.32849  -2043802.09848                  20611835.0224
        52.2504         44.5004
  20721323.1474   -1931179.78149  -1498303.79848                  20721318.8404
        52.0004         42.5004
  22345255.0814   -5216847.17249  -4049566.50647                  22345250.9744
        49.2504         36.0004
  21732820.9404     270654.49249    213846.08447                  21732818.5074
        48.0004         37.0004
  22899638.9034    1915960.89549   1490313.26847                  22899636.4564
        47.0004         31.5004
 04  6 30 15 16 10.0000000  0  8G 6G15G16G18G21G22G26G29
  20881631.9324    2385445.70349   1854050.16248                  20881629.6934
        51.0004         43.0004
  23082151.5464   -4696344.74649  -3644088.06547                  23082148.9404
        44.5004         29.0004
  23663319.9784   -1255218.99649   -970905.78047                  23663316.9314
        40.0004         28.5004
  20609778.1324   -2645858.33649  -2052241.07248                  20609773.9874
        52.0004         44.5004
  20719538.5994   -1940557.67249  -1505611.24048                  20719534.1684
        53.0004         43.5004
  22340205.3634   -5243384.12549  -4070244.65447                  22340201.1224
        48.7504         36.5004
  21734334.9984     278611.00449    220045.95647                  21734332.5474
        46.5004         36.7504
  22902628.5884    1931671.68449   1502555.41847                  22902626.4704
        47.0004         32.0004
 04  6 30 15 16 20.0000000  0  8G 6G15G16G18G21G22G26G29
  20885032.4964    2403317.02049   1867975.84248                  20885030.2864
        51.0004         43.0004
  23077183.3314   -4722448.64549  -3664428.75547                  23077181.4604
        40.5004         29.2504
  23662934.6304   -1257245.10949   -972484.58847                  23662931.6744
        40.2504         28.7504
  20607724.6274   -2656649.28949  -2060649.61148                  20607721.0164
        52.0004         44.5004
  20717756.3334   -1949922.78149  -1512908.73548                  20717752.3474
        52.5004         43.0004
  22335161.1494   -5269892.83649  -4090900.77147                  22335156.6814
        46.5004         36.0004
  21735861.9084     286633.46149    226297.21247                  21735859.6714
        47.2504         37.0004
  22905627.2204    1947429.68849   1514834.38847                  22905625.1564
        47.0004         31.0004
 04  6 30 15 16 30.0000000  0  8G 6G15G16G18G21G22G26G29
  20888442.3554    2421234.97349   1881937.87948                  20888440.2634
        50.2504         43.0004
  23072216.4714   -4748552.46149  -3684769.37947                  23072213.5564
        41.7504         30.2504
  23662558.8434   -1259218.56249   -974022.35847                  23662556.3504
        40.5004         28.2504
  20605679.2944   -2667398.16449  -2069025.33848                  20605675.1534
        52.2504         44.5004
  20715977.3584   -1959271.98049  -1520193.81648                  20715972.6494
        52.7504         42.5004
  22330122.4464   -5296370.12549  -4111532.40447                  22330118.0864
        47.2504         36.2504
  21737401.6924     294724.89549    232602.23047                  21737398.8954
        46.2504         37.2504
  22908636.1404    1963237.85549   1527152.43847                  22908633.3444
        47.5004         32.2504
 04  6 30 15 16 40.0000000  0  8G 6G15G16G18G21G22G26G29
  20891859.8174    2439194.91849   1895932.63648                  20891857.9604
        50.5004         42.7504
  23067247.7804   -4774660.78149  -3705113.52147                  23067245.8564
        43.7504         30.5004
  23662192.4244   -1261143.92249   -975522.64547                  23662189.9934
        40.7504         28.0004
  20603641.0934   -2678109.51649  -2077371.86048                  20603636.9914
        52.0004         44.5004
  20714200.4784   -1968609.73849  -1527469.99148                  20714196.0324
        53.0004         43.0004
  22325088.9364   -5322820.48449  -4132143.07647                  22325084.7844
        48.2504         36.5004
  21738953.5554     302880.69549    238957.40047                  21738951.2484
        47.5004         37.2504
  22911652.5084    1979091.69149   1539506.06747                  22911649.6594
        47.2504         32.0004
 04  6 30 15 16 50.0000000  0  8G 6G15G16G18G21G22G26G29
  20895285.8644    2457198.14149   1909961.10948                  20895284.0134
        51.2504         42.2504
  23062278.8894   -4800772.37549  -3725460.22247                  23062277.0874
        45.5004         29.2504
  23661836.0704   -1263020.00849   -976984.53847                  23661832.9864
        41.5004         27.5004
  20601610.0264   -2688782.10949  -2085688.14648                  20601605.9824
        51.0004         43.7504
  20712426.0374   -1977934.69549  -1534736.18748                  20712421.7044
        51.2504         42.5004
  22320060.8634   -5349242.73849  -4152731.82247                  22320056.9564
        49.0004         36.7504
  21740518.1654     311102.06349    245363.65947                  21740515.8354
        47.5004         36.5004
  22914678.0044    1994992.26249   1551896.14747                  22914675.8124
        47.2504         31.5004
 04  6 30 15 17  0.0000000  0  8G 6G15G16G18G21G22G26G29
  20898719.3504    2475241.42249   1924020.79348                  20898717.4514
        51.0004         43.2504
  23057309.4834   -4826890.27049  -3745811.82547                  23057306.9734
        46.2504         30.0004
  23661487.2364   -1264849.88349   -978410.43947                  23661484.8334
        41.0004         28.7504
  20599585.8334   -2699419.05149  -2093976.67848                  20599581.7104
        51.5004         44.2504
  20710653.5494   -1987250.03149  -1541994.90748                  20710649.2314
        52.0004         43.0004
  22315037.8814   -5375639.85249  -4173300.99347                  22315033.4064
        49.5004         37.0004
  21742094.3344     319386.04749    251818.70247                  21742092.2394
        47.2504         37.2504
  22917711.6914    2010936.51249   1564320.21847                  22917709.9554
        46.2504         32.0004
 04  6 30 15 17 10.0000000  0  8G 6G15G16G18G21G22G26G29
  20902161.1854    2493328.78549   1938114.84748                  20902158.9954
        50.2504         42.7504
  23052338.4384   -4853010.43449  -3766165.18847                  23052336.6104
        46.2504         29.7504
  23661149.1994   -1266629.67249   -979797.26847                  23661146.1464
        42.2504         29.0004
  20597568.7804   -2710016.44549  -2102234.37948                  20597565.0774
        51.7504         44.5004
  20708883.1514   -1996551.76249  -1549243.00948                  20708879.2684
        51.7504         43.0004
  22310020.2904   -5402007.94549  -4193847.54547                  22310016.2304
        49.5004         36.5004
  21743683.3994     327736.27749    258325.37347                  21743681.0014
        46.5004         37.0004
  22920754.9714    2026928.33649   1576781.37247                  22920753.1854
        46.2504         31.5004
 04  6 30 15 17 20.0000000  0  8G 6G15G16G18G21G22G26G29
  20905611.7634    2511461.20749   1952243.99048                  20905609.6844
        50.7504         43.0004
  23047367.7494   -4879131.85549  -3786519.51547                  23047365.6574
        46.2504         30.0004
  23660820.0554   -1268358.29349   -981144.26047                  23660817.0624
        42.7504         28.2504
  20595560.5204   -2720573.21949  -2110460.43248                  20595556.5344
        52.7504         44.5004
  20707115.8124   -2005838.75049  -1556479.62448                  20707111.8104
        52.5004         43.0004
  22305007.6964   -5428345.83249  -4214370.56047                  22305003.8304
        48.7504         36.7504
  21745284.7304     336154.03149    264884.66047                  21745282.9534
        48.2504         37.7504
  22923807.9254    2042968.75449   1589280.39747                  22923805.2984
        47.0004         32.0004
 04  6 30 15 17 30.0000000  0  8G 6G15G16G18G21G22G26G29
  20909070.4484    2529638.41849   1966408.03648                  20909068.5974
        49.5004         42.2504
  23042396.5444   -4905254.68449  -3806874.97147                  23042394.8504
        46.7504         30.7504
  23660500.6804   -1270035.93449   -982451.52647                  23660498.0174
        41.2504         28.7504
  20593559.3964   -2731089.42649  -2118654.89648                  20593555.2894
        52.5004         44.5004
  20705351.5844   -2015111.11349  -1563704.85148                  20705347.0704
        52.7504         43.5004
  22300001.9834   -5454653.65249  -4234870.17047                  22299997.8554
        49.2504         36.2504
  21746899.5494     344639.07449    271496.36747                  21746897.2824
        47.0004         36.7504
  22926869.2694    2059057.52349   1601817.07347                  22926867.2384
        47.2504         32.2504
 04  6 30 15 17 40.0000000  0  8G 6G15G16G18G21G22G26G29
  20912536.4654    2547851.06649   1980599.70448                  20912534.6634
        49.5004         42.0004
  23037423.7094   -4931388.26249  -3827238.79947                  23037421.7664
        46.7504         31.0004
  23660189.6974   -1271672.03949   -983726.44147                  23660186.8044
        42.0004         27.7504
  20591563.8174   -2741574.54749  -2126825.11048                  20591560.2954
        51.7504         44.5004
  20703588.0084   -2024378.19949  -1570925.94948                  20703584.0834
        52.5004         43.0004
  22294999.8384   -5480940.76249  -4255353.61347                  22294995.4934
        49.7504         36.5004
  21748525.4854     353181.94149    278153.14947                  21748523.1034
        46.0004         37.0004
  22929938.5804    2075185.20349   1614384.09447                  22929936.6814
        47.5004         33.2504
 04  6 30 15 17 50.0000000  0  8G 6G15G16G18G21G22G26G29
  20916010.1324    2566105.65249   1994824.04048                  20916008.2504
        49.5004         42.2504
  23032450.3934   -4957526.02049  -3847605.87547                  23032447.8644
        45.7504         30.5004
  23659887.2534   -1273260.04349   -984963.84047                  23659884.4984
        43.2504         28.0004
  20589575.8244   -2752022.08249  -2134966.03548                  20589572.0124
        52.2504         44.7504
  20701826.7854   -2033633.50849  -1578137.88348                  20701822.5854
        52.5004         43.5004
  22290002.6734   -5507200.57849  -4275815.79247                  22289998.2994
        49.5004         36.0004
  21750163.2644     361789.18849    284860.09847                  21750161.0684
        46.2504         37.0004
  22933016.0744    2091358.21949   1626986.45047                  22933014.1644
        47.5004         31.7504
 04  6 30 15 18  0.0000000  0  8G 6G15G16G18G21G22G26G29
  20919492.1554    2584403.67249   2009082.23148                  20919490.4324
        49.5004         42.2504
  23027475.8014   -4983666.34849  -3867974.95047                  23027473.6474
        46.2504         30.0004
  23659594.3814   -1274798.42649   -986162.58147                  23659591.6004
        40.7504         27.2504
  20587595.2154   -2762430.39549  -2143076.40348                  20587591.2414
        51.7504         44.2504
  20700068.1644   -2042875.34849  -1585339.31148                  20700063.9784
        52.2504         42.7504
  22285010.5644   -5533431.48849  -4296255.45747                  22285006.6214
        49.7504         36.2504
  21751813.6474     370462.37149    291618.40547                  21751811.4874
        46.0004         37.0004
  22936102.8554    2107578.19149   1639625.37847                  22936100.5704
        47.0004         32.2504
 04  6 30 15 18 10.0000000  0  8G 6G15G16G18G21G22G26G29
  20922982.1494    2602743.68449   2023373.14048                  20922980.4644
        48.7504         42.7504
  23022500.0754   -5009810.71549  -3888347.16647                  23022498.4384
        46.0004         30.5004
  23659311.3344   -1276288.72349   -987323.84747                  23659308.0564
        40.2504         27.2504
  20585621.5274   -2772800.98049  -2151157.38448                  20585617.6584
        51.7504         44.7504
  20698311.7864   -2052105.16049  -1592531.37648                  20698307.3934
        53.0004         43.0004
  22280024.6404   -5559634.94149  -4316673.72247                  22280020.3574
        49.5004         36.0004
  21753476.1604     379199.92249    298426.88847                  21753473.9114
        44.7504         36.2504
  22939197.7974    2123843.60549   1652299.71047                  22939195.5704
        46.7504         31.7504
 04  6 30 15 18 20.0000000  0  8G 6G15G16G18G21G22G26G29
  20926480.0284    2621125.49649   2037696.61348                  20926478.4884
        49.7504         42.5004
  23017524.8384   -5035959.18049  -3908722.61147                  23017522.2774
        46.0004         30.0004
  23659036.2674   -1277730.94549   -988447.67947                  23659033.3364
        42.5004         28.2504
  20583655.3624   -2783133.91049  -2159209.02248                  20583651.4594
        52.2504         44.5004
  20696557.6234   -2061322.98849  -1599714.10748                  20696553.6544
        52.7504         43.0004
  22275043.9574   -5585811.00049  -4337070.64747                  22275039.1594
        50.0004         36.2504
  21755151.2034     388001.75049    305285.44547                  21755148.7764
        46.5004         36.7504
  22942301.3214    2140154.12149   1665009.20047                  22942299.7674
        46.0004         32.5004
 04  6 30 15 18 30.0000000  0  8G 6G15G16G18G21G22G26G29
  20929985.8504    2639549.03949   2052052.60948                  20929984.1874
        49.5004         42.5004
  23012548.0734   -5062111.94549  -3929101.35847                  23012545.9054
        46.5004         30.5004
  23658771.2014   -1279125.27749   -989534.18547                  23658768.1084
        39.5004         28.2504
  20581696.3484   -2793429.34849  -2167231.43148                  20581692.6604
        52.5004         44.7504
  20694805.8134   -2070528.90649  -1606887.55248                  20694801.2024
        52.0004         43.2504
  22270067.8254   -5611959.73449  -4357446.28647                  22270063.4894
        50.0004         36.5004
  21756838.9364     396867.65649    312193.94847                  21756835.8664
        46.5004         36.5004
  22945414.1864    2156509.69149   1677753.77947                  22945411.8374
        47.0004         32.5004
 04  6 30 15 18 40.0000000  0  8G 6G15G16G18G21G22G26G29
  20933499.5324    2658014.11349   2066440.96548                  20933497.7344
        50.5004         42.2504
  23007570.6224   -5088268.91049  -3949483.41147                  23007567.9814
        46.5004         30.0004
  23658514.1954   -1280471.77049   -990583.40847                  23658511.6774
        41.7504         28.0004
  20579743.9754   -2803687.27749  -2175224.62248                  20579740.2534
        52.0004         45.0004
  20693056.4174   -2079723.07849  -1614051.83548                  20693051.8184
        52.7504         43.7504
  22265096.7744   -5638081.15249  -4377800.62647                  22265092.0394
        49.2504         37.0004
  21758538.2554     405797.66049    319152.39347                  21758535.1334
        47.2504         36.5004
  22948534.9114    2172910.33649   1690533.52047                  22948532.7894
        47.0004         32.2504
 04  6 30 15 18 50.0000000  0  8G 6G15G16G18G21G22G26G29
  20937021.5394    2676522.60249   2080863.16348                  20937019.9314
        49.2504         42.2504
  23002592.2704   -5114428.28949  -3969867.31147                  23002589.9144
        45.5004         30.0004
  23658268.0514   -1281768.68749   -991594.00647                  23658265.2794
        42.7504         28.7504
  20577799.6834   -2813906.00449  -2183187.26848                  20577795.8124
        52.0004         44.7504
  20691309.1684   -2088903.57449  -1621205.46448                  20691305.0724
        52.0004         43.2504
  22260131.6234   -5664173.40249  -4398132.22047                  22260127.0794
        49.5004         36.7504
  21760249.6904     414793.49249    326162.13247                  21760246.9284
        46.0004         36.5004
  22951665.0884    2189357.68849   1703349.63547                  22951662.5684
        47.5004         31.7504
 04  6 30 15 19  0.0000000  0  8G 6G15G16G18G21G22G26G29
  20940552.2874    2695074.64549   2095319.28748                  20940549.6124
        48.7504         42.0004
  22997614.0234   -5140589.73449  -3990252.87147                  22997611.6314
        46.0004         30.5004
  23658030.7294   -1283015.77049   -992565.75347                  23658027.9044
        41.0004         28.2504
  20575862.4684   -2824085.30949  -2191119.18648                  20575858.8464
        52.0004         44.5004
  20689564.9514   -2098070.02049  -1628348.14648                  20689560.8224
        52.5004         43.2504
  22255171.6484   -5690236.23049  -4418440.90747                  22255167.7684
        49.0004         36.2504
  21761974.3594     423855.35549    333223.32747                  21761971.7064
        44.5004         36.5004
  22954803.5674    2205851.87949   1716202.25347                  22954801.1204
        47.7504         31.5004
 04  6 30 15 19 10.0000000  0  8G 6G15G16G18G21G22G26G29
  20944090.5364    2713668.41849   2109807.93248                  20944088.1094
        48.5004         41.7504
  22992634.7124   -5166755.14849  -4010641.50147                  22992632.4464
        46.0004         29.7504
  23657802.6644   -1284214.81649   -993500.09647                  23657800.0884
        42.0004         28.5004
  20573932.7054   -2834226.99649  -2199021.79948                  20573929.0934
        50.5004         44.5004
  20687822.8864   -2107224.21549  -1635481.30148                  20687818.2484
        52.5004         42.7504
  22250217.7574   -5716271.37949  -4438728.04747                  22250213.1004
        49.5004         36.0004
  21763710.9474     432981.34449    340334.48047                  21763708.1584
        45.0004         36.5004
  22957950.6654    2222391.11749   1729089.97447                  22957948.1884
        46.7504         31.7504
 04  6 30 15 19 20.0000000  0  8G 6G15G16G18G21G22G26G29
  20947636.9514    2732305.39849   2124330.24548                  20947635.1234
        49.5004         41.0004
  22987655.6394   -5192922.93049  -4031031.98947                  22987653.0244
        45.7504         30.0004
  23657583.5444   -1285364.43749   -994395.93247                  23657580.7604
        40.7504         28.0004
  20572009.9264   -2844329.50049  -2206893.87948                  20572006.3274
        51.2504         44.0004
  20686083.6044   -2116364.62549  -1642603.70048                  20686079.0424
        52.2504         42.5004
  22245268.8254   -5742277.30549  -4458992.39747                  22245264.4264
        48.7504         35.7504
  21765459.9674     442173.07449    347496.86947                  21765457.5564
        45.7504         36.5004
  22961106.5324    2238976.87149   1742013.92047                  22961104.3614
        46.0004         31.0004
 04  6 30 15 19 30.0000000  0  8G 6G15G16G18G21G22G26G29
  20951191.6284    2750983.64149   2138884.71948                  20951189.1694
        48.7504         42.0004
  22982674.9734   -5219095.01249  -4051425.80047                  22982672.2714
        47.0004         30.5004
  23657374.2794   -1286466.41849   -995254.61347                  23657371.7194
        41.5004         29.2504
  20570095.1044   -2854394.73849  -2214736.91648                  20570090.8574
        51.7504         45.0004
  20684346.3584   -2125493.13349  -1649716.81748                  20684342.0214
        52.7504         43.2504
  22240325.1554   -5768255.87549  -4479235.42447                  22240320.8644
        49.7504         36.2504
  21767221.1334     451428.57849    354708.95447                  21767218.9144
        45.5004         37.5004
  22964271.3124    2255607.21549   1754972.63147                  22964269.5484
        46.5004         31.5004
 04  6 30 15 19 40.0000000  0  8G 6G15G16G18G21G22G26G29
  20954753.7254    2769702.96549   2153471.19848                  20954751.4584
        50.0004         42.0004
  22977693.5884   -5245271.48049  -4071823.04747                  22977691.6184
        45.7504         30.5004
  23657173.3224   -1287521.02049   -996076.37647                  23657170.9154
        41.0004         29.0004
  20568186.4604   -2864422.93749  -2222551.08848                  20568182.0584
        51.5004         45.0004
  20682611.2704   -2134609.81649  -1656820.71848                  20682607.2354
        52.2504         43.0004
  22235387.2404   -5794207.19149  -4499457.22147                  22235382.5534
        49.0004         36.2504
  21768994.4694     460747.65249    361970.57547                  21768992.3714
        45.2504         37.5004
  22967444.7864    2272281.89849   1767965.86747                  22967442.2724
        46.0004         31.0004
 04  6 30 15 19 50.0000000  0  8G 6G15G16G18G21G22G26G29
  20958323.1324    2788460.89849   2168087.76748                  20958321.0704
        51.5004         42.2504
  22972711.1864   -5271454.75849  -4092225.58847                  22972708.6304
        46.0004         30.5004
  23656981.6544   -1288530.68049   -996863.15947                  23656978.5694
        41.2504         29.0004
  20566284.8764   -2874416.42649  -2230338.21848                  20566280.9044
        51.0004         45.0004
  20680878.5104   -2143717.08649  -1663917.30048                  20680874.3964
        52.2504         43.2504
  22230453.0864   -5820133.67249  -4519659.66547                  22230448.9644
        49.2504         37.0004
  21770779.3154     470127.90249    369279.85147                  21770777.6454
        46.2504         38.0004
  22970625.3144    2288998.32849   1780991.66747                  22970623.7204
        46.2504         32.0004
 04  6 30 15 20  0.0000000  0  8G 6G15G16G18G21G22G26G29
  20961900.9344    2807262.64549   2182738.46748                  20961898.2554
        51.2504         42.2504
  22967728.5014   -5297639.50049  -4112629.29847                  22967725.8014
        45.0004         29.7504
  23656798.7954   -1289490.11749   -997610.77947                  23656795.8014
        42.0004         29.0004
  20564390.9454   -2884369.96949  -2238094.23348                  20564386.5154
        51.7504         45.0004
  20679148.4084   -2152809.63749  -1671002.41748                  20679144.0674
        53.0004         43.2504
  22225525.4254   -5846030.02349  -4539838.62547                  22225520.5894
        49.5004         36.0004
  21772577.3704     479574.43049    376640.77747                  21772575.3994
        46.2504         37.5004
  22973815.3984    2305761.87149   1794054.13747                  22973813.7024
        47.0004         31.7504
 04  6 30 15 20 10.0000000  0  8G 6G15G16G18G21G22G26G29
  20965486.4454    2826103.74249   2197419.83248                  20965483.8894
        50.2504         42.2504
  22962744.2344   -5323830.23449  -4133037.63847                  22962742.1594
        43.7504         29.7504
  23656624.8764   -1290403.89549   -998322.83747                  23656622.4004
        41.0004         29.0004
  20562503.3054   -2894288.11749  -2245822.64648                  20562499.3184
        51.5004         44.2504
  20677420.3914   -2161891.94149  -1678079.54448                  20677415.7654
        52.0004         43.5004
  22220602.6644   -5871900.66449  -4559997.55947                  22220598.0104
        47.7504         36.5004
  21774386.5844     489082.91849    384049.98747                  21774384.5414
        44.5004         38.0004
  22977013.5134    2322568.06649   1807149.87647                  22977011.8034
        46.5004         30.7504
 04  6 30 15 20 20.0000000  0  8G 6G15G16G18G21G22G26G29
  20969079.7984    2844985.19549   2212132.65448                  20969076.7904
        50.7504         41.7504
  22957759.4454   -5350025.78549  -4153449.76147                  22957757.2744
        42.0004         30.2504
  23656459.6594   -1291270.95349   -998998.45347                  23656457.3524
        42.0004         29.5004
  20560623.0014   -2904169.72749  -2253522.59048                  20560619.2794
        52.0004         44.5004
  20675693.8734   -2170962.86349  -1685147.77148                  20675689.5124
        51.7504         43.2504
  22215684.5354   -5897744.45749  -4580135.58247                  22215680.0224
        47.7504         36.5004
  21776208.0524     498654.28549    391508.18147                  21776206.1434
        45.2504         37.7504
  22980220.1554    2339417.69549   1820279.45947                  22980217.8284
        46.2504         30.5004
 04  6 30 15 20 30.0000000  0  8G 6G15G16G18G21G22G26G29
  20972680.4544    2863908.12949   2226877.79748                  20972677.9164
        51.2504         41.2504
  22952773.8874   -5376225.08649  -4173864.78947                  22952771.6194
        40.2504         29.5004
  23656304.0424   -1292090.12949   -999636.77347                  23656301.5344
        41.7504         29.5004
  20558749.8594   -2914013.70349  -2261193.22648                  20558746.3114
        52.0004         44.0004
  20673970.1614   -2180021.25449  -1692206.25648                  20673965.7234
        52.7504         42.5004
  22210771.7584   -5923560.32049  -4600251.81147                  22210767.4374
        46.7504         36.0004
  21778041.3754     508289.57449    399016.19947                  21778039.6214
        46.2504         36.7504
  22983434.6244    2356312.01249   1833443.89247                  22983433.0934
        45.7504         30.0004
 04  6 30 15 20 40.0000000  0  8G 6G15G16G18G21G22G26G29
  20976289.6064    2882872.05149   2241654.86848                  20976286.6834
        51.0004         41.7504
  22947787.5244   -5402428.43049  -4194282.96947                  22947785.1244
        42.5004         29.7504
  23656157.1674   -1292861.90249  -1000238.17447                  23656154.4894
        41.5004         29.5004
  20556883.8324   -2923820.37549  -2268834.79248                  20556879.7664
        51.0004         45.0004
  20672248.5144   -2189067.48449  -1699255.27948                  20672244.2544
        52.5004         43.2504
  22205864.3024   -5949348.52049  -4620346.53147                  22205860.2604
        48.7504         36.2504
  21779887.0284     517988.41849    406573.71647                  21779884.6254
        44.7504         37.0004
  22986657.6864    2373250.48449   1846642.65847                  22986655.7134
        46.0004         30.2504
 04  6 30 15 20 50.0000000  0  8G 6G15G16G18G21G22G26G29
  20979905.8334    2901876.76649   2256463.73148                  20979903.2044
        51.0004         41.5004
  22942800.4534   -5428636.06649  -4214704.48847                  22942797.9674
        45.7504         30.5004
  23656019.5754   -1293586.40649  -1000802.73947                  23656017.0804
        41.0004         28.7504
  20555024.5764   -2933590.05549  -2276447.52448                  20555020.3894
        51.7504         45.0004
  20670529.6204   -2198101.58249  -1706294.83848                  20670525.3934
        52.5004         43.7504
  22200961.7844   -5975109.19549  -4640419.76047                  22200958.1584
        49.7504         36.5004
  21781744.5934     527750.68449    414180.69447                  21781742.7734
        46.2504         36.7504
  22989889.4624    2390232.93449   1859875.74547                  22989887.4144
        45.0004         30.0004
 04  6 30 15 21  0.0000000  0  8G 6G15G16G18G21G22G26G29
  20983529.8114    2920920.79749   2271303.23248                  20983526.4444
        52.0004         42.0004
  22937812.7344   -5454849.36749  -4235130.44147                  22937810.3004
        42.2504         30.0004
  23655889.9494   -1294265.20749  -1001331.67247                  23655887.7964
        40.5004         30.0004
  20553172.1744   -2943324.16449  -2284032.54248                  20553168.4184
        50.5004         45.2504
  20668812.5554   -2207125.02049  -1713326.08948                  20668808.2134
        51.2504         43.7504
  22196065.1944   -6000843.85949  -4660472.74247                  22196060.8294
        48.2504         36.7504
  21783614.2534     537574.82049    421835.84947                  21783612.0244
        47.2504         37.5004
  22993129.8774    2407257.78149   1873141.85447                  22993126.7264
        45.5004         30.2504
 04  6 30 15 21 10.0000000  0  8G 6G15G16G18G21G22G26G29
  20987161.3634    2940005.70349   2286174.58148                  20987158.4044
        50.2504         42.0004
  22932823.1244   -5481066.69949  -4255559.51747                  22932820.8984
        41.5004         30.5004
  23655770.0824   -1294896.62549  -1001823.68347                  23655767.1034
        39.5004         29.0004
  20551327.1494   -2953021.17249  -2291588.65748                  20551323.2424
        48.0004         45.0004
  20667097.6064   -2216136.12949  -1720347.73348                  20667093.2554
        49.2504         43.5004
  22191173.1954   -6026550.83249  -4680504.13847                  22191168.4244
        47.7504         37.7504
  21785496.1234     547462.35949    429540.43547                  21785493.6894
        46.7504         37.7504
  22996377.6484    2424326.59449   1886442.20047                  22996375.4334
        46.2504         30.2504
 04  6 30 15 21 20.0000000  0  8G 6G15G16G18G21G22G26G29
  20990801.6794    2959133.52049   2301079.37448                  20990798.3004
        52.0004         41.7504
  22927833.8864   -5507285.93749  -4275990.07747                  22927831.7974
        44.5004         31.0004
  23655659.5974   -1295478.66849  -1002277.24547                  23655656.4164
        41.0004         29.2504
  20549489.2304   -2962678.91449  -2299114.16048                  20549485.3364
        48.5004         45.0004
  20665385.5334   -2225132.77349  -1727358.09848                  20665380.9164
        50.0004         43.0004
  22186287.1144   -6052227.94149  -4700512.26647                  22186282.6234
        49.7504         36.5004
  21787389.8694     557415.34849    437296.01747                  21787387.4174
        46.0004         37.0004
  22999634.1634    2441441.39549   1899778.42547                  22999632.4234
        46.5004         31.5004
 04  6 30 15 21 30.0000000  0  8G 6G15G16G18G21G22G26G29
  20994448.4644    2978298.69949   2316013.27748                  20994445.2544
        51.7504         41.5004
  22922843.0594   -5533512.68049  -4296426.49347                  22922840.7854
        42.0004         29.5004
  23655556.7314   -1296016.93049  -1002696.67347                  23655553.6574
        41.2504         29.5004
  20547657.9044   -2972302.98449  -2306613.43748                  20547653.6944
        50.5004         45.0004
  20663675.4484   -2234120.44949  -1734361.48048                  20663671.2584
        52.0004         43.5004
  22181405.8284   -6077880.78149  -4720501.48047                  22181401.4704
        48.5004         36.5004
  21789295.3394     567428.22749    445098.25047                  21789292.6184
        46.0004         37.2504
  23002898.9634    2458596.59849   1913146.08347                  23002896.4994
        46.7504         31.5004
 04  6 30 15 21 40.0000000  0  8G 6G15G16G18G21G22G26G29
  20998102.9334    2997504.11349   2330978.53448                  20998099.9714
        51.7504         41.5004
  22917851.4284   -5559743.91849  -4316866.40247                  22917849.8454
        41.0004         29.5004
  23655462.8474   -1296508.48449  -1003079.69947                  23655460.4654
        42.2504         29.0004
  20545833.3554   -2981890.49249  -2314084.22548                  20545829.4324
        51.2504         44.7504
  20661967.6614   -2243096.30149  -1741355.66148                  20661963.2084
        52.5004         43.0004
  22176528.9994   -6103506.37549  -4740469.46847                  22176524.2044
        49.5004         35.7504
  21791212.9514     577503.84449    452949.39247                  21791210.1134
        47.2504         36.7504
  23006172.1064    2475795.07849   1926547.49747                  23006170.0764
        46.5004         30.7504
 04  6 30 15 21 50.0000000  0  8G 6G15G16G18G21G22G26G29
  21001765.3464    3016750.54349   2345975.75348                  21001762.1844
        51.0004         41.5004
  22912858.6004   -5585978.81649  -4337309.20347                  22912857.0204
        44.0004         29.2504
  23655378.9884   -1296952.48849  -1003425.70647                  23655376.3604
        42.7504         29.0004
  20544015.8604   -2991440.60249  -2321525.86548                  20544011.9734
        51.7504         45.0004
  20660261.8134   -2252059.52349  -1748339.99848                  20660257.2174
        51.5004         43.5004
  22171658.0414   -6129103.87149  -4760415.56047                  22171653.7454
        49.2504         36.7504
  21793142.2414     587643.09449    460850.11347                  21793139.1564
        46.2504         37.2504
  23009452.8444    2493037.55949   1939983.17347                  23009450.8024
        46.7504         31.5004
 04  6 30 15 22  0.0000000  0  8G 6G15G16G18G21G22G26G29
  21005435.4954    3036036.27749   2361003.57148                  21005432.7174
        50.7504         41.5004
  22907865.4434   -5612218.94149  -4357756.02847                  22907863.8134
        45.5004         30.0004
  23655302.6694   -1297350.62149  -1003735.95247                  23655300.4834
        40.0004         29.2504
  20542205.5484   -3000954.84049  -2328939.56548                  20542201.7274
        50.7504         45.0004
  20658558.2724   -2261011.49649  -1755315.55848                  20658553.9284
        51.5004         43.2504
  22166792.0974   -6154674.80949  -4780340.95947                  22166787.9514
        49.5004         37.7504
  21795083.7654     597844.25449    468799.06047                  21795080.1654
        46.2504         37.0004
  23012741.9864    2510322.44149   1953451.90947                  23012740.1754
        46.5004         31.5004
 04  6 30 15 22 10.0000000  0  8G 6G15G16G18G21G22G26G29
  21009112.7224    3055361.26649   2376062.00048                  21009110.1064
        51.5004         41.2504
  22902871.3434   -5638464.38349  -4378207.00947                  22902869.7964
        43.5004         30.2504
  23655236.1144   -1297703.06649  -1004010.59747                  23655233.4724
        42.0004         28.2504
  20540401.8564   -3010433.34849  -2336325.40248                  20540397.9914
        51.0004         45.2504
  20656856.9144   -2269952.36749  -1762282.46448                  20656852.3474
        51.7504         43.5004
  22161931.7364   -6180219.28549  -4800245.73447                  22161926.9264
        49.7504         37.5004
  21797036.4584     608107.30549    476796.25147                  21797033.1884
        45.0004         37.0004
  23016039.2484    2527649.57049   1966953.56947                  23016037.4374
        47.0004         31.5004
 04  6 30 15 22 20.0000000  0  8G 6G15G16G18G21G22G26G29
  21012797.3934    3074724.91449   2391150.56248                  21012794.8044
        51.0004         42.0004
  22897875.8874   -5664715.59449  -4398662.51347                  22897873.9084
        41.5004         29.2504
  23655177.5794   -1298010.23449  -1004249.92947                  23655175.2054
        42.2504         29.2504
  20538604.8474   -3019876.60949  -2343683.78348                  20538601.1184
        51.2504         45.5004
  20655157.7004   -2278882.61349  -1769241.09648                  20655153.3204
        51.7504         43.5004
  22157075.2074   -6205737.71149  -4820130.21447                  22157071.1474
        49.0004         37.7504
  21799000.9694     618431.51649    484841.09747                  21798998.5304
        45.5004         37.2504
  23019344.5124    2545018.39149   1980487.71747                  23019342.3444
        46.7504         31.2504
 04  6 30 15 22 30.0000000  0  8G 6G15G16G18G21G22G26G29
  21016489.7074    3094129.20349   2406270.78248                  21016487.4154
        50.7504         41.7504
  22892879.5704   -5690970.55549  -4419120.88947                  22892877.6764
        44.0004         30.5004
  23655127.7074   -1298270.20349  -1004452.50047                  23655125.7254
        41.7504         29.0004
  20536815.0124   -3029282.67249  -2351013.17948                  20536811.0924
        52.2504         45.2504
  20653460.5564   -2287800.19549  -1776189.85848                  20653456.3114
        52.0004         43.5004
  22152224.3964   -6231228.08649  -4839992.83547                  22152220.1224
        49.5004         38.0004
  21800977.8484     628819.02049    492935.25447                  21800975.2514
        46.0004         37.7504
  23022658.4364    2562430.82449   1994055.84947                  23022656.1174
        46.2504         31.5004
 04  6 30 15 22 40.0000000  0  8G 6G15G16G18G21G22G26G29
  21020189.4664    3113571.91449   2421420.94448                  21020187.4564
        51.0004         41.5004
  22887882.8074   -5717231.43449  -4439583.91647                  22887880.3004
        45.2504         30.2504
  23655087.2244   -1298485.12549  -1004619.99047                  23655084.6724
        42.5004         28.5004
  20535031.6364   -3038653.82849  -2358315.37048                  20535027.7364
        51.7504         44.7504
  20651765.5254   -2296707.25449  -1783130.42148                  20651761.2634
        51.2504         42.7504
  22147379.2624   -6256692.58649  -4859835.29347                  22147374.4604
        50.0004         38.0004
  21802965.4384     639267.49649    501076.92547                  21802963.7394
        45.0004         37.2504
  23025979.6604    2579884.51649   2007656.10747                  23025977.7194
        46.5004         31.0004
 04  6 30 15 22 50.0000000  0  8G 6G15G16G18G21G22G26G29
  21023896.6804    3133052.51249   2436600.60748                  21023894.8464
        50.7504         41.0004
  22882883.2824   -5743498.65649  -4460051.87747                  22882881.7674
        45.0004         30.5004
  23655054.7484   -1298655.52049  -1004752.77947                  23655051.8664
        41.5004         29.0004
  20533255.1054   -3047990.38349  -2365590.62348                  20533251.1624
        52.0004         44.7504
  20650072.9154   -2305604.12149  -1790063.05648                  20650068.0484
        51.5004         43.0004
  22142537.8964   -6282131.58649  -4879657.87647                  22142534.1754
        50.0004         38.0004
  21804965.3494     649776.54349    509265.78147                  21804963.7244
        45.7504         36.7504
  23029308.4804    2597379.12149   2021288.26047                  23029306.3864
        47.0004         30.7504
 04  6 30 15 23  0.0000000  0  8G 6G15G16G18G21G22G26G29
  21027611.1014    3152572.92249   2451811.29448                  21027609.0434
        50.2504         41.0004
  22877884.3544   -5769770.33649  -4480523.31147                  22877882.7824
        44.0004         30.5004
  23655030.8954   -1298779.56249  -1004849.46847                  23655028.2314
        42.2504         28.0004
  20531485.1334   -3057290.64549  -2372837.58648                  20531481.2224
        51.5004         44.7504
  20648381.7474   -2314488.89149  -1796986.26848                  20648377.2514
        51.7504         43.2504
  22137702.0774   -6307543.23049  -4899459.16047                  22137698.3474
        50.0004         37.2504
  21806976.7754     660347.93449    517503.21147                  21806974.7894
        45.0004         35.7504
  23032645.9204    2614916.40649   2034953.64847                  23032643.9184
        46.2504         30.7504
 04  6 30 15 23 10.0000000  0  8G 6G15G16G18G21G22G26G29
  21031332.7184    3172130.55549   2467051.02548                  21031330.9834
        51.0004         41.2504
  22872883.8444   -5796048.91849  -4501000.09947                  22872881.9384
        45.7504         31.7504
  23655015.7744   -1298859.74649  -1004911.93647                  23655013.2204
        42.0004         28.7504
  20529721.7934   -3066557.00849  -2380058.10948                  20529717.8024
        51.7504         45.2504
  20646692.5864   -2323363.95749  -1803901.88248                  20646688.4694
        51.7504         43.5004
  22132871.4724   -6332929.87149  -4919240.93347                  22132867.3044
        50.0004         38.0004
  21809000.2344     670979.17249    525787.30347                  21808998.1514
        46.2504         36.7504
  23035990.2114    2632493.87149   2048650.39347                  23035988.9924
        46.0004         30.7504
 04  6 30 15 23 20.0000000  0  8G 6G15G16G18G21G22G26G29
  21035061.9214    3191728.16849   2482321.87448                  21035060.5044
        50.7504         41.5004
  22867882.2234   -5822331.52049  -4521480.04147                  22867880.5634
        45.0004         31.0004
  23655009.5414   -1298893.30149  -1004938.10247                  23655007.1304
        44.0004         29.0004
  20527965.2234   -3075786.65249  -2387250.04548                  20527961.6734
        49.5004         45.0004
  20645006.2314   -2332226.58249  -1810807.83048                  20645002.4904
        49.2504         43.0004
  22128045.9014   -6358288.74649  -4939001.09147                  22128041.5534
        50.7504         38.0004
  21811035.0824     681672.98849    534120.13747                  21811032.6914
        43.7504         36.5004
  23039343.5414    2650114.13749   2062380.46347                  23039341.1634
        45.7504         31.2504
 04  6 30 15 23 30.0000000  0  8G 6G15G16G18G21G22G26G29
  21038798.6144    3211363.55549   2497622.17448                  21038796.7174
        51.0004         42.0004
  22862880.2764   -5848620.37549  -4541964.88447                  22862878.0224
        46.2504         31.2504
  23655011.3514   -1298882.50049  -1004929.69547                  23655008.9484
        43.0004         28.5004
  20526215.7234   -3084981.78149  -2394415.07048                  20526211.7844
        48.0004         45.5004
  20643321.8924   -2341078.94949  -1817705.77948                  20643318.1224
        48.0004         43.7504
  22123225.0084   -6383622.02349  -4958741.29847                  22123220.5964
        50.5004         38.0004
  21813081.8844     692427.17649    542500.00747                  21813079.7534
        44.7504         36.5004
  23042704.3394    2667775.01649   2076142.17647                  23042702.5964
        45.7504         31.5004
 04  6 30 15 23 40.0000000  0  8G 6G15G16G18G21G22G26G29
  21042542.8324    3231038.10249   2512952.97148                  21042540.8724
        49.7504         42.0004
  22857876.2764   -5874914.03549  -4562453.41947                  22857874.0684
        45.7504         30.5004
  23655021.8024   -1298825.89149  -1004885.57347                  23655019.3144
        42.0004         29.5004
  20524472.7904   -3094141.05949  -2401552.16548                  20524469.1754
        48.0004         45.2504
  20641639.6894   -2349919.55949  -1824594.57148                  20641635.2484
        48.2504         43.2504
  22118409.3284   -6408928.29749  -4978460.45747                  22118405.0574
        49.7504         38.0004
  21815140.2704     703243.10549    550927.98747                  21815137.7624
        45.0004         36.7504
  23046072.6634    2685477.80149   2089936.54247                  23046071.4294
        46.0004         31.0004
 04  6 30 15 23 50.0000000  0  8G 6G15G16G18G21G22G26G29
  21046294.2884    3250752.53149   2528314.85848                  21046292.8554
        49.7504         41.7504
  22852872.4084   -5901211.61749  -4582945.05647                  22852870.4414
        46.0004         31.5004
  23655042.3884   -1298722.68749  -1004805.20447                  23655039.4204
        42.5004         29.0004
  20522736.8484   -3103263.59449  -2408660.64248                  20522732.7794
        48.0004         45.0004
  20639959.4584   -2358747.50849  -1831473.48048                  20639955.1344
        48.0004         43.0004
  22113599.0114   -6434206.59849  -4998157.82647                  22113594.7504
        50.5004         38.0004
  21817210.0934     714121.50849    559404.67647                  21817208.0134
        45.0004         37.0004
  23049450.0504    2703223.37149   2103764.24747                  23049448.4944
        46.7504         31.2504
 04  6 30 15 24  0.0000000  0  8G 6G15G16G18G21G22G26G29
  21050053.7284    3270508.63349   2543709.21648                  21050052.5474
        50.2504         41.5004
  22847867.4724   -5927511.27349  -4603438.25447                  22847865.1654
        45.7504         30.5004
  23655070.8404   -1298571.07849  -1004687.05447                  23655068.8824
        43.2504         29.2504
  20521008.1224   -3112347.55149  -2415739.04048                  20521004.2454
        48.0004         45.0004
  20638282.3774   -2367561.01249  -1838341.14448                  20638277.7084
        48.2504         43.0004
  22108794.1224   -6459455.05549  -5017831.93647                  22108790.3374
        50.2504         37.7504
  21819292.4304     725064.35249    567931.55447                  21819290.3694
        45.5004         37.0004
  23052835.6594    2721013.53949   2117626.71447                  23052833.3284
        45.2504         30.7504
 04  6 30 15 24 10.0000000  0  8G 6G15G16G18G21G22G26G29
  21053820.7674    3290302.22349   2559132.76448                  21053818.7824
        50.0004         41.2504
  22842861.8274   -5953817.18749  -4623936.39347                  22842859.1974
        46.7504         30.0004
  23655108.1984   -1298375.36349  -1004534.56947                  23655105.2884
        43.2504         28.5004
  20519286.1624   -3121397.21549  -2422790.74148                  20519282.2734
        48.0004         44.5004
  20636607.1564   -2376364.21549  -1845200.80048                  20636602.7694
        48.2504         42.5004
  22103994.6154   -6484677.90249  -5037486.10847                  22103990.3864
        50.0004         37.5004
  21821386.4094     736067.20349    576505.20747                  21821383.9684
        45.0004         36.7504
  23056228.3904    2738843.88349   2131520.48047                  23056226.0944
        45.2504         30.2504
 04  6 30 15 24 20.0000000  0  8G 6G15G16G18G21G22G26G29
  21057593.9644    3310133.28549   2574585.53448                  21057592.5054
        50.5004         42.0004
  22837854.8434   -5980129.29749  -4644439.31247                  22837852.4274
        46.0004         30.5004
  23655153.9824   -1298135.47349  -1004347.66347                  23655151.1464
        43.5004         28.5004
  20517570.5354   -3130412.48449  -2429815.60948                  20517566.7354
        48.2504         45.0004
  20634933.7794   -2385157.01649  -1852052.32948                  20634929.6074
        48.2504         43.2504
  22099199.8074   -6509874.95749  -5057120.15747                  22099195.6714
        50.2504         38.2504
  21823491.1684     747130.21149    585125.73847                  21823488.7354
        45.7504         36.2504
  23059628.8524    2756714.51249   2145445.62947                  23059627.0094
        46.2504         30.7504
 04  6 30 15 24 30.0000000  0  8G 6G15G16G18G21G22G26G29
  21061375.0954    3330004.13349   2590069.29748                  21061373.3384
        50.2504         41.5004
  22832846.5994   -6006445.28149  -4664945.28247                  22832844.5904
        44.5004         30.2504
  23655208.3244   -1297849.10249  -1004124.52447                  23655205.1974
        41.0004         28.7504
  20515861.8654   -3139391.01649  -2436811.86248                  20515857.7534
        50.0004         45.0004
  20633263.1514   -2393937.00449  -1858893.88048                  20633259.2484
        49.7504         43.0004
  22094410.0374   -6535043.95749  -5076732.36147                  22094405.9794
        49.5004         38.0004
  21825608.7304     758255.58649    593794.86447                  21825605.7174
        46.5004         36.2504
  23063037.1704    2774627.63349   2159403.90047                  23063036.0114
        45.7504         30.2504
 04  6 30 15 24 40.0000000  0  8G 6G15G16G18G21G22G26G29
  21065163.5344    3349909.68449   2605580.10748                  21065161.2754
        50.7504         41.5004
  22827837.3404   -6032770.14549  -4685458.14147                  22827835.0344
        45.0004         31.2504
  23655270.5804   -1297521.25049  -1003869.03847                  23655268.2314
        41.2504         29.2504
  20514159.6184   -3148337.92249  -2443783.48548                  20514155.5704
        50.0004         45.7504
  20631594.0994   -2402709.12949  -1865729.30448                  20631589.7554
        51.2504         43.7504
  22089624.9604   -6560189.91049  -5096326.59347                  22089620.7564
        49.7504         38.2504
  21827736.6614     769438.25449    602508.63847                  21827733.8374
        46.0004         36.0004
  23066453.6434    2792578.08649   2173391.27747                  23066451.3014
        45.7504         31.0004
 04  6 30 15 24 50.0000000  0  8G 6G15G16G18G21G22G26G29
  21068958.9974    3369854.28549   2621121.33148                  21068957.0754
        50.2504         42.0004
  22822826.8144   -6059099.43749  -4705974.46247                  22822824.8814
        46.0004         31.0004
  23655342.2024   -1297147.61349  -1003577.92147                  23655339.0214
        42.0004         29.0004
  20512463.9754   -3157248.92649  -2450727.12048                  20512459.9754
        51.5004         45.0004
  20629927.4984   -2411468.71949  -1872554.96848                  20629922.7074
        51.2504         43.0004
  22084845.0514   -6585308.39549  -5115899.44647                  22084840.7264
        50.5004         38.2504
  21829876.0184     780682.66049    611270.50047                  21829873.7384
        45.5004         35.7504
  23069877.3994    2810570.36349   2187411.20647                  23069874.9974
        45.7504         30.7504
 04  6 30 15 25  0.0000000  0  8G 6G15G16G18G21G22G26G29
  21072761.3994    3389835.81649   2636691.35448                  21072759.3224
        51.0004         42.2504
  22817815.6414   -6085435.15649  -4726495.80147                  22817813.2094
        45.7504         31.5004
  23655420.9134   -1296730.26649  -1003252.72947                  23655418.2624
        43.0004         29.2504
  20510774.1154   -3166125.93049  -2457644.26548                  20510770.5634
        51.0004         45.0004
  20628262.1364   -2420217.96149  -1879372.54348                  20628257.3844
        52.2504         43.0004
  22080070.1494   -6610401.40249  -5135452.41447                  22080066.1284
        50.2504         38.0004
  21832027.3924     791986.59849    620078.77347                  21832024.3794
        45.5004         35.2504
  23073309.0254    2828602.35249   2201462.12547                  23073306.6134
        46.5004         31.0004
 04  6 30 15 25 10.0000000  0  8G 6G15G16G18G21G22G26G29
  21076571.2494    3409855.68449   2652291.23748                  21076568.6554
        51.5004         41.7504
  22812802.9784   -6111775.88349  -4747021.02447                  22812800.5694
        46.0004         31.0004
  23655508.9584   -1296267.84849  -1002892.42547                  23655506.3254
        43.0004         28.5004
  20509091.9334   -3174967.62549  -2464533.89548                  20509088.3114
        52.0004         45.0004
  20626599.7304   -2428955.63349  -1886181.12648                  20626594.7494
        52.0004         42.7504
  22075300.1754   -6635467.46149  -5154984.39647                  22075295.8304
        50.2504         37.0004
  21834189.3564     803351.49249    628934.53947                  21834187.5264
        45.0004         35.0004
  23076748.2294    2846675.30149   2215544.92747                  23076745.7704
        46.7504         31.0004
 04  6 30 15 25 20.0000000  0  8G 6G15G16G18G21G22G26G29
  21080387.6484    3429911.73049   2667919.31948                  21080385.3604
        51.5004         41.5004
  22807789.3624   -6138123.56649  -4767551.69947                  22807787.0414
        45.7504         30.7504
  23655605.7394   -1295762.32049  -1002498.51347                  23655603.2044
        42.0004         27.2504
  20507415.7424   -3183775.94149  -2471397.51448                  20507411.7344
        51.0004         45.0004
  20624938.4444   -2437683.64849  -1892982.18448                  20624934.2374
        51.5004         43.0004
  22070534.6744   -6660508.57449  -5174496.94147                  22070530.5314
        50.7504         36.5004
  21836363.4584     814775.30549    637836.21347                  21836361.5384
        44.2504         36.0004
  23080195.0254    2864787.12149   2229658.03947                  23080192.4274
        46.7504         31.5004
 04  6 30 15 25 30.0000000  0  8G 6G15G16G18G21G22G26G29
  21084211.4834    3450004.70749   2683576.16548                  21084209.1304
        51.2504         42.0004
  22802774.4034   -6164477.60949  -4788087.30447                  22802772.2734
        46.0004         31.5004
  23655709.9694   -1295213.15649  -1002070.61047                  23655707.5294
        41.0004         27.7504
  20505746.1054   -3192550.30549  -2478234.68648                  20505742.0534
        51.5004         45.0004
  20623279.6994   -2446401.34449  -1899775.19648                  20623275.0714
        52.0004         43.7504
  22065774.8074   -6685524.02349  -5193989.49747                  22065770.4844
        50.0004         37.0004
  21838548.7064     826258.67649    646784.28547                  21838546.5854
        44.5004         35.2504
  23083649.2994    2882938.46549   2243801.92747                  23083647.0574
        46.5004         32.0004
 04  6 30 15 25 40.0000000  0  8G 6G15G16G18G21G22G26G29
  21088041.5854    3470132.54349   2699260.19148                  21088039.2174
        51.7504         42.0004
  22797757.8074   -6190839.84049  -4808629.29247                  22797755.9904
        45.7504         31.0004
  23655821.9954   -1294622.34849  -1001610.24047                  23655819.3284
        41.2504         27.7504
  20504082.2774   -3201292.68449  -2485046.91448                  20504078.8814
        51.0004         45.2504
  20621622.1844   -2455110.50049  -1906561.55048                  20621618.1944
        52.2504         43.0004
  22061018.9194   -6710515.77049  -5213463.56947                  22061014.7244
        50.7504         38.0004
  21840744.8144     837799.48049    655777.11147                  21840742.9664
        44.7504         35.5004
  23087109.9694    2901127.32849   2257975.06547                  23087108.0124
        46.7504         32.2504
 04  6 30 15 25 50.0000000  0  8G 6G15G16G18G21G22G26G29
  21091878.4394    3490296.35949   2714972.25648                  21091876.3224
        51.5004         42.7504
  22792740.1034   -6217209.12949  -4829176.79247                  22792737.8494
        46.2504         31.2504
  23655943.3684   -1293988.71949  -1001116.50847                  23655940.4924
        42.5004         28.2504
  20502425.0264   -3210001.84449  -2491833.28948                  20502421.1854
        51.5004         45.5004
  20619966.8264   -2463810.03949  -1913340.41448                  20619962.4324
        51.2504         43.5004
  22056268.1754   -6735482.64549  -5232918.27847                  22056263.7644
        51.0004         38.0004
  21842952.4934     849398.90249    664815.61847                  21842950.2204
        44.2504         37.0004
  23090578.3414    2919354.76249   2272178.26547                  23090576.9874
        47.5004         31.7504
 04  6 30 15 26  0.0000000  0  8G 6G15G16G18G21G22G26G29
  21095722.5614    3510498.41449   2730714.10248                  21095720.5254
        51.2504         42.5004
  22787721.1834   -6243583.14149  -4849727.94847                  22787719.1484
        46.0004         31.2504
  23656071.9454   -1293309.97349  -1000587.65247                  23656068.9904
        42.0004         27.0004
  20500774.8324   -3218675.56649  -2498592.02548                  20500770.7564
        51.7504         45.0004
  20618313.5344   -2472497.50049  -1920109.87148                  20618309.1664
        51.2504         43.2504
  22051522.2164   -6760422.26649  -5252351.74447                  22051517.8454
        51.0004         38.2504
  21845171.3414     861059.12549    673901.50247                  21845169.4034
        45.7504         37.0004
  23094054.8924    2937623.03149   2286413.26847                  23094053.3704
        46.2504         31.5004
 04  6 30 15 26 10.0000000  0  8G 6G15G16G18G21G22G26G29
  21099574.9144    3530740.44149   2746487.09048                  21099572.5124
        51.5004         42.7504
  22782702.3264   -6269960.07849  -4870281.42047                  22782699.6244
        46.0004         32.0004
  23656210.3194   -1292584.45349  -1000022.35447                  23656206.9014
        40.2504         28.2504
  20499131.2524   -3227312.16849  -2505321.84848                  20499127.1754
        51.5004         45.5004
  20616663.1754   -2481171.14149  -1926868.55548                  20616658.8944
        51.0004         43.5004
  22046781.7984   -6785332.79349  -5271762.53547                  22046777.1544
        51.0004         38.0004
  21847402.1794     872781.98449    683036.18547                  21847399.9884
        45.7504         36.7504
  23097539.2834    2955933.83249   2300681.41647                  23097537.2704
        46.2504         30.2504
 04  6 30 15 26 20.0000000  0  8G 6G15G16G18G21G22G26G29
  21103433.6294    3551018.63349   2762288.28048                  21103431.1544
        51.5004         42.2504
  22777680.8804   -6296343.58649  -4890840.00047                  22777679.1904
        46.0004         31.5004
  23656356.7234   -1291815.84449   -999423.42247                  23656353.9424
        40.0004         27.2504
  20497493.9034   -3235915.27749  -2512025.56448                  20497489.5754
        51.5004         45.5004
  20615014.5314   -2489834.58249  -1933619.28248                  20615010.0354
        51.0004         43.0004
  22042046.2324   -6810217.94949  -5291153.54847                  22042041.5814
        51.0004         38.2504
  21849644.3664     884563.77049    692216.78447                  21849642.6374
        46.2504         37.5004
  23101031.1774    2974283.41449   2314979.78247                  23101028.7194
        46.7504         31.0004
 04  6 30 15 26 30.0000000  0  8G 6G15G16G18G21G22G26G29
  21107299.9154    3571334.12549   2778118.52948                  21107297.6434
        51.5004         41.7504
  22772659.4014   -6322732.60249  -4911402.85747                  22772657.2254
        46.2504         31.7504
  23656511.0094   -1291003.09449   -998790.09547                  23656508.4104
        40.5004         28.0004
  20495863.3404   -3244483.77749  -2518702.31448                  20495859.7914
        51.0004         44.7504
  20613368.0234   -2498486.71549  -1940361.19148                  20613363.4714
        51.5004         42.5004
  22037315.7904   -6835076.63349  -5310523.93447                  22037311.7114
        50.7504         38.0004
  21851897.8444     896405.36349    701444.00147                  21851895.9784
        45.5004         37.5004
  23104530.5244    2992672.78149   2329309.14647                  23104528.0554
        46.5004         30.0004
 04  6 30 15 26 40.0000000  0  8G 6G15G16G18G21G22G26G29
  21111172.7114    3591689.77049   2793980.06448                  21111170.4994
        51.2504         41.5004
  22767637.0654   -6349124.08249  -4931967.63847                  22767634.7884
        47.0004         31.2504
  23656674.8584   -1290143.26249   -998120.10947                  23656671.6874
        41.7504         27.7504
  20494240.4144   -3253014.73849  -2525349.81648                  20494236.1574
        51.2504         44.7504
  20611724.1364   -2507124.43749  -1947091.90548                  20611720.3844
        51.0004         42.5004
  22032590.9754   -6859905.86749  -5329871.38847                  22032586.8414
        51.0004         38.0004
  21854163.5514     908309.82049    710720.19747                  21854161.1284
        46.0004         37.2504
  23108037.7044    3011104.85949   2343671.81247                  23108035.8104
        47.2504         30.0004
 04  6 30 15 26 50.0000000  0  8G 6G15G16G18G21G22G26G29
  21115052.8404    3612078.98449   2809867.75948                  21115050.3214
        50.7504         41.5004
  22762613.3744   -6375524.62549  -4952539.49347                  22762611.2814
        46.2504         31.5004
  23656846.1394   -1289243.07049   -997418.67747                  23656842.7954
        41.7504         29.0004
  20492622.5194   -3261514.77749  -2531973.22948                  20492618.6834
        50.7504         45.2504
  20610081.9644   -2515754.37949  -1953816.52648                  20610077.6754
        50.5004         43.0004
  22027871.0064   -6884712.17649  -5349200.97747                  22027865.7414
        51.0004         38.2504
  21856439.2324     920270.40649    720040.13047                  21856436.6074
        45.5004         37.5004
  23111552.3534    3029572.92249   2358062.48847                  23111550.2604
        47.0004         31.2504
 04  6 30 15 27  0.0000000  0  8G 6G15G16G18G21G22G26G29
  21118939.8484    3632505.20749   2825784.29348                  21118937.6984
        51.2504         41.0004
  22757588.8554   -6401930.71149  -4973115.65447                  22757586.2144
        47.0004         31.7504
  23657025.6134   -1288298.95749   -996683.02847                  23657022.5934
        40.5004         29.7504
  20491011.2724   -3269980.41049  -2538569.81548                  20491007.6314
        50.7504         45.2504
  20608441.9584   -2524373.05149  -1960532.37048                  20608437.8574
        50.5004         43.0004
  22023155.1884   -6909491.99649  -5368509.91147                  22023150.5494
        51.2504         38.5004
  21858726.2774     932290.63349    729406.54247                  21858724.0454
        45.7504         37.2504
  23115074.2804    3048080.53549   2372484.02147                  23115072.2704
        47.2504         30.7504
 04  6 30 15 27 10.0000000  0  8G 6G15G16G18G21G22G26G29
  21122833.2314    3652965.71549   2841727.52848                  21122830.1934
        50.7504         41.5004
  22752561.7394   -6428344.94949  -4993698.17647                  22752559.5554
        45.2504         32.2504
  23657212.9454   -1287313.65249   -995915.25447                  23657210.0174
        40.2504         28.7504
  20489406.6134   -3278414.33649  -2545141.71348                  20489402.8944
        49.5004         45.2504
  20606803.6224   -2532982.87549  -1967241.33748                  20606799.2324
        50.0004         43.0004
  22018444.4294   -6934248.03549  -5387800.34147                  22018439.7014
        50.2504         38.2504
  21861024.8094     944367.75849    738817.28647                  21861022.3274
        45.5004         37.5004
  23118603.1364    3066624.91449   2386934.17147                  23118601.4294
        46.5004         30.5004
 04  6 30 15 27 20.0000000  0  8G 6G15G16G18G21G22G26G29
  21126733.4264    3673462.47749   2857699.03748                  21126731.2534
        51.0004         41.2504
  22747534.4314   -6454765.27349  -5014285.43947                  22747532.1024
        46.0004         31.2504
  23657409.2454   -1286285.08649   -995113.78747                  23657405.8444
        42.5004         28.0004
  20487808.1304   -3286814.51649  -2551687.30148                  20487804.1074
        48.2504         45.5004
  20605167.0604   -2541581.87949  -1973941.84248                  20605162.7144
        49.0004         43.2504
  22013738.2724   -6958978.16849  -5407070.55047                  22013733.1774
        50.7504         38.2504
  21863333.3214     956503.96949    748274.06447                  21863331.7214
        45.2504         36.7504
  23122139.9444    3085208.01649   2401414.51547                  23122137.2364
        46.7504         29.7504
 04  6 30 15 27 30.0000000  0  8G 6G15G16G18G21G22G26G29
  21130640.7684    3693995.60549   2873698.86448                  21130638.6344
        51.0004         40.5004
  22742505.7454   -6481191.61749  -5034877.40947                  22742503.1044
        45.2504         31.0004
  23657612.8894   -1285213.20349   -994278.58247                  23657609.6934
        41.0004         28.0004
  20486215.9824   -3295180.85549  -2558206.52948                  20486212.3554
        48.0004         45.0004
  20603532.9874   -2550169.94149  -1980633.84948                  20603528.7334
        48.0004         43.0004
  22009037.5084   -6983682.26649  -5426320.49247                  22009032.6604
        50.7504         38.0004
  21865654.4774     968699.04349    757776.72247                  21865652.2424
        46.5004         35.7504
  23125682.9444    3103829.91849   2415925.08547                  23125681.1044
        46.2504         29.7504
 04  6 30 15 27 40.0000000  0  8G 6G15G16G18G21G22G26G29
  21134555.3124    3714566.24649   2889727.92548                  21134552.9974
        51.0004         40.5004
  22737475.7084   -6507622.56649  -5055472.95947                  22737473.7834
        45.0004         31.0004
  23657825.6094   -1284096.79749   -993408.66947                  23657821.9124
        40.2504         28.2504
  20484630.8654   -3303512.16849  -2564698.47348                  20484626.5194
        47.7504         45.0004
  20601900.9234   -2558745.84449  -1987316.37348                  20601896.6264
        48.0004         43.0004
  22004341.3934   -7008359.03949  -5445549.16247                  22004336.4194
        51.2504         38.2504
  21867986.5004     980954.39549    767326.33547                  21867983.9534
        45.2504         35.5004
  23129234.2754    3122491.81649   2430466.81847                  23129231.7194
        46.5004         30.0004
 04  6 30 15 27 50.0000000  0  8G 6G15G16G18G21G22G26G29
  21138476.6044    3735172.67649   2905784.86848                  21138474.2714
        50.2504         40.2504
  22732445.2564   -6534060.01649  -5076073.55647                  22732443.1544
        46.2504         30.2504
  23658046.2524   -1282937.67649   -992505.47047                  23658043.2134
        41.0004         27.5004
  20483051.7694   -3311810.11349  -2571164.39948                  20483047.9984
        48.0004         44.5004
  20600271.3094   -2567311.33249  -1993990.78548                  20600267.4084
        47.7504         42.2504
  21999650.3974   -7033010.21549  -5464757.85347                  21999645.8664
        51.0004         37.7504
  21870330.0594     993268.12949    776921.46147                  21870327.6284
        46.0004         35.0004
  23132793.0264    3141191.82449   2445038.24247                  23132790.6124
        46.5004         30.0004
 04  6 30 15 28  0.0000000  0  8G 6G15G16G18G21G22G26G29
  21142404.7094    3755814.35949   2921869.30348                  21142402.4424
        50.2504         41.0004
  22727412.6684   -6560504.38749  -5096679.54947                  22727410.4694
        46.0004         31.2504
  23658274.5334   -1281736.38349   -991569.40047                  23658271.9304
        42.0004         28.0004
  20481479.0254   -3320075.30949  -2577604.80148                  20481474.8984
        48.0004         45.2504
  20598643.0434   -2575866.76249  -2000657.34848                  20598639.0754
        47.7504         43.0004
  21994964.0864   -7057636.34449  -5483947.03247                  21994959.9754
        50.7504         37.7504
  21872683.9394    1005639.66449    786561.62547                  21872682.0224
        44.7504         35.2504
  23136358.8934    3159929.47749   2459639.02747                  23136356.4774
        46.7504         31.0004
 04  6 30 15 28 10.0000000  0  8G 6G15G16G18G21G22G26G29
  21146340.0064    3776492.81349   2937982.36948                  21146337.2904
        50.2504         40.7504
  22722379.9454   -6586953.98449  -5117289.63347                  22722377.2164
        46.5004         31.0004
  23658511.5484   -1280491.32849   -990599.27347                  23658508.5414
        40.7504         28.5004
  20479912.1524   -3328306.13749  -2584018.42948                  20479908.0934
        48.0004         45.0004
  20597017.5264   -2584410.42649  -2007314.74648                  20597013.3114
        48.0004         43.2504
  21990283.2384   -7082235.70749  -5503115.35847                  21990278.4424
        50.5004         37.7504
  21875049.2784    1018070.58249    796248.04647                  21875047.2654
        47.2504         35.0004
  23139931.6604    3178706.23449   2474270.24947                  23139929.1254
        47.0004         30.2504
 04  6 30 15 28 20.0000000  0  8G 6G15G16G18G21G22G26G29
  21150281.8214    3797210.13349   2954125.73748                  21150279.3154
        50.0004         41.0004
  22717345.7134   -6613406.64149  -5137902.07847                  22717343.3004
        45.5004         31.5004
  23658757.2304   -1279200.41049   -989593.34347                  23658754.3924
        40.2504         29.2504
  20478353.2854   -3336500.39849  -2590403.56848                  20478349.0564
        48.5004         45.5004
  20595394.1254   -2592940.16049  -2013961.29148                  20595389.6474
        48.2504         43.7504
  21985607.6364   -7106806.07449  -5522261.09347                  21985602.8374
        50.5004         38.0004
  21877426.6344    1030563.04749    805982.43947                  21877423.7814
        47.2504         36.0004
  23143512.5654    3197524.31349   2488933.69647                  23143510.0574
        46.7504         31.0004
 04  6 30 15 28 30.0000000  0  8G 6G15G16G18G21G22G26G29
  21154230.9304    3817961.70349   2970295.77748                  21154228.4234
        49.5004         40.7504
  22712310.7854   -6639866.88749  -5158520.46547                  22712308.3264
        45.7504         30.5004
  23659010.4614   -1277868.27349   -988555.33047                  23659007.5624
        40.5004         28.0004
  20476800.1924   -3344662.71949  -2596763.81248                  20476795.9884
        50.7504         45.0004
  20593772.6734   -2601460.52049  -2020600.53848                  20593768.5374
        50.0004         43.5004
  21980936.5964   -7131352.14149  -5541387.88747                  21980931.6244
        50.5004         37.7504
  21879814.8074    1043112.42249    815761.17347                  21879812.1834
        47.5004         36.0004
  23147100.4634    3216378.89149   2503625.57847                  23147097.7204
        46.7504         30.5004
 04  6 30 15 28 40.0000000  0  8G 6G15G16G18G21G22G26G29
  21158187.1864    3838751.87549   2986495.90948                  21158185.4224
        49.5004         40.5004
  22707274.8184   -6666330.32449  -5179141.29747                  22707272.5994
        45.0004         30.5004
  23659273.0934   -1276490.44149   -987481.69847                  23659269.8044
        40.7504         29.5004
  20475253.7334   -3352788.64549  -2603095.70748                  20475250.0284
        51.2504         45.2504
  20592154.1524   -2609967.05949  -2027229.00548                  20592149.6554
        51.0004         43.7504
  21976270.9304   -7155869.35249  -5560492.19747                  21976266.1464
        50.2504         37.5004
  21882214.8184    1055723.02349    825587.62847                  21882212.3884
        46.0004         36.5004
  23150696.1744    3235274.42249   2518349.35247                  23150693.8234
        46.5004         30.5004
 04  6 30 15 28 50.0000000  0  8G 6G15G16G18G21G22G26G29
  21162150.5944    3859580.29349   3002725.84548                  21162148.2994
        49.0004         40.7504
  22702238.1594   -6692797.29349  -5199764.90847                  22702235.8214
        45.0004         30.5004
  23659543.5994   -1275067.38749   -986372.82947                  23659540.9494
        40.0004         29.2504
  20473714.6404   -3360878.61749  -2609399.57948                  20473710.1274
        51.5004         45.0004
  20590537.7504   -2618460.13749  -2033846.98148                  20590533.7694
        50.0004         43.0004
  21971610.7124   -7180358.06249  -5579574.30347                  21971606.2904
        50.2504         37.7504
  21884626.5044    1068394.54349    835461.52847                  21884623.8074
        47.0004         36.5004
  23154299.7134    3254210.44949   2533104.70647                  23154297.4124
        46.7504         29.5004
 04  6 30 15 29  0.0000000  0  8G 6G15G16G18G21G22G26G29
  21166120.9054    3880442.87149   3018982.38648                  21166118.3554
        48.5004         40.2504
  22697200.4084   -6719271.75849  -5220394.37647                  22697198.2774
        45.5004         30.0004
  23659822.3604   -1273603.09049   -985231.84847                  23659820.1074
        41.0004         28.0004
  20472180.8474   -3368936.68449  -2615678.60048                  20472177.1834
        51.5004         44.5004
  20588923.2424   -2626943.60949  -2040457.49748                  20588918.9544
        50.0004         42.5004
  21966955.7344   -7204822.15649  -5598637.24547                  21966950.5994
        49.5004         37.7504
  21887048.1294    1081122.77049    845379.61347                  21887045.9654
        46.7504         36.2504
  23157910.3924    3273182.94149   2547888.46647                  23157907.3414
        46.0004         29.2504
 04  6 30 15 29 10.0000000  0  8G 6G15G16G18G21G22G26G29
  21170097.1664    3901339.16849   3035265.21048                  21170094.9934
        48.2504         40.5004
  22692161.1244   -6745754.03549  -5241029.90447                  22692158.4964
        45.0004         30.5004
  23660108.8674   -1272098.03149   -984059.09547                  23660106.0974
        39.7504         29.5004
  20470653.5464   -3376963.32849  -2621933.12148                  20470649.4714
        51.5004         45.0004
  20587310.9534   -2635417.89549  -2047060.83348                  20587306.8814
        49.7504         43.0004
  21962304.8994   -7229262.14849  -5617681.38147                  21962300.2024
        50.0004         37.5004
  21889481.0524    1093907.29749    855341.59147                  21889478.7494
        47.7504         37.0004
  23161527.1054    3292191.48849   2562700.29147                  23161524.8374
        46.5004         29.2504
 04  6 30 15 29 20.0000000  0  8G 6G15G16G18G21G22G26G29
  21174079.6784    3922269.04349   3051574.20148                  21174077.6104
        49.0004         41.0004
  22687120.0954   -6772244.10549  -5261671.52247                  22687117.8694
        44.7504         31.0004
  23660402.2384   -1270552.27049   -982854.59947                  23660400.2924
        39.2504         29.2504
  20469132.0004   -3384958.43449  -2628163.07748                  20469128.8544
        51.2504         44.7504
  20585700.5144   -2643882.94949  -2053656.97948                  20585696.4164
        50.7504         43.0004
  21957658.0484   -7253678.01249  -5636706.71747                  21957654.0294
        50.5004         37.7504
  21891924.6894    1106748.15249    865347.45247                  21891922.4954
        48.2504         37.0004
  23165151.0604    3311235.84849   2577540.05947                  23165149.0754
        45.5004         30.5004
 04  6 30 15 29 30.0000000  0  8G 6G15G16G18G21G22G26G29
  21178069.9094    3943235.88749   3067911.99748                  21178068.3164
        49.0004         41.2504
  22682078.3794   -6798738.65649  -5282316.61647                  22682076.2994
        43.7504         31.7504
  23660705.3234   -1268962.46149   -981615.80947                  23660703.0164
        40.2504         29.0004
  20467617.0214   -3392918.69549  -2634365.87348                  20467613.4484
        51.5004         45.0004
  20584091.5024   -2652335.27049  -2060243.20048                  20584087.6064
        50.2504         43.7504
  21953017.1834   -7278066.36749  -5655710.61147                  21953013.0414
        50.0004         38.0004
  21894379.5124    1119648.57449    875399.72447                  21894377.3904
        47.2504         37.5004
  23168782.9194    3330319.38749   2592410.34547                  23168780.2344
        46.0004         30.2504
 04  6 30 15 29 40.0000000  0  8G 6G15G16G18G21G22G26G29
  21182066.4084    3964238.06649   3084277.30848                  21182064.4834
        48.7504         41.2504
  22677035.2554   -6825239.26249  -5302966.44947                  22677033.3464
        43.5004         31.5004
  23661015.8874   -1267330.25849   -980343.95647                  23661013.7654
        40.2504         29.7504
  20466108.6994   -3400845.72749  -2640542.78548                  20466105.0204
        51.0004         45.2504
  20582485.4674   -2660776.48849  -2066820.78548                  20582481.3244
        50.2504         43.7504
  21948381.5394   -7302428.69149  -5674694.24447                  21948377.3904
        49.5004         38.0004
  21896845.4614    1132606.85249    885497.06347                  21896843.2694
        46.7504         37.2504
  23172421.2414    3349440.47349   2607309.89847                  23172418.9714
        46.7504         29.7504
 04  6 30 15 29 50.0000000  0  8G 6G15G16G18G21G22G26G29
  21186069.6184    3985276.41849   3100670.82548                  21186067.9824
        47.0004         41.5004
  22671990.9204   -6851744.94549  -5323620.22047                  22671989.3764
        43.2504         31.0004
  23661334.5024   -1265654.75849   -979038.38847                  23661332.6904
        40.5004         29.7504
  20464606.6384   -3408738.69149  -2646693.14348                  20464603.0194
        51.5004         45.0004
  20580881.2364   -2669205.66849  -2073388.97748                  20580877.1144
        48.7504         43.2504
  21943750.6614   -7326764.07849  -5693656.87747                  21943745.8604
        50.2504         38.0004
  21899322.2954    1145624.02349    895640.31747                  21899320.8764
        47.5004         37.0004
  23176067.1034    3368599.89849   2622239.31447                  23176064.9134
        46.7504         30.2504
 04  6 30 15 30  0.0000000  0  8G 6G15G16G18G21G22G26G29
  21190079.8314    4006348.16449   3117090.37148                  21190077.7574
        47.2504         41.5004
  22666946.2964   -6878258.43449  -5344280.07347                  22666944.1944
        44.0004         31.5004
  23661661.5754   -1263938.76649   -977701.24447                  23661659.6734
        39.5004         29.7504
  20463110.6824   -3416600.23449  -2652819.01848                  20463106.9584
        52.0004         45.0004
  20579278.8614   -2677625.65249  -2079950.00148                  20579274.3384
        49.2504         42.7504
  21939124.2904   -7351075.27049  -5712600.66147                  21939119.9654
        50.2504         38.0004
  21901809.8974    1158697.11749    905827.13747                  21901808.2254
        48.0004         37.0004
  23179719.9564    3387794.87149   2637196.43647                  23179717.8264
        47.0004         30.5004
 04  6 30 15 30 10.0000000  0  8G 6G15G16G18G21G22G26G29
  21194096.7304    4027456.88749   3133538.70548                  21194094.5244
        48.0004         41.2504
  22661899.5704   -6904775.97749  -5364943.08547                  22661898.1504
        44.5004         30.5004
  23661996.0404   -1262178.60349   -976329.74847                  23661993.9754
        41.0004         30.5004
  20461621.4344   -3424426.66049  -2658917.52848                  20461617.5184
        51.5004         44.7504
  20577679.4934   -2686032.53549  -2086500.82948                  20577675.2064
        50.7504         43.2504
  21934503.3914   -7375358.54749  -5731522.67347                  21934499.0374
        50.2504         37.0004
  21904309.2614    1171829.87149    916060.43747                  21904307.4524
        46.7504         36.7504
  23183379.9134    3407029.02349   2652184.09347                  23183378.2174
        47.0004         30.7504
 04  6 30 15 30 20.0000000  0  8G 6G15G16G18G21G22G26G29
  21198120.1094    4048600.96949   3150014.59548                  21198118.0404
        47.2504         41.5004
  22656852.6814   -6931299.19549  -5385610.54147                  22656850.7644
        44.7504         31.7504
  23662338.4774   -1260376.02349   -974925.11947                  23662337.2064
        39.5004         28.2504
  20460138.5634   -3432219.68449  -2664990.01948                  20460134.8394
        50.0004         45.0004
  20576081.7224   -2694427.76249  -2093042.55948                  20576077.3544
        49.7504         43.7504
  21929887.1264   -7399615.53549  -5750424.21147                  21929883.0594
        50.0004         37.5004
  21906818.9074    1185020.62149    926338.94047                  21906817.3664
        47.2504         36.5004
  23187047.3394    3426300.73449   2667201.00247                  23187044.9234
        46.7504         29.7504
 04  6 30 15 30 30.0000000  0  8G 6G15G16G18G21G22G26G29
  21202150.2384    4069778.06349   3166516.21948                  21202148.1964
        48.7504         41.2504
  22651804.1654   -6957830.32849  -5406284.12947                  22651802.4724
        44.7504         32.5004
  23662690.0684   -1258533.28149   -973489.20847                  23662688.1154
        40.7504         29.2504
  20458661.2364   -3439981.66049  -2671038.31248                  20458657.9124
        48.2504         45.2504
  20574485.8664   -2702813.85549  -2099577.17148                  20574481.6904
        48.5004         43.0004
  21925275.2414   -7423848.47749  -5769307.01747                  21925271.3634
        50.0004         37.7504
  21909339.7694    1198266.90649    936660.71247                  21909338.1574
        48.0004         36.5004
  23190720.7544    3445607.54749   2682245.26647                  23190718.7954
        46.0004         30.0004
 04  6 30 15 30 40.0000000  0  8G 6G15G16G18G21G22G26G29
  21206186.6214    4090989.59049   3183044.66948                  21206184.3634
        47.7504         41.2504
  22646753.5214   -6984367.92649  -5426962.76847                  22646752.1784
        45.2504         32.0004
  23663048.9584   -1256648.97349   -972020.92947                  23663046.1614
        39.7504         29.0004
  20457190.5894   -3447711.04349  -2677061.20048                  20457186.7614
        47.7504         45.0004
  20572891.8684   -2711189.27749  -2106103.48348                  20572888.0874
        47.7504         43.5004
  21920669.4794   -7448055.85249  -5788169.89647                  21920665.1104
        50.0004         37.7504
  21911871.4434    1211570.30149    947026.98447                  21911869.4364
        47.2504         35.5004
  23194401.9374    3464950.95749   2697318.03947                  23194399.7724
        46.0004         29.0004
 04  6 30 15 30 50.0000000  0  8G 6G15G16G18G21G22G26G29
  21210229.5094    4112233.16449   3199598.09048                  21210227.0544
        49.0004         41.7504
  22641702.5614   -7010914.32049  -5447648.26147                  22641700.5394
        45.5004         32.7504
  23663414.8054   -1254725.48849   -970522.13347                  23663412.7814
        41.7504         29.5004
  20455725.3434   -3455410.28149  -2683060.61648                  20455721.5614
        50.0004         45.2504
  20571299.6964   -2719556.36349  -2112623.29748                  20571295.6064
        49.0004         43.5004
  21916067.7194   -7472240.06649  -5807014.74947                  21916063.2724
        50.0004         38.5004
  21914412.9584    1224928.23849    957435.76347                  21914411.1074
        48.0004         36.5004
  23198089.2334    3484328.41449   2712417.34547                  23198087.3854
        46.0004         29.5004
 04  6 30 15 31  0.0000000  0  8G 6G15G16G18G21G22G26G29
  21214278.3494    4133511.50049   3216178.59348                  21214276.1104
        49.5004         42.0004
  22636650.3234   -7037466.62949  -5468338.39247                  22636648.0974
        44.7504         32.2504
  23663788.7264   -1252760.03549   -968990.60047                  23663786.3804
        40.0004         29.0004
  20454266.2494   -3463076.62549  -2689034.39448                  20454262.6024
        51.2504         45.0004
  20569709.7914   -2727911.99249  -2119134.18548                  20569705.3824
        50.0004         43.0004
  21911470.3934   -7496398.19549  -5825839.25547                  21911465.8784
        50.2504         38.7504
  21916965.7694    1238343.57849    967889.27347                  21916963.5324
        47.0004         36.0004
  23201784.0654    3503742.74249   2727545.36647                  23201781.8434
        45.7504         29.0004
 04  6 30 15 31 10.0000000  0  8G 6G15G16G18G21G22G26G29
  21218334.1054    4154822.82449   3232784.82048                  21218331.7894
        48.5004         41.7504
  22631595.5574   -7064026.55149  -5489034.41747                  22631593.7034
        45.2504         31.5004
  23664170.5804   -1250754.35549   -967427.78247                  23664168.1904
        41.7504         29.5004
  20452813.7554   -3470711.73849  -2694983.82848                  20452809.7164
        51.0004         44.7504
  20568121.9114   -2736258.12149  -2125637.65548                  20568117.6464
        50.5004         43.0004
  21906877.5834   -7520531.95749  -5844644.76147                  21906873.7064
        50.5004         38.5004
  21919529.7814    1251814.55149    978386.13347                  21919527.0224
        48.5004         35.7504
  23205485.6984    3523192.19149   2742700.76847                  23205482.8774
        45.2504         29.0004
 04  6 30 15 31 20.0000000  0  8G 6G15G16G18G21G22G26G29
  21222395.9004    4176168.70749   3249417.97448                  21222393.6874
        47.5004         41.7504
  22626540.3434   -7090592.53549  -5509735.17347                  22626538.2794
        45.0004         32.0004
  23664559.8694   -1248707.05949   -965832.48647                  23664557.9334
        40.5004         29.2504
  20451366.8274   -3478314.04349  -2700907.69948                  20451362.9704
        51.0004         45.0004
  20566535.4774   -2744593.14849  -2132132.47248                  20566531.5354
        49.7504         43.2504
  21902289.7774   -7544639.75849  -5863430.05447                  21902285.9684
        51.0004         38.2504
  21922104.0034    1265342.60949    988927.47647                  21922101.3874
        48.0004         35.5004
  23209193.0734    3542678.12149   2757884.61647                  23209191.0624
        46.0004         29.7504
 04  6 30 15 31 30.0000000  0  8G 6G15G16G18G21G22G26G29
  21226463.9984    4197547.95349   3266077.11548                  21226461.9844
        49.0004         40.5004
  22621483.4334   -7117165.54749  -5530441.41047                  22621481.5054
        44.7504         31.7504
  23664957.4004   -1246619.19949   -964205.58847                  23664955.3194
        39.2504         28.5004
  20449926.0544   -3485884.69949  -2706806.92248                  20449922.1114
        50.7504         44.2504
  20564951.4544   -2752917.92249  -2138619.31348                  20564947.4714
        50.0004         42.7504
  21897707.5724   -7568722.64549  -5882195.94247                  21897703.3254
        50.0004         37.2504
  21924689.2414    1278926.55949    999512.37647                  21924686.0794
        48.2504         35.2504
  23212908.1054    3562199.46149   2773096.03947                  23212906.1304
        45.5004         30.0004
 04  6 30 15 31 40.0000000  0  8G 6G15G16G18G21G22G26G29
  21230539.2394    4218962.60249   3282763.85448                  21230537.0004
        49.2504         41.2504
  22616425.8364   -7143743.55549  -5551151.53947                  22616424.1814
        45.2504         32.5004
  23665362.2184   -1244488.71149   -962545.45047                  23665360.6484
        41.0004         29.7504
  20448491.8524   -3493421.61749  -2712679.83748                  20448488.0754
        51.2504         45.5004
  20563369.3714   -2761230.46949  -2145096.61948                  20563365.7744
        50.0004         43.5004
  21893129.5604   -7592778.52749  -5900940.78747                  21893125.2444
        50.5004         38.5004
  21927284.7954    1292568.50849   1010142.46547                  21927282.0024
        47.7504         36.0004
  23216629.6624    3581758.22749   2788336.63047                  23216628.2774
        46.5004         29.2504
 04  6 30 15 31 50.0000000  0  8G 6G15G16G18G21G22G26G29
  21234620.6874    4240411.02749   3299476.89948                  21234618.1104
        49.7504         41.0004
  22611366.9164   -7170328.02349  -5571866.70147                  22611365.3514
        43.2504         32.0004
  23665776.2224   -1242317.10549   -960853.30647                  23665773.8954
        41.2504         28.5004
  20447063.8974   -3500926.31249  -2718527.65348                  20447060.2994
        51.0004         44.7504
  20561789.7194   -2769532.20749  -2151565.51348                  20561785.6804
        50.2504         43.5004
  21888556.9164   -7616808.97749  -5919665.79447                  21888552.4724
        50.7504         38.7504
  21929891.9874    1306266.87149   1020816.52447                  21929889.4004
        48.0004         36.5004
  23220358.5084    3601352.87949   2803605.18347                  23220356.6184
        45.5004         29.7504
 04  6 30 15 32  0.0000000  0  8G 6G15G16G18G21G22G26G29
  21238708.4534    4261892.03949   3316215.34048                  21238706.1544
        48.7504         41.7504
  22606307.0404   -7196920.19949  -5592587.88947                  22606304.5684
        44.0004         33.2504
  23666196.8784   -1240105.78549   -959130.23347                  23666194.6104
        41.5004         29.0004
  20445641.5694   -3508400.10949  -2724351.39448                  20445638.0654
        51.5004         45.2504
  20560211.8114   -2777823.93749  -2158026.61248                  20560207.6984
        50.2504         43.5004
  21883989.0134   -7640815.16449  -5938371.91747                  21883984.4004
        50.7504         38.5004
  21932508.9674    1320020.39549   1031533.55647                  21932506.6964
        48.2504         37.0004
  23224093.8634    3620982.04349   2818900.59747                  23224091.9264
        45.7504         30.5004
 04  6 30 15 32 10.0000000  0  8G 6G15G16G18G21G22G26G29
  21242802.2154    4283405.40249   3332978.99648                  21242799.9014
        50.2504         41.2504
  22601245.3284   -7223520.15249  -5613315.11247                  22601242.8754
        44.5004         33.2504
  23666625.0354   -1237854.77349   -957376.19547                  23666622.5814
        39.5004         29.2504
  20444225.3304   -3515843.19549  -2730151.19348                  20444221.9744
        50.2504         45.0004
  20558636.1644   -2786106.19949  -2164480.33048                  20558631.6704
        51.0004         43.2504
  21879425.1204   -7664797.13749  -5957059.16547                  21879420.5114
        50.7504         38.2504
  21935136.4244    1333828.87549   1042293.40747                  21935134.1224
        48.5004         37.0004
  23227835.9274    3640645.49649   2834222.76947                  23227833.8524
        45.5004         29.7504
 04  6 30 15 32 20.0000000  0  8G 6G15G16G18G21G22G26G29
  21246901.6974    4304949.76249   3349766.79948                  21246899.6464
        49.5004         41.2504
  22596181.6794   -7250129.15649  -5634049.39947                  22596179.2544
        43.7504         32.7504
  23667060.5084   -1235565.56249   -955592.39747                  23667058.0724
        39.5004         29.7504
  20442814.3414   -3523256.87549  -2735928.08848                  20442811.1354
        50.2504         45.0004
  20557061.5034   -2794380.37149  -2170927.72748                  20557057.0074
        51.2504         43.0004
  21874865.7404   -7688756.29749  -5975728.62847                  21874861.1644
        50.2504         38.2504
  21937774.2954    1347690.80149   1053094.89247                  21937772.3764
        47.5004         37.0004
  23231584.0144    3660341.92249   2849570.63347                  23231581.9074
        45.7504         29.2504
 04  6 30 15 32 30.0000000  0  8G 6G15G16G18G21G22G26G29
  21251008.1014    4326527.85949   3366580.88448                  21251005.4204
        48.5004         40.5004
  22591116.9944   -7276744.38749  -5654788.53447                  22591114.8644
        45.0004         32.5004
  23667504.1164   -1233235.37549   -953776.68347                  23667501.4574
        41.0004         29.2504
  20441409.9224   -3530638.32049  -2741679.87148                  20441406.4554
        51.2504         45.0004
  20555488.9674   -2802643.59049  -2177366.60748                  20555484.5694
        50.2504         43.0004
  21870311.2734   -7712689.71549  -5994378.05047                  21870306.6974
        50.2504         38.2504
  21940422.9144    1361609.03949   1063940.25547                  21940421.1774
        47.7504         37.0004
  23235339.4254    3680074.02749   2864946.25247                  23235337.1024
        45.5004         28.2504
 04  6 30 15 32 40.0000000  0  8G 6G15G16G18G21G22G26G29
  21255121.4944    4348145.57049   3383425.85748                  21255119.4114
        49.5004         40.5004
  22586052.1344   -7303359.90249  -5675527.87747                  22586050.3364
        45.5004         32.2504
  23667957.1734   -1230858.25449   -951924.38447                  23667954.2554
        41.0004         29.2504
  20440012.4904   -3537981.66449  -2747401.94048                  20440009.0504
        51.0004         44.5004
  20553919.6414   -2810889.70749  -2183792.13948                  20553915.7514
        51.0004         42.5004
  21865762.9704   -7736591.44549  -6013002.75247                  21865758.8064
        50.7504         38.2504
  21943083.2934    1375589.52049   1074834.15147                  21943081.0824
        48.5004         36.0004
  23239101.8224    3699847.59049   2880354.22847                  23239100.0524
        45.2504         28.7504
 04  6 30 15 32 50.0000000  0  8G 6G15G16G18G21G22G26G29
  21259241.4844    4369794.94549   3400295.48048                  21259239.2644
        48.7504         40.5004
  22580985.8664   -7329983.57049  -5696273.60047                  22580983.6384
        44.2504         33.5004
  23668416.2294   -1228442.30949   -950041.84947                  23668414.1864
        40.7504         29.2504
  20438620.6534   -3545294.80549  -2753100.50048                  20438617.3864
        51.0004         44.7504
  20552352.0854   -2819126.66849  -2190210.56248                  20552348.5584
        50.2504         43.2504
  21861219.4754   -7760469.46149  -6031608.99947                  21861214.7794
        50.5004         38.5004
  21945753.9784    1389624.12949   1085770.20047                  21945752.3034
        48.0004         36.5004
  23242870.6474    3719654.81649   2895788.42747                  23242869.0984
        44.7504         29.2504
 04  6 30 15 33  0.0000000  0  8G 6G15G16G18G21G22G26G29
  21263367.5974    4391476.84849   3417190.46848                  21263364.8914
        50.0004         40.5004
  22575917.7494   -7356614.50449  -5717024.96547                  22575915.7334
        45.2504         32.7504
  23668883.6234   -1225986.66049   -948128.37147                  23668881.1194
        40.0004         29.2504
  20437235.2254   -3552576.84849  -2758774.82048                  20437231.4644
        50.0004         44.7504
  20550786.5644   -2827353.44549  -2196621.04348                  20550782.6664
        51.7504         43.5004
  21856680.1904   -7784322.74249  -6050195.96847                  21856675.7474
        50.5004         39.0004
  21948435.0584    1403713.77349   1096749.13647                  21948433.5864
        48.0004         36.5004
  23246646.5114    3739496.34849   2911249.35447                  23246644.6864
        45.2504         28.7504
 04  6 30 15 33 10.0000000  0  8G 6G15G16G18G21G22G26G29
  21267500.0884    4413192.70349   3434111.90548                  21267497.4684
        50.0004         40.2504
  22570849.5504   -7383251.14849  -5737780.78947                  22570847.1954
        43.2504         33.0004
  23669359.6954   -1223489.73449   -946182.71447                  23669356.7134
        41.0004         30.0004
  20435855.4324   -3559826.30149  -2764423.73248                  20435851.8044
        50.0004         45.5004
  20549223.1964   -2835568.55149  -2203022.42448                  20549219.4024
        52.2504         43.5004
  21852145.7984   -7808149.77349  -6068762.47347                  21852141.1054
        50.2504         38.7504
  21951127.2354    1417859.92249   1107772.09947                  21951125.2944
        48.2504         36.5004
  23250428.9304    3759373.64849   2926738.17047                  23250426.9674
        45.5004         29.2504
 04  6 30 15 33 20.0000000  0  8G 6G15G16G18G21G22G26G29
  21271637.9664    4434938.95749   3451057.02148                  21271635.9244
        50.2504         40.2504
  22565778.3704   -7409896.92249  -5758543.72747                  22565776.4634
        45.5004         32.7504
  23669840.8104   -1220955.05949   -944207.65747                  23669838.3804
        40.7504         29.2504
  20434481.3824   -3567046.64549  -2770049.98248                  20434477.3934
        50.2504         45.0004
  20547661.6924   -2843775.50049  -2209417.45748                  20547657.4474
        52.0004         43.0004
  21847615.8924   -7831954.04349  -6087311.25347                  21847611.2904
        50.2504         38.5004
  21953828.9634    1432059.08649   1118836.36147                  21953827.2654
        48.5004         36.5004
  23254217.5234    3779283.30149   2942252.15247                  23254216.1064
        45.0004         29.2504
 04  6 30 15 33 30.0000000  0  8G 6G15G16G18G21G22G26G29
  21275782.4284    4456719.96549   3468029.23848                  21275780.5304
        51.0004         40.0004
  22560707.5024   -7436547.43749  -5779310.35047                  22560704.9964
        44.7504         33.2504
  23670331.5834   -1218378.28549   -942199.81147                  23670329.0794
        42.5004         29.5004
  20433113.7764   -3574233.56249  -2775650.17048                  20433110.0694
        51.5004         44.7504
  20546102.6374   -2851969.78549  -2215802.61248                  20546098.5734
        51.5004         43.0004
  21843091.5464   -7855731.14849  -6105838.85647                  21843086.8584
        50.5004         38.0004
  21956542.2034    1446315.44549   1129945.21547                  21956540.1214
        47.5004         36.2504
  23258013.0224    3799229.55949   2957794.70347                  23258011.3984
        45.0004         30.0004
 04  6 30 15 33 40.0000000  0  8G 6G15G16G18G21G22G26G29
  21279933.8114    4478533.76249   3485026.97448                  21279931.9084
        50.2504         40.5004
  22555634.5554   -7463204.53549  -5800082.12047                  22555632.5894
        44.0004         33.0004
  23670829.9024   -1215761.35249   -940160.64547                  23670827.1694
        42.5004         28.7504
  20431752.1474   -3581388.93749  -2781225.79448                  20431748.4924
        50.7504         45.0004
  20544544.7964   -2860153.23849  -2222179.33848                  20544540.3084
        52.0004         43.0004
  21838571.6244   -7879482.96549  -6124346.76347                  21838567.2114
        50.2504         38.7504
  21959265.4414    1460627.19149   1141097.21647                  21959263.4484
        48.2504         36.0004
  23261815.0814    3819210.43049   2973364.18547                  23261813.7944
        45.0004         28.7504
 04  6 30 15 33 50.0000000  0  8G 6G15G16G18G21G22G26G29
  21284090.4004    4500378.33249   3502048.71748                  21284088.4344
        50.5004         39.7504
  22550560.1814   -7489870.10549  -5820860.46847                  22550558.2074
        42.0004         32.5004
  23671335.2364   -1213106.25849   -938091.76347                  23671332.6814
        41.5004         28.5004
  20430396.0944   -3588514.75449  -2786778.38548                  20430392.5274
        50.0004         44.5004
  20542989.3734   -2868327.65249  -2228549.00848                  20542985.7424
        52.0004         42.7504
  21834056.2794   -7903211.38349  -6142836.42347                  21834051.7404
        50.7504         38.2504
  21961999.2964    1474992.29749   1152290.79947                  21961996.9884
        48.5004         35.7504
  23265623.7034    3839223.96549   2988959.10547                  23265621.8814
        45.0004         28.5004
 04  6 30 15 34  0.0000000  0  8G 6G15G16G18G21G22G26G29
  21288253.3544    4522255.62149   3519095.93348                  21288251.9264
        50.7504         40.0004
  22545484.6084   -7516542.28549  -5841643.99047                  22545482.7504
        43.7504         32.5004
  23671848.4924   -1210411.21549   -935991.74447                  23671845.4494
        42.5004         29.7504
  20429046.4664   -3595609.14549  -2792306.48148                  20429042.9124
        51.2504         44.7504
  20541436.0434   -2876491.21149  -2234910.22448                  20541431.9214
        52.0004         43.0004
  21829545.5224   -7926914.44949  -6161306.34847                  21829540.8344
        50.0004         38.5004
  21964743.3374    1489412.50449   1163527.32347                  21964741.2174
        48.5004         35.5004
  23269439.2204    3859271.94549   3004580.93847                  23269436.8104
        44.5004         29.0004
 04  6 30 15 34 10.0000000  0  8G 6G15G16G18G21G22G26G29
  21292422.8734    4544164.75849   3536167.99048                  21292420.8134
        49.2504         39.7504
  22540407.6634   -7543221.68449  -5862433.12447                  22540405.4634
        45.0004         33.2504
  23672368.2604   -1207676.92249   -933861.13747                  23672365.5994
        42.2504         29.0004
  20427702.3294   -3602672.83249  -2797810.65248                  20427698.3194
        50.7504         44.7504
  20539884.3944   -2884644.55549  -2241263.48048                  20539880.0344
        51.5004         43.2504
  21825039.7294   -7950592.91049  -6179757.08347                  21825034.6284
        50.7504         38.5004
  21967497.6864    1503887.10549   1174806.22647                  21967495.3134
        47.5004         36.0004
  23273260.4364    3879353.55549   3020228.93647                  23273258.5194
        45.5004         30.0004
 04  6 30 15 34 20.0000000  0  8G 6G15G16G18G21G22G26G29
  21296598.6944    4566109.23049   3553267.56748                  21296596.7944
        49.0004         40.0004
  22535330.1624   -7569904.78549  -5883225.15547                  22535328.2724
        43.2504         33.7504
  23672896.3264   -1204899.92249   -931697.26947                  23672893.6224
        41.7504         28.7504
  20426364.2134   -3609702.30549  -2803288.15248                  20426360.6414
        50.7504         44.7504
  20538335.6034   -2892784.22749  -2247606.07848                  20538331.3814
        51.2504         43.0004
  21820539.3894   -7974243.21149  -6198185.87647                  21820535.0454
        50.7504         37.7504
  21970263.2224    1518419.55549   1186130.21147                  21970260.7054
        48.5004         35.2504
  23277088.7404    3899472.24249   3035905.81547                  23277087.1754
        45.5004         30.2504
 04  6 30 15 34 30.0000000  0  8G 6G15G16G18G21G22G26G29
  21300781.0344    4588086.96149   3570393.06148                  21300778.9984
        48.5004         39.7504
  22530251.7354   -7596593.67649  -5904021.68447                  22530249.7614
        42.5004         32.7504
  23673432.4654   -1202082.32449   -929501.73747                  23673430.1104
        42.5004         29.0004
  20425033.0584   -3616699.66049  -2808740.64648                  20425029.0714
        50.0004         45.2504
  20536788.7484   -2900912.10549  -2253939.49448                  20536784.6754
        51.0004         43.2504
  21816043.4964   -7997867.39549  -6216594.33447                  21816039.1534
        50.2504         38.7504
  21973039.4114    1533007.66449   1197497.57147                  21973036.9154
        49.0004         36.0004
  23280924.1884    3919625.88749   3051609.93447                  23280922.4094
        45.2504         30.5004
 04  6 30 15 34 40.0000000  0  8G 6G15G16G18G21G22G26G29
  21304969.0264    4610095.67649   3587542.69448                  21304967.0844
        48.7504         39.5004
  22525171.5704   -7623290.38349  -5924824.31847                  22525169.1464
        43.0004         33.0004
  23673976.5704   -1199226.38749   -927276.34847                  23673973.4184
        43.0004         28.0004
  20423706.9304   -3623667.14549  -2814169.86048                  20423703.2014
        50.2504         45.0004
  20535244.0324   -2909030.39549  -2260265.44948                  20535239.9544
        52.0004         43.0004
  21811552.4294   -8021467.66049  -6234984.15047                  21811548.0104
        50.5004         38.7504
  21975825.3024    1547649.30949   1208906.64447                  21975822.9514
        49.5004         36.7504
  23284766.0564    3939812.28149   3067339.58347                  23284764.0034
        46.0004         30.2504
 04  6 30 15 34 50.0000000  0  8G 6G15G16G18G21G22G26G29
  21309163.1234    4632136.55549   3604717.39447                  21309161.0934
        48.7504         39.0004
  22520089.5234   -7649993.69149  -5945632.06647                  22520087.8934
        44.0004         33.5004
  23674527.2174   -1196330.83249   -925020.08547                  23674524.3674
        40.5004         27.7504
  20422387.1614   -3630603.43049  -2819574.75748                  20422383.0524
        50.0004         44.5004
  20533701.2814   -2917137.79749  -2266582.90348                  20533697.6484
        51.0004         42.5004
  21807066.7804   -8045042.68749  -6253354.29747                  21807061.3864
        50.2504         38.0004
  21978621.9344    1562345.60249   1220358.30947                  21978619.6444
        49.0004         35.5004
  23288613.2664    3960032.57449   3083095.62547                  23288611.3254
        45.5004         30.7504
 04  6 30 15 35  0.0000000  0  8G 6G15G16G18G21G22G26G29
  21313363.7324    4654208.44549   3621916.26147                  21313361.1574
        48.5004         39.2504
  22515007.2664   -7676704.69549  -5966445.83847                  22515004.6174
        43.0004         33.0004
  23675085.3274   -1193396.90649   -922733.92447                  23675082.6284
        40.2504         28.0004
  20421072.6054   -3637509.69149  -2824956.25648                  20421068.7284
        49.5004         44.7504
  20532160.2344   -2925235.42649  -2272892.74048                  20532156.1554
        51.2504         42.5004
  21802584.9424   -8068593.59449  -6271705.63247                  21802580.0784
        50.7504         38.2504
  21981428.7854    1577095.35949   1231851.62847                  21981426.0474
        48.7504         35.7504
  23292467.3374    3980285.50049   3098877.13247                  23292465.2434
        45.5004         31.0004
 04  6 30 15 35 10.0000000  0  8G 6G15G16G18G21G22G26G29
  21317569.9084    4676313.14149   3639140.67647                  21317567.8004
        47.5004         38.5004
  22509922.9924   -7703421.62949  -5987264.22547                  22509920.9094
        45.0004         31.7504
  23675651.4424   -1190422.85549   -920416.50347                  23675649.0304
        41.5004         25.7504
  20419764.4764   -3644384.12549  -2830312.95748                  20419761.0754
        50.5004         43.7504
  20530621.6734   -2933321.31249  -2279193.44648                  20530617.8694
        51.0004         42.2504
  21798108.2244   -8092118.53549  -6290036.75547                  21798103.8244
        50.7504         38.5004
  21984245.8284    1591900.35549   1243387.97747                  21984243.5114
        48.2504         34.7504
  23296327.9814    4000572.84449   3114685.43147                  23296325.6554
        45.5004         30.0004
 04  6 30 15 35 20.0000000  0  8G 6G15G16G18G21G22G26G29
  21321782.1304    4698449.55949   3656389.83048                  21321779.9044
        48.0004         39.7504
  22504837.2964   -7730145.36749  -6008087.90447                  22504835.5274
        44.0004         33.5004
  23676224.6984   -1187409.61349   -918068.53447                  23676222.0094
        42.0004         27.5004
  20418462.3954   -3651227.77749  -2835645.67648                  20418458.5144
        51.0004         45.0004
  20529085.2044   -2941396.47749  -2285485.77448                  20529081.1544
        51.0004         43.0004
  21793636.5554   -8115618.42649  -6308348.35248                  21793631.7904
        50.7504         39.5004
  21987073.2064    1606759.54349   1254966.56847                  21987071.1434
        48.2504         36.2504
  23300194.9014    4020893.66049   3130519.82447                  23300193.0084
        45.7504         31.2504
 04  6 30 15 35 30.0000000  0  8G 6G15G16G18G21G22G26G29
  21326001.2204    4720619.66049   3673665.22648                  21325998.9494
        48.2504         39.7504
  22499751.0514   -7756873.83649  -6028915.27347                  22499748.9544
        44.2504         34.2504
  23676805.9694   -1184355.21949   -915688.51247                  23676802.7314
        41.2504         26.7504
  20417166.2514   -3658038.63349  -2840952.83848                  20417162.2854
        51.0004         45.0004
  20527550.9204   -2949458.82049  -2291768.12748                  20527546.4514
        50.7504         43.0004
  21789169.8964   -8139091.22749  -6326638.84847                  21789165.2604
        51.0004         38.7504
  21989912.0744    1621674.94149   1266588.93547                  21989909.7194
        48.7504         36.0004
  23304069.0094    4041249.72349   3146381.67547                  23304066.9604
        45.2504         30.2504
 04  6 30 15 35 40.0000000  0  8G 6G15G16G18G21G22G26G29
  21330226.5524    4742822.01249   3690965.75048                  21330224.4464
        47.5004         40.2504
  22494663.4694   -7783608.42249  -6049747.42247                  22494661.5974
        44.5004         34.0004
  23677394.6014   -1181261.19949   -913277.57747                  23677392.1174
        41.2504         27.0004
  20415876.2464   -3664818.08249  -2846235.52648                  20415872.2984
        50.7504         45.0004
  20526018.7264   -2957509.69549  -2298041.52848                  20526014.5204
        51.0004         43.2504
  21784707.9414   -8162538.35949  -6344909.32447                  21784703.8194
        51.0004         39.0004
  21992760.4234    1636645.03149   1278253.96547                  21992758.0284
        48.5004         36.2504
  23307948.4964    4061639.71949   3162269.99047                  23307946.7494
        45.2504         30.0004
 04  6 30 15 35 50.0000000  0  8G 6G15G16G18G21G22G26G29
  21334456.9814    4765054.46549   3708289.72648                  21334455.0974
        48.2504         40.0004
  22489574.9374   -7810351.18749  -6070585.93147                  22489572.5534
        44.7504         33.7504
  23677990.6394   -1178129.61749   -910837.38647                  23677987.8844
        39.5004         27.2504
  20414591.8944   -3671568.36749  -2851495.49048                  20414588.0754
        50.0004         45.0004
  20524488.4244   -2965551.08249  -2304307.55448                  20524484.2634
        51.0004         43.2504
  21780250.5374   -8185961.89549  -6363161.42147                  21780245.9954
        50.7504         39.0004
  21995619.1044    1651667.69549   1289959.92247                  21995617.0144
        48.5004         36.0004
  23311834.6704    4082061.44949   3178183.01047                  23311833.2224
        45.0004         30.0004
 04  6 30 15 36  0.0000000  0  8G 6G15G16G18G21G22G26G29
  21338693.7124    4787318.80549   3725638.56448                  21338691.4204
        47.5004         39.7504
  22484484.8264   -7837100.35549  -6091429.42047                  22484482.5994
        43.0004         33.5004
  23678594.3734   -1174958.75849   -908366.60347                  23678590.8424
        40.0004         26.7504
  20413312.9114   -3678287.58649  -2856731.22748                  20413309.5264
        50.0004         44.5004
  20522960.3694   -2973581.18749  -2310564.76848                  20522956.3084
        50.0004         43.0004
  21775798.0884   -8209359.95349  -6381393.66347                  21775793.6624
        51.0004         38.7504
  21998488.4134    1666744.61749   1301708.16447                  21998486.8534
        48.5004         36.0004
  23315727.0614    4102516.66849   3194122.12647                  23315725.3154
        45.0004         29.7504
 04  6 30 15 36 10.0000000  0  8G 6G15G16G18G21G22G26G29
  21342936.7454    4809614.01249   3743011.44348                  21342934.1344
        48.0004         40.2504
  22479393.2454   -7863856.71149  -6112278.52647                  22479390.9004
        44.0004         34.0004
  23679205.2774   -1171749.60949   -905866.00147                  23679201.6014
        40.5004         26.0004
  20412040.1754   -3684976.70749  -2861943.53848                  20412036.3744
        50.5004         44.7504
  20521434.5564   -2981600.90249  -2316813.90648                  20521430.3004
        50.7504         43.2504
  21771350.3954   -8232733.46149  -6399606.78847                  21771345.6394
        50.5004         39.2504
  22001367.3124    1681874.85249   1313497.94847                  22001366.1994
        48.0004         35.7504
  23319625.9634    4123004.32849   3210086.53147                  23319624.2804
        45.5004         29.2504
 04  6 30 15 36 20.0000000  0  8G 6G15G16G18G21G22G26G29
  21347186.0494    4831944.61749   3760411.90248                  21347183.7684
        49.0004         39.5004
  22474301.2734   -7890615.68749  -6133129.66047                  22474299.0794
        46.0004         33.5004
  23679823.6134   -1168497.60549   -903332.00347                  23679820.7824
        39.5004         26.5004
  20410773.8244   -3691631.14549  -2867128.81848                  20410770.0434
        50.7504         44.2504
  20519911.2834   -2989605.64549  -2323051.37548                  20519907.0994
        51.7504         43.0004
  21766907.8694   -8256077.82049  -6417797.18547                  21766903.5874
        51.0004         38.7504
  22004257.6544    1697062.94149   1325332.81747                  22004255.6804
        48.0004         36.0004
  23323531.1964    4143528.95349   3226079.73347                  23323529.3774
        45.5004         29.7504
 04  6 30 15 36 30.0000000  0  8G 6G15G16G18G21G22G26G29
  21351441.0284    4854305.35549   3777835.84148                  21351439.3864
        47.7504         40.0004
  22469207.5644   -7917382.51249  -6153986.92247                  22469205.2834
        45.2504         33.7504
  23680450.1914   -1165207.99649   -900768.67446                  23680446.6614
        41.5004         24.7504
  20409513.2954   -3698256.14149  -2872291.15448                  20409509.4544
        50.5004         44.7504
  20518389.8544   -2997600.56249  -2329281.18548                  20518385.5194
        50.7504         43.0004
  21762470.2334   -8279398.26249  -6435968.95747                  21762465.2924
        51.0004         38.7504
  22007158.1384    1712303.53149   1337208.58747                  22007156.2584
        49.0004         36.2504
  23327443.2774    4164085.19549   3242097.58747                  23327441.1164
        45.0004         30.2504
 04  6 30 15 36 40.0000000  0  8G 6G15G16G18G21G22G26G29
  21355702.9744    4876701.00049   3795286.98648                  21355700.6234
        46.2504         40.2504
  22464113.1884   -7944152.15249  -6174846.39147                  22464111.3054
        44.0004         34.5004
  23681083.2384   -1161875.89849   -898172.26646                  23681080.9424
        40.0004         25.5004
  20408259.0514   -3704846.87149  -2877426.78848                  20408255.4664
        50.0004         44.7504
  20516870.9824   -3005580.69949  -2335499.46448                  20516866.6244
        50.5004         43.0004
  21758038.0134   -8302689.83249  -6454118.22647                  21758033.8824
        51.0004         39.2504
  22010069.2094    1727601.48049   1349129.06547                  22010066.8714
        48.5004         35.5004
  23331362.3264    4184678.04349   3258143.93947                  23331359.9934
        45.7504         30.0004
 04  6 30 15 36 50.0000000  0  8G 6G15G16G18G21G22G26G29
  21359970.2104    4899125.91049   3812760.92248                  21359968.2004
        48.0004         41.0004
  22459018.0014   -7970930.39849  -6195712.53547                  22459015.2904
        44.2504         34.5004
  23681723.8794   -1158507.15249   -895547.25446                  23681721.3924
        39.5004         25.2504
  20407010.2384   -3711408.96549  -2882540.11148                  20407006.3324
        51.2504         45.0004
  20515354.6724   -3013551.73849  -2341710.67348                  20515350.0694
        50.2504         43.5004
  21753610.0064   -8325958.18749  -6472249.41148                  21753605.4964
        50.7504         39.7504
  22012990.3624    1742951.01249   1361089.72847                  22012987.6474
        48.5004         36.0004
  23335286.4494    4205301.58249   3274214.21647                  23335284.8804
        46.0004         30.0004
 04  6 30 15 37  0.0000000  0  8G 6G15G16G18G21G22G26G29
  21364243.3354    4921580.71549   3830258.17848                  21364240.6494
        47.2504         40.5004
  22453920.8054   -7997716.40249  -6216584.75047                  22453918.2784
        44.0004         34.2504
  23682372.1164   -1155101.03149   -892893.17246                  23682369.6484
        38.7504         25.2504
  20405767.0204   -3717941.83249  -2887630.65248                  20405763.7714
        50.2504         44.5004
  20513839.4094   -3021512.88749  -2347914.15648                  20513835.2804
        49.7504         43.0004
  21749186.8684   -8349202.60249  -6490361.91747                  21749182.7294
        50.2504         39.0004
  22015921.0094    1758352.87949   1373091.18247                  22015918.7014
        48.7504         35.5004
  23339217.3964    4225956.54749   3290308.98147                  23339215.4254
        46.2504         31.0004
 04  6 30 15 37 10.0000000  0  8G 6G15G16G18G21G22G26G29
  21368521.8784    4944064.59049   3847778.07048                  21368519.6154
        48.2504         40.5004
  22448821.7234   -8024511.01649  -6237463.65347                  22448819.5144
        43.0004         34.0004
  23683027.5214   -1151658.48849   -890210.68846                  23683025.3104
        39.5004         25.0004
  20404529.1464   -3724446.30149  -2892699.07648                  20404525.2994
        49.5004         45.0004
  20512326.3294   -3029464.96949  -2354110.59248                  20512322.2774
        51.0004         43.0004
  21744767.9714   -8372423.89149  -6508456.42447                  21744763.3254
        50.7504         38.7504
  22018861.5834    1773806.03149   1385132.59747                  22018859.4624
        48.7504         35.2504
  23343153.4054    4246641.91449   3306427.43647                  23343151.5664
        46.0004         30.0004
 04  6 30 15 37 20.0000000  0  8G 6G15G16G18G21G22G26G29
  21372805.9624    4966580.48849   3865322.92348                  21372803.9234
        47.5004         39.5004
  22443721.6604   -8051311.06249  -6258346.78647                  22443719.3764
        45.0004         34.0004
  23683690.1064   -1148176.30549   -887497.30946                  23683687.9684
        39.5004         24.7504
  20403297.5514   -3730919.14549  -2897742.84748                  20403293.7054
        50.7504         44.5004
  20510815.1244   -3037404.70349  -2360297.40148                  20510811.4554
        50.5004         43.0004
  21740353.9304   -8395618.87949  -6526530.43447                  21740349.5524
        51.0004         39.2504
  22021812.4504    1789313.67249   1397216.46547                  22021809.9664
        49.0004         35.7504
  23347096.0174    4267360.84049   3322572.04247                  23347094.2174
        46.2504         30.7504
 04  6 30 15 37 30.0000000  0  8G 6G15G16G18G21G22G26G29
  21377096.8924    4989127.27049   3882891.83048                  21377094.4484
        46.5004         39.5004
  22438620.5354   -8078117.65649  -6279235.04747                  22438618.4624
        43.5004         33.0004
  23684360.0274   -1144655.73849   -884754.00046                  23684358.0054
        39.5004         25.5004
  20402071.5514   -3737361.66849  -2902762.99648                  20402067.9094
        51.0004         44.2504
  20509306.7904   -3045333.20349  -2366475.46248                  20509302.7414
        50.5004         43.0004
  21735944.9164   -8418788.65249  -6544584.79547                  21735940.3514
        50.2504         39.0004
  22024773.7014    1804874.59449   1409341.85347                  22024771.2124
        49.2504         35.5004
  23351044.9734    4288112.09449   3338741.85547                  23351043.2764
        46.0004         29.5004
 04  6 30 15 37 40.0000000  0  8G 6G15G16G18G21G22G26G29
  21381393.9684    5011707.24649   3900486.60748                  21381391.6164
        47.0004         40.0004
  22433518.9434   -8104928.41049  -6300126.54047                  22433516.8744
        43.5004         33.5004
  23685038.0234   -1141094.47749   -881979.01147                  23685035.9634
        39.0004         26.5004
  20400851.9994   -3743771.44549  -2907757.63948                  20400848.0534
        50.2504         44.5004
  20507800.4384   -3053248.15249  -2372642.95448                  20507795.9894
        51.0004         43.0004
  21731541.2154   -8441930.92249  -6562617.73347                  21731536.4944
        50.5004         39.0004
  22027745.2804    1820490.97749   1421510.45947                  22027742.9984
        48.5004         35.0004
  23355000.5014    4308897.95749   3354938.62147                  23354998.5814
        46.0004         29.2504
 04  6 30 15 37 50.0000000  0  8G 6G15G16G18G21G22G26G29
  21385695.7604    5034313.35949   3918101.76248                  21385693.5274
        47.7504         40.0004
  22428414.1994   -8131750.19549  -6321026.62047                  22428412.3854
        43.0004         34.0004
  23685721.5104   -1137499.52749   -879177.77147                  23685719.7484
        40.7504         26.7504
  20399637.1404   -3750155.45349  -2912732.19448                  20399633.6384
        50.2504         44.5004
  20506295.7594   -3061156.41849  -2378805.24648                  20506291.1964
        49.7504         43.2504
  21727141.0184   -8465052.53949  -6580634.56348                  21727136.7324
        51.5004         39.5004
  22030726.3564    1836155.85949   1433716.85147                  22030723.7354
        48.5004         35.0004
  23358960.9634    4329711.42649   3371156.88947                  23358958.9574
        46.0004         29.2504
 04  6 30 15 38  0.0000000  0  8G 6G15G16G18G21G22G26G29
  21390003.3784    5056951.38349   3935741.76548                  21390001.3734
        47.7504         40.0004
  22423309.5254   -8158577.21549  -6341930.79047                  22423307.2894
        43.2504         34.5004
  23686413.9404   -1133865.10949   -876345.74547                  23686411.7494
        39.5004         27.2504
  20398428.0364   -3756507.91849  -2917682.16148                  20398424.4534
        50.2504         44.7504
  20504793.3494   -3069052.13349  -2384957.74348                  20504788.7724
        51.2504         43.2504
  21722746.1474   -8488147.74249  -6598630.82448                  21722741.9444
        50.2504         40.0004
  22033717.5174    1851874.98049   1445965.51847                  22033714.6754
        48.2504         35.0004
  23362928.0544    4350558.30149   3387401.18847                  23362926.5044
        45.7504         30.7504
 04  6 30 15 38 10.0000000  0  8G 6G15G16G18G21G22G26G29
  21394316.6364    5079619.95749   3953405.58848                  21394315.0584
        46.0004         39.7504
  22418203.2624   -8185410.75049  -6362840.04547                  22418201.2214
        42.5004         33.5004
  23687112.7974   -1130192.66849   -873484.14447                  23687110.4214
        37.7504         26.5004
  20397224.9914   -3762830.27049  -2922608.67848                  20397221.2164
        49.0004         44.7504
  20503292.4344   -3076936.62549  -2391101.50848                  20503288.5304
        49.2504         43.2504
  21718356.3074   -8511217.86749  -6616607.54047                  21718351.6864
        51.0004         39.2504
  22036718.5684    1867647.01649   1458255.39647                  22036716.0794
        48.5004         35.0004
  23366901.1284    4371437.01249   3403670.28947                  23366899.6474
        45.5004         30.0004
 04  6 30 15 38 20.0000000  0  8G 6G15G16G18G21G22G26G29
  21398636.7164    5102318.25449   3971092.55648                  21398634.6454
        46.5004         39.7504
  22413095.8974   -8212251.47749  -6383754.87447                  22413093.3374
        43.2504         32.5004
  23687818.3814   -1126482.91449   -870593.43047                  23687816.8614
        40.0004         28.0004
  20396027.5264   -3769123.18749  -2927512.24048                  20396024.0714
        50.2504         44.5004
  20501794.4084   -3084810.48049  -2397236.98248                  20501790.2684
        50.5004         43.0004
  21713970.6944   -8534263.49649  -6634565.15848                  21713966.4544
        51.7504         39.7504
  22039729.8014    1883471.11349   1470585.87847                  22039727.3554
        48.2504         34.2504
  23370880.0414    4392346.87949   3419963.68847                  23370878.7214
        45.7504         29.5004
 04  6 30 15 38 30.0000000  0  8G 6G15G16G18G21G22G26G29
  21402961.3044    5125046.94949   3988803.21047                  21402959.0224
        47.5004         39.0004
  22407986.8544   -8239098.68749  -6404674.76547                  22407984.6704
        43.7504         32.7504
  23688532.1484   -1122735.21149   -867673.12947                  23688530.6014
        40.0004         27.7504
  20394835.6494   -3775385.95749  -2932392.31348                  20394831.9564
        50.7504         44.5004
  20500298.0054   -3092672.97749  -2403363.60248                  20500294.5214
        51.5004         43.2504
  21709590.0794   -8557283.98049  -6652503.18447                  21709585.8144
        51.0004         39.0004
  22042751.2624    1899347.87549   1482957.36547                  22042748.9544
        48.7504         34.7504
  23374864.6694    4413288.49649   3436281.82647                  23374863.1704
        45.7504         29.0004
 04  6 30 15 38 40.0000000  0  8G 6G15G16G18G21G22G26G29
  21407292.5324    5147807.50049   4006538.69647                  21407290.4864
        46.7504         39.0004
  22402876.7064   -8265950.78949  -6425598.48347                  22402874.4644
        43.7504         32.7504
  23689253.0924   -1118948.12149   -864722.19547                  23689250.6284
        41.0004         27.5004
  20393650.0274   -3781617.09449  -2937247.75348                  20393646.2174
        51.2504         44.5004
  20498804.3604   -3100522.52349  -2409480.13948                  20498800.8424
        50.5004         43.2504
  21705214.2094   -8580277.76649  -6670420.43047                  21705210.0704
        50.7504         38.7504
  22045783.0284    1915278.81649   1495371.07747                  22045780.7134
        49.0004         35.0004
  23378856.5554    4434263.31349   3452625.82247                  23378854.5584
        45.0004         29.5004
 04  6 30 15 38 50.0000000  0  8G 6G15G16G18G21G22G26G29
  21411629.3174    5170598.68849   4024298.03847                  21411627.3304
        46.0004         39.0004
  22397765.8564   -8292808.97349  -6446526.95347                  22397763.9184
        44.0004         33.0004
  23689980.8364   -1115122.85249   -861741.47247                  23689978.3444
        40.0004         28.0004
  20392470.1244   -3787817.85949  -2942079.53548                  20392466.0904
        51.2504         44.0004
  20497312.9054   -3108360.30549  -2415587.51848                  20497308.5694
        50.5004         43.2504
  21700843.6824   -8603246.04349  -6688317.79047                  21700839.0704
        51.0004         39.2504
  22048824.4494    1931262.67249   1507826.01247                  22048822.0084
        49.0004         34.5004
  23382853.8074    4455270.08249   3468994.70747                  23382852.0254
        46.2504         29.2504
 04  6 30 15 39  0.0000000  0  8G 6G15G16G18G21G22G26G29
  21415971.9974    5193417.85249   4042079.21247                  21415969.8944
        48.0004         39.2504
  22392653.4154   -8319675.74649  -6467462.07247                  22392651.2794
        45.0004         33.0004
  23690715.3144   -1111261.99649   -858733.00147                  23690713.0354
        40.7504         28.5004
  20391295.1754   -3793990.81249  -2946889.61548                  20391291.7414
        51.5004         44.5004
  20495823.2884   -3116188.90249  -2421687.71048                  20495819.0184
        51.2504         43.5004
  21696477.4844   -8626191.41049  -6706197.27348                  21696473.3244
        51.0004         39.7504
  22051875.6804    1947296.71949   1520320.07647                  22051873.7104
        48.7504         34.7504
  23386857.1124    4476306.14849   3485386.44147                  23386855.1344
        46.0004         30.0004
 04  6 30 15 39 10.0000000  0  8G 6G15G16G18G21G22G26G29
  21420319.4294    5216265.61749   4059882.65747                  21420318.0034
        47.2504         39.0004
  22387539.4014   -8346550.38349  -6488403.34747                  22387537.3054
        43.7504         33.2504
  23691457.0064   -1107364.94149   -855696.35247                  23691455.2934
        41.0004         27.5004
  20390126.2004   -3800135.25449  -2951677.50148                  20390122.5124
        50.2504         44.7504
  20494335.5494   -3124007.56649  -2427780.17948                  20494331.5114
        51.0004         43.2504
  21692115.6824   -8649113.10949  -6724058.34347                  21692111.5304
        50.7504         39.2504
  22054936.7384    1963381.69949   1532853.81047                  22054934.4534
        48.5004         34.5004
  23390865.9124    4497372.17249   3501801.53147                  23390864.3654
        46.5004         29.7504
 04  6 30 15 39 20.0000000  0  8G 6G15G16G18G21G22G26G29
  21424672.8074    5239143.14849   4077709.29348                  21424671.8134
        47.5004         40.0004
  22382423.8394   -8373431.59449  -6509349.73247                  22382421.7344
        44.5004         33.0004
  23692205.6114   -1103430.49749   -852630.62847                  23692204.1544
        38.7504         28.5004
  20388962.5944   -3806249.96949  -2956442.20848                  20388959.0714
        51.0004         45.0004
  20492849.7584   -3131814.94949  -2433863.85348                  20492845.5574
        50.5004         43.5004
  21687758.6784   -8672009.80149  -6741899.91148                  21687754.3804
        51.0004         39.5004
  22058007.4514    1979518.70349   1545428.09447                  22058005.1764
        48.7504         35.5004
  23394880.6274    4518469.24249   3518240.78047                  23394879.3294
        46.2504         30.5004
 04  6 30 15 39 30.0000000  0  8G 6G15G16G18G21G22G26G29
  21429032.3644    5262052.74649   4095560.90548                  21429030.9794
        48.0004         39.7504
  22377307.5574   -8400317.04749  -6530299.43147                  22377305.3694
        45.0004         33.0004
  23692961.6084   -1099456.46949   -849533.94747                  23692960.0534
        42.7504         29.5004
  20387805.1354   -3812332.66449  -2961181.97648                  20387801.4414
        51.5004         44.5004
  20491366.4344   -3139608.68449  -2439936.89248                  20491362.7664
        51.0004         43.2504
  21683406.7544   -8694879.21149  -6759720.20947                  21683402.4044
        51.5004         39.2504
  22061089.1024    1995710.11749   1558044.76247                  22061086.8444
        49.2504         35.7504
  23398901.7814    4539599.61349   3534705.98047                  23398899.5134
        46.5004         31.2504
 04  6 30 15 39 40.0000000  0  8G 6G15G16G18G21G22G26G29
  21433397.8084    5284991.51649   4113435.25647                  21433396.1124
        47.5004         39.2504
  22372190.2384   -8427209.60249  -6551254.65047                  22372187.8414
        44.0004         33.0004
  23693725.2904   -1095445.66849   -846408.65947                  23693723.5104
        42.0004         28.0004
  20386653.1174   -3818386.32049  -2965899.10748                  20386649.5094
        51.2504         44.5004
  20489885.3994   -3147391.62949  -2446001.52748                  20489881.9814
        51.5004         43.2504
  21679059.2154   -8717724.28149  -6777521.55347                  21679055.3364
        51.2504         39.0004
  22064179.6444    2011952.74249   1570701.36147                  22064177.3874
        49.2504         35.5004
  23402928.4854    4560760.42649   3551194.89547                  23402926.3474
        45.5004         30.0004
 04  6 30 15 39 50.0000000  0  8G 6G15G16G18G21G22G26G29
  21437768.7334    5307959.63349   4131332.48048                  21437766.9874
        48.2504         39.5004
  22367071.4904   -8454108.84449  -6572215.08547                  22367069.1934
        44.7504         33.5004
  23694495.6614   -1091397.85949   -843254.51147                  23694493.6284
        41.7504         28.0004
  20385506.9174   -3824410.50449  -2970593.27348                  20385503.3564
        51.5004         44.2504
  20488406.8374   -3155163.41449  -2452057.47448                  20488402.8824
        52.0004         43.5004
  21674716.8574   -8740544.48449  -6795303.53047                  21674712.0114
        51.2504         39.2504
  22067280.0564    2028247.10249   1583398.25047                  22067277.8104
        49.0004         35.7504
  23406961.4854    4581951.90249   3567707.71247                  23406958.9714
        47.0004         30.0004
 04  6 30 15 40  0.0000000  0  8G 6G15G16G18G21G22G26G29
  21442144.8904    5330956.55949   4149252.14447                  21442143.2324
        48.0004         38.7504
  22361952.0644   -8481015.35249  -6593181.20747                  22361949.1974
        45.0004         32.5004
  23695273.1914   -1087313.69549   -840072.07747                  23695270.5974
        43.7504         28.0004
  20384365.7194   -3830405.89149  -2975265.00648                  20384362.1694
        51.0004         43.7504
  20486929.8774   -3162924.58249  -2458105.14248                  20486926.0534
        52.0004         43.0004
  21670378.7954   -8763340.44549  -6813066.62347                  21670374.6554
        51.0004         38.2504
  22070390.5984    2044592.45749   1596134.87747                  22070388.4514
        48.5004         35.0004
  23410999.0874    4603173.37549   3584243.91847                  23410997.2074
        45.7504         28.5004
 04  6 30 15 40 10.0000000  0  8G 6G15G16G18G21G22G26G29
  21446526.8104    5353983.12949   4167194.92547                  21446524.5524
        49.0004         38.7504
  22356830.2054   -8507928.10949  -6614152.16747                  22356827.9234
        46.2504         32.5004
  23696057.1244   -1083192.23049   -836860.55747                  23696055.1434
        42.2504         28.7504
  20383230.2984   -3836371.53149  -2979913.56548                  20383227.0684
        51.2504         44.5004
  20485455.3324   -3170674.07449  -2464143.70548                  20485451.4614
        52.0004         43.7504
  21666045.9434   -8786111.22349  -6830810.07648                  21666040.9364
        51.0004         39.5004
  22073510.6744    2060989.71949   1608911.95047                  22073508.8414
        48.0004         35.5004
  23415043.4254    4624425.72349   3600804.17347                  23415041.6744
        45.2504         28.7504
 04  6 30 15 40 20.0000000  0  8G 6G15G16G18G21G22G26G29
  21450914.1284    5377040.03149   4185161.33247                  21450912.0264
        48.7504         39.0004
  22351707.6594   -8534846.42649  -6635127.49147                  22351705.0384
        45.7504         32.7504
  23696848.8974   -1079032.97749   -833619.61347                  23696846.4804
        42.5004         29.0004
  20382101.1754   -3842306.82849  -2984538.48148                  20382097.6344
        51.5004         44.2504
  20483982.6844   -3178411.22349  -2470172.65248                  20483978.6534
        51.2504         43.5004
  21661717.9714   -8808856.14149  -6848533.39148                  21661713.0054
        51.5004         39.5004
  22076641.6594    2077439.43049   1621729.87247                  22076638.7114
        48.7504         35.5004
  23419093.8664    4645709.55149   3617388.94847                  23419091.7994
        45.2504         30.2504
 04  6 30 15 40 30.0000000  0  8G 6G15G16G18G21G22G26G29
  21455307.4474    5400126.68849   4203150.91847                  21455305.2934
        48.7504         38.5004
  22346584.5874   -8561770.69549  -6656107.42647                  22346581.5174
        46.0004         32.7504
  23697647.3154   -1074836.26249   -830349.42847                  23697645.1914
        42.0004         29.0004
  20380977.5074   -3848212.23449  -2989140.09148                  20380973.6334
        51.2504         44.5004
  20482512.5554   -3186136.39549  -2476192.26948                  20482509.0214
        52.2504         43.5004
  21657394.2734   -8831575.64549  -6866236.89248                  21657389.2954
        50.2504         39.5004
  22079781.7924    2093941.11349   1634588.32147                  22079779.5744
        47.7504         36.0004
  23423149.7784    4667024.34449   3633997.86347                  23423148.1694
        46.0004         28.5004
 04  6 30 15 40 40.0000000  0  8G 6G15G16G18G21G22G26G29
  21459705.9774    5423240.40649   4221161.59947                  21459703.6764
        49.0004         39.0004
  22341459.2514   -8588703.57449  -6677094.07447                  22341456.5694
        45.2504         33.5004
  23698452.2584   -1070604.78149   -827052.19847                  23698449.9194
        40.5004         29.5004
  20379858.6564   -3854090.43749  -2993720.51148                  20379854.5144
        50.2504         44.2504
  20481044.3684   -3193852.16849  -2482204.56448                  20481040.5744
        51.0004         43.2504
  21653075.1384   -8854272.35549  -6883922.62948                  21653071.0704
        50.7504         39.5004
  22082931.0694    2110492.05149   1647485.15847                  22082928.6984
        48.5004         35.7504
  23427211.2164    4688367.35949   3650628.77847                  23427209.4514
        45.5004         29.0004
 04  6 30 15 40 50.0000000  0  8G 6G15G16G18G21G22G26G29
  21464110.4864    5446386.79749   4239197.74547                  21464108.7704
        49.2504         39.0004
  22336333.6904   -8615639.27749  -6698082.92947                  22336330.7844
        45.0004         33.0004
  23699265.1844   -1066333.00049   -823723.53247                  23699263.7024
        40.7504         28.2504
  20378746.5784   -3859935.70749  -2998275.25948                  20378743.3994
        50.7504         44.2504
  20479578.9274   -3201552.85249  -2488205.09448                  20479575.0994
        52.0004         43.2504
  21648761.3374   -8876940.52049  -6901586.12447                  21648756.9374
        50.2504         39.2504
  22086090.9244    2127097.82049   1660424.71747                  22086088.4954
        48.7504         34.7504
  23431279.0594    4709744.22749   3667286.05747                  23431277.1204
        45.0004         27.7504
 04  6 30 15 41  0.0000000  0  8G 6G15G16G18G21G22G26G29
  21468521.0524    5469563.00849   4257257.11848                  21468518.5534
        49.5004         39.5004
  22331206.6954   -8642580.68749  -6719076.23147                  22331204.0684
        45.0004         33.5004
  23700085.4824   -1062023.82049   -820365.73647                  23700083.0924
        40.0004         28.5004
  20377639.9784   -3865750.90249  -3002806.59448                  20377635.9894
        51.2504         44.2504
  20478116.1964   -3209241.30149  -2494196.09848                  20478111.7864
        51.0004         43.5004
  21644452.6454   -8899582.98449  -6919229.59948                  21644448.2594
        50.5004         39.5004
  22089260.4674    2143755.59049   1673404.78847                  22089258.4024
        47.2504         34.7504
  23435352.9874    4731152.03149   3683967.44247                  23435350.5054
        45.5004         27.7504
 04  6 30 15 41 10.0000000  0  8G 6G15G16G18G21G22G26G29
  21472936.3164    5492765.75849   4275337.18147                  21472934.2584
        48.5004         38.2504
  22326077.8254   -8669530.87549  -6740076.36847                  22326075.4634
        45.5004         33.0004
  23700912.2984   -1057680.40249   -816981.28247                  23700910.4574
        43.0004         28.0004
  20376538.3184   -3871539.23849  -3007316.97448                  20376534.6564
        51.0004         44.2504
  20476654.7984   -3216920.52749  -2500179.90348                  20476650.8254
        52.5004         43.2504
  21640148.6364   -8922202.87549  -6936855.48047                  21640144.3744
        50.7504         39.0004
  22092439.4954    2160462.06349   1686422.81847                  22092437.5974
        47.5004         34.5004
  23439431.7744    4752587.60549   3700670.51047                  23439429.8234
        45.7504         27.0004
